Wetterdaten: aktuell Samstag, 02.12.2023 21:51
Datum Zeit Temp. I. Temp. 2m Feuchte I. Feuchte 2m Luftdruck Regen Wind Richtung Richtung Sonnenschein ET UV Solar Taupunkt Windchill Windben Empfang
02.12.2023 21:51 23,7 C -2,3 C 55 % 90 % 1018,2 hPa 0,0 l/m 4,8 km/h (1 Bft) W 270 0 min 0,000 mm 0,0 UV-I 0 W/m -3,7 C -2,3 C 8,0 km/h (2 Bft) 100,00 %
02.12.2023 21:50 23,7 C -2,3 C 55 % 90 % 1018,2 hPa 0,0 l/m 3,2 km/h (1 Bft) S 180 0 min 0,000 mm 0,0 UV-I 0 W/m -3,7 C -2,3 C 9,7 km/h (2 Bft) 95,65 %
02.12.2023 21:49 23,7 C -2,4 C 55 % 90 % 1018,0 hPa 0,0 l/m 3,2 km/h (1 Bft) W 270 0 min 0,000 mm 0,0 UV-I 0 W/m -3,8 C -2,4 C 6,4 km/h (2 Bft) 100,00 %
02.12.2023 21:48 23,8 C -2,4 C 55 % 90 % 1018,1 hPa 0,0 l/m 4,8 km/h (1 Bft) W-NW 292 0 min 0,000 mm 0,0 UV-I 0 W/m -3,8 C -2,4 C 11,3 km/h (2 Bft) 100,00 %
02.12.2023 21:47 23,8 C -2,4 C 55 % 90 % 1018,0 hPa 0,0 l/m 4,8 km/h (1 Bft) W 270 0 min 0,000 mm 0,0 UV-I 0 W/m -3,8 C -2,4 C 11,3 km/h (2 Bft) 100,00 %
02.12.2023 21:46 23,8 C -2,4 C 55 % 90 % 1018,1 hPa 0,0 l/m 6,4 km/h (2 Bft) SW 225 0 min 0,000 mm 0,0 UV-I 0 W/m -3,8 C -2,4 C 14,5 km/h (3 Bft) 100,00 %
02.12.2023 21:45 23,7 C -2,4 C 55 % 90 % 1018,1 hPa 0,0 l/m 6,4 km/h (2 Bft) W 270 0 min 0,000 mm 0,0 UV-I 0 W/m -3,8 C -2,4 C 11,3 km/h (2 Bft) 100,00 %
02.12.2023 21:44 23,8 C -2,4 C 55 % 90 % 1018,0 hPa 0,0 l/m 4,8 km/h (1 Bft) S-SW 202 0 min 0,000 mm 0,0 UV-I 0 W/m -3,8 C -2,4 C 8,0 km/h (2 Bft) 100,00 %
02.12.2023 21:43 23,7 C -2,4 C 55 % 90 % 1018,0 hPa 0,0 l/m 4,8 km/h (1 Bft) W 270 0 min 0,000 mm 0,0 UV-I 0 W/m -3,8 C -2,4 C 9,7 km/h (2 Bft) 95,65 %
02.12.2023 21:42 23,7 C -2,4 C 55 % 90 % 1018,0 hPa 0,0 l/m 3,2 km/h (1 Bft) W-NW 292 0 min 0,000 mm 0,0 UV-I 0 W/m -3,8 C -2,4 C 6,4 km/h (2 Bft) 100,00 %
02.12.2023 21:41 23,8 C -2,4 C 55 % 90 % 1018,0 hPa 0,0 l/m 4,8 km/h (1 Bft) NW 315 0 min 0,000 mm 0,0 UV-I 0 W/m -3,8 C -2,4 C 9,7 km/h (2 Bft) 95,65 %
02.12.2023 21:40 23,7 C -2,4 C 55 % 90 % 1018,0 hPa 0,0 l/m 3,2 km/h (1 Bft) S-SW 202 0 min 0,000 mm 0,0 UV-I 0 W/m -3,8 C -2,4 C 4,8 km/h (1 Bft) 100,00 %
02.12.2023 21:39 23,7 C -2,4 C 55 % 90 % 1018,0 hPa 0,0 l/m 3,2 km/h (1 Bft) SW 225 0 min 0,000 mm 0,0 UV-I 0 W/m -3,8 C -2,4 C 4,8 km/h (1 Bft) 95,65 %
02.12.2023 21:38 23,7 C -2,4 C 55 % 90 % 1018,0 hPa 0,0 l/m 4,8 km/h (1 Bft) W 270 0 min 0,000 mm 0,0 UV-I 0 W/m -3,8 C -2,4 C 11,3 km/h (2 Bft) 95,65 %
02.12.2023 21:37 23,8 C -2,4 C 55 % 90 % 1018,0 hPa 0,0 l/m 3,2 km/h (1 Bft) W-SW 247 0 min 0,000 mm 0,0 UV-I 0 W/m -3,8 C -2,4 C 6,4 km/h (2 Bft) 95,65 %
02.12.2023 21:36 23,8 C -2,4 C 55 % 90 % 1017,9 hPa 0,0 l/m 3,2 km/h (1 Bft) W 270 0 min 0,000 mm 0,0 UV-I 0 W/m -3,8 C -2,4 C 4,8 km/h (1 Bft) 95,65 %
02.12.2023 21:35 23,7 C -2,4 C 55 % 90 % 1017,9 hPa 0,0 l/m 3,2 km/h (1 Bft) W-SW 247 0 min 0,000 mm 0,0 UV-I 0 W/m -3,8 C -2,4 C 4,8 km/h (1 Bft) 95,65 %
02.12.2023 21:34 23,7 C -2,3 C 55 % 90 % 1017,9 hPa 0,0 l/m 3,2 km/h (1 Bft) W 270 0 min 0,000 mm 0,0 UV-I 0 W/m -3,7 C -2,3 C 4,8 km/h (1 Bft) 100,00 %
02.12.2023 21:33 23,8 C -2,3 C 55 % 90 % 1017,9 hPa 0,0 l/m 6,4 km/h (2 Bft) W 270 0 min 0,000 mm 0,0 UV-I 0 W/m -3,7 C -2,3 C 11,3 km/h (2 Bft) 95,65 %
02.12.2023 21:32 23,7 C -2,3 C 55 % 90 % 1017,9 hPa 0,0 l/m 6,4 km/h (2 Bft) W-NW 292 0 min 0,000 mm 0,0 UV-I 0 W/m -3,7 C -2,3 C 14,5 km/h (3 Bft) 100,00 %
02.12.2023 21:31 23,8 C -2,3 C 55 % 90 % 1017,8 hPa 0,0 l/m 8,0 km/h (2 Bft) W-SW 247 0 min 0,000 mm 0,0 UV-I 0 W/m -3,7 C -4,1 C 12,9 km/h (3 Bft) 100,00 %
02.12.2023 21:30 23,7 C -2,3 C 55 % 90 % 1017,8 hPa 0,0 l/m 4,8 km/h (1 Bft) S 180 0 min 0,000 mm 0,0 UV-I 0 W/m -3,7 C -2,3 C 8,0 km/h (2 Bft) 95,65 %
02.12.2023 21:29 23,7 C -2,3 C 55 % 91 % 1017,8 hPa 0,0 l/m 4,8 km/h (1 Bft) W-SW 247 0 min 0,000 mm 0,0 UV-I 0 W/m -3,6 C -2,3 C 9,7 km/h (2 Bft) 95,65 %
02.12.2023 21:28 23,7 C -2,3 C 55 % 91 % 1017,7 hPa 0,0 l/m 6,4 km/h (2 Bft) SW 225 0 min 0,000 mm 0,0 UV-I 0 W/m -3,6 C -2,3 C 14,5 km/h (3 Bft) 100,00 %
02.12.2023 21:27 23,7 C -2,2 C 55 % 91 % 1017,7 hPa 0,0 l/m 6,4 km/h (2 Bft) W-SW 247 0 min 0,000 mm 0,0 UV-I 0 W/m -3,5 C -2,2 C 14,5 km/h (3 Bft) 100,00 %
02.12.2023 21:26 23,7 C -2,2 C 55 % 91 % 1017,7 hPa 0,0 l/m 8,0 km/h (2 Bft) SW 225 0 min 0,000 mm 0,0 UV-I 0 W/m -3,5 C -4,0 C 14,5 km/h (3 Bft) 100,00 %
02.12.2023 21:25 23,7 C -2,2 C 55 % 91 % 1017,6 hPa 0,0 l/m 6,4 km/h (2 Bft) SW 225 0 min 0,000 mm 0,0 UV-I 0 W/m -3,5 C -2,2 C 11,3 km/h (2 Bft) 100,00 %
02.12.2023 21:24 23,7 C -2,3 C 55 % 91 % 1017,5 hPa 0,0 l/m 9,7 km/h (2 Bft) W-SW 247 0 min 0,000 mm 0,0 UV-I 0 W/m -3,6 C -5,7 C 16,1 km/h (3 Bft) 95,65 %
02.12.2023 21:23 23,7 C -2,2 C 55 % 91 % 1017,5 hPa 0,0 l/m 4,8 km/h (1 Bft) W 270 0 min 0,000 mm 0,0 UV-I 0 W/m -3,5 C -2,2 C 9,7 km/h (2 Bft) 100,00 %
02.12.2023 21:22 23,7 C -2,2 C 55 % 91 % 1017,6 hPa 0,0 l/m 4,8 km/h (1 Bft) W-NW 292 0 min 0,000 mm 0,0 UV-I 0 W/m -3,5 C -2,2 C 9,7 km/h (2 Bft) 91,30 %
02.12.2023 21:21 23,7 C -2,3 C 55 % 91 % 1017,5 hPa 0,0 l/m 6,4 km/h (2 Bft) W 270 0 min 0,000 mm 0,0 UV-I 0 W/m -3,6 C -2,3 C 9,7 km/h (2 Bft) 100,00 %
02.12.2023 21:20 23,7 C -2,3 C 55 % 91 % 1017,5 hPa 0,0 l/m 8,0 km/h (2 Bft) SW 225 0 min 0,000 mm 0,0 UV-I 0 W/m -3,6 C -4,1 C 17,7 km/h (3 Bft) 100,00 %
02.12.2023 21:19 23,7 C -2,3 C 55 % 92 % 1017,5 hPa 0,0 l/m 4,8 km/h (1 Bft) W 270 0 min 0,000 mm 0,0 UV-I 0 W/m -3,4 C -2,3 C 8,0 km/h (2 Bft) 100,00 %
02.12.2023 21:18 23,7 C -2,3 C 55 % 92 % 1017,5 hPa 0,0 l/m 3,2 km/h (1 Bft) W 270 0 min 0,000 mm 0,0 UV-I 0 W/m -3,4 C -2,3 C 6,4 km/h (2 Bft) 100,00 %
02.12.2023 21:17 23,7 C -2,3 C 55 % 91 % 1017,4 hPa 0,0 l/m 4,8 km/h (1 Bft) W-SW 247 0 min 0,000 mm 0,0 UV-I 0 W/m -3,6 C -2,3 C 12,9 km/h (3 Bft) 100,00 %
02.12.2023 21:16 23,7 C -2,3 C 55 % 91 % 1017,4 hPa 0,0 l/m 4,8 km/h (1 Bft) W-NW 292 0 min 0,000 mm 0,0 UV-I 0 W/m -3,6 C -2,3 C 6,4 km/h (2 Bft) 100,00 %
02.12.2023 21:15 23,7 C -2,3 C 55 % 91 % 1017,3 hPa 0,0 l/m 6,4 km/h (2 Bft) W-SW 247 0 min 0,000 mm 0,0 UV-I 0 W/m -3,6 C -2,3 C 12,9 km/h (3 Bft) 95,65 %
02.12.2023 21:14 23,8 C -2,3 C 55 % 92 % 1017,3 hPa 0,0 l/m 6,4 km/h (2 Bft) W-SW 247 0 min 0,000 mm 0,0 UV-I 0 W/m -3,4 C -2,3 C 11,3 km/h (2 Bft) 100,00 %
02.12.2023 21:13 23,7 C -2,3 C 55 % 92 % 1017,2 hPa 0,0 l/m 6,4 km/h (2 Bft) W-SW 247 0 min 0,000 mm 0,0 UV-I 0 W/m -3,4 C -2,3 C 12,9 km/h (3 Bft) 100,00 %
02.12.2023 21:12 23,7 C -2,3 C 55 % 92 % 1017,3 hPa 0,0 l/m 3,2 km/h (1 Bft) S 180 0 min 0,000 mm 0,0 UV-I 0 W/m -3,4 C -2,3 C 9,7 km/h (2 Bft) 100,00 %
02.12.2023 21:11 23,7 C -2,3 C 55 % 91 % 1017,2 hPa 0,0 l/m 3,2 km/h (1 Bft) W-SW 247 0 min 0,000 mm 0,0 UV-I 0 W/m -3,6 C -2,3 C 4,8 km/h (1 Bft) 100,00 %
02.12.2023 21:10 23,7 C -2,3 C 55 % 91 % 1017,2 hPa 0,0 l/m 4,8 km/h (1 Bft) SW 225 0 min 0,000 mm 0,0 UV-I 0 W/m -3,6 C -2,3 C 9,7 km/h (2 Bft) 100,00 %
02.12.2023 21:09 23,8 C -2,2 C 55 % 91 % 1017,2 hPa 0,0 l/m 4,8 km/h (1 Bft) W 270 0 min 0,000 mm 0,0 UV-I 0 W/m -3,5 C -2,2 C 6,4 km/h (2 Bft) 100,00 %
02.12.2023 21:08 23,7 C -2,2 C 55 % 91 % 1017,2 hPa 0,0 l/m 6,4 km/h (2 Bft) W 270 0 min 0,000 mm 0,0 UV-I 0 W/m -3,5 C -2,2 C 20,9 km/h (4 Bft) 91,30 %
02.12.2023 21:07 23,7 C -2,2 C 55 % 91 % 1017,1 hPa 0,0 l/m 9,7 km/h (2 Bft) W-SW 247 0 min 0,000 mm 0,0 UV-I 0 W/m -3,5 C -5,6 C 17,7 km/h (3 Bft) 95,65 %
02.12.2023 21:06 23,7 C -2,2 C 55 % 91 % 1017,2 hPa 0,0 l/m 8,0 km/h (2 Bft) W-SW 247 0 min 0,000 mm 0,0 UV-I 0 W/m -3,5 C -4,0 C 20,9 km/h (4 Bft) 100,00 %
02.12.2023 21:05 23,7 C -2,2 C 55 % 91 % 1017,2 hPa 0,0 l/m 8,0 km/h (2 Bft) W-NW 292 0 min 0,000 mm 0,0 UV-I 0 W/m -3,5 C -4,0 C 12,9 km/h (3 Bft) 100,00 %
02.12.2023 21:04 23,7 C -2,2 C 55 % 91 % 1017,1 hPa 0,0 l/m 4,8 km/h (1 Bft) W-SW 247 0 min 0,000 mm 0,0 UV-I 0 W/m -3,5 C -2,2 C 9,7 km/h (2 Bft) 100,00 %
02.12.2023 21:03 23,7 C -2,2 C 55 % 91 % 1017,1 hPa 0,0 l/m 4,8 km/h (1 Bft) W 270 0 min 0,000 mm 0,0 UV-I 0 W/m -3,5 C -2,2 C 11,3 km/h (2 Bft) 100,00 %
02.12.2023 21:02 23,7 C -2,2 C 55 % 91 % 1017,1 hPa 0,0 l/m 8,0 km/h (2 Bft) W 270 0 min 0,000 mm 0,0 UV-I 0 W/m -3,5 C -4,0 C 16,1 km/h (3 Bft) 100,00 %
02.12.2023 21:01 23,7 C -2,2 C 55 % 91 % 1017,1 hPa 0,0 l/m 8,0 km/h (2 Bft) W-SW 247 0 min 0,000 mm 0,0 UV-I 0 W/m -3,5 C -4,0 C 14,5 km/h (3 Bft) 95,65 %
02.12.2023 21:00 23,8 C -2,2 C 55 % 91 % 1017,0 hPa 0,0 l/m 6,4 km/h (2 Bft) W 270 0 min 0,000 mm 0,0 UV-I 0 W/m -3,5 C -2,2 C 9,7 km/h (2 Bft) 100,00 %
02.12.2023 20:59 23,7 C -2,2 C 55 % 91 % 1017,0 hPa 0,0 l/m 4,8 km/h (1 Bft) W 270 0 min 0,000 mm 0,0 UV-I 0 W/m -3,5 C -2,2 C 11,3 km/h (2 Bft) 95,65 %
02.12.2023 20:58 23,7 C -2,1 C 55 % 91 % 1016,9 hPa 0,0 l/m 4,8 km/h (1 Bft) W-SW 247 0 min 0,000 mm 0,0 UV-I 0 W/m -3,4 C -2,1 C 11,3 km/h (2 Bft) 100,00 %
02.12.2023 20:57 23,7 C -2,1 C 55 % 91 % 1017,0 hPa 0,0 l/m 4,8 km/h (1 Bft) W-SW 247 0 min 0,000 mm 0,0 UV-I 0 W/m -3,4 C -2,1 C 9,7 km/h (2 Bft) 100,00 %
02.12.2023 20:56 23,7 C -2,1 C 55 % 91 % 1016,9 hPa 0,0 l/m 4,8 km/h (1 Bft) W 270 0 min 0,000 mm 0,0 UV-I 0 W/m -3,4 C -2,1 C 9,7 km/h (2 Bft) 100,00 %
02.12.2023 20:55 23,7 C -2,1 C 55 % 91 % 1016,9 hPa 0,0 l/m 4,8 km/h (1 Bft) W 270 0 min 0,000 mm 0,0 UV-I 0 W/m -3,4 C -2,1 C 9,7 km/h (2 Bft) 95,65 %
02.12.2023 20:54 23,7 C -2,0 C 55 % 90 % 1016,8 hPa 0,0 l/m 6,4 km/h (2 Bft) W 270 0 min 0,000 mm 0,0 UV-I 0 W/m -3,4 C -2,0 C 16,1 km/h (3 Bft) 95,65 %
02.12.2023 20:53 23,7 C -1,9 C 55 % 90 % 1016,9 hPa 0,0 l/m 8,0 km/h (2 Bft) W 270 0 min 0,000 mm 0,0 UV-I 0 W/m -3,3 C -3,6 C 14,5 km/h (3 Bft) 100,00 %
02.12.2023 20:52 23,7 C -1,9 C 55 % 90 % 1016,9 hPa 0,0 l/m 8,0 km/h (2 Bft) W-NW 292 0 min 0,000 mm 0,0 UV-I 0 W/m -3,3 C -3,6 C 14,5 km/h (3 Bft) 100,00 %
02.12.2023 20:51 23,7 C -1,9 C 55 % 90 % 1016,8 hPa 0,0 l/m 4,8 km/h (1 Bft) SW 225 0 min 0,000 mm 0,0 UV-I 0 W/m -3,3 C -1,9 C 12,9 km/h (3 Bft) 95,65 %
02.12.2023 20:50 23,7 C -1,9 C 55 % 90 % 1016,8 hPa 0,0 l/m 6,4 km/h (2 Bft) W 270 0 min 0,000 mm 0,0 UV-I 0 W/m -3,3 C -1,9 C 16,1 km/h (3 Bft) 100,00 %
02.12.2023 20:49 23,7 C -1,9 C 55 % 90 % 1016,8 hPa 0,0 l/m 6,4 km/h (2 Bft) W 270 0 min 0,000 mm 0,0 UV-I 0 W/m -3,3 C -1,9 C 11,3 km/h (2 Bft) 95,65 %
02.12.2023 20:48 23,7 C -1,9 C 55 % 90 % 1016,7 hPa 0,0 l/m 3,2 km/h (1 Bft) W 270 0 min 0,000 mm 0,0 UV-I 0 W/m -3,3 C -1,9 C 6,4 km/h (2 Bft) 100,00 %
02.12.2023 20:47 23,7 C -1,9 C 55 % 90 % 1016,8 hPa 0,0 l/m 3,2 km/h (1 Bft) W 270 0 min 0,000 mm 0,0 UV-I 0 W/m -3,3 C -1,9 C 4,8 km/h (1 Bft) 95,65 %
02.12.2023 20:46 23,7 C -1,9 C 55 % 91 % 1016,8 hPa 0,0 l/m 4,8 km/h (1 Bft) S-SW 202 0 min 0,000 mm 0,0 UV-I 0 W/m -3,2 C -1,9 C 14,5 km/h (3 Bft) 100,00 %
02.12.2023 20:45 23,7 C -2,0 C 55 % 90 % 1016,7 hPa 0,0 l/m 6,4 km/h (2 Bft) W-NW 292 0 min 0,000 mm 0,0 UV-I 0 W/m -3,4 C -2,0 C 14,5 km/h (3 Bft) 95,65 %
02.12.2023 20:44 23,7 C -2,0 C 55 % 90 % 1016,7 hPa 0,0 l/m 3,2 km/h (1 Bft) W-SW 247 0 min 0,000 mm 0,0 UV-I 0 W/m -3,4 C -2,0 C 8,0 km/h (2 Bft) 95,65 %
02.12.2023 20:43 23,7 C -1,9 C 55 % 90 % 1016,7 hPa 0,0 l/m 4,8 km/h (1 Bft) W 270 0 min 0,000 mm 0,0 UV-I 0 W/m -3,3 C -1,9 C 11,3 km/h (2 Bft) 100,00 %
02.12.2023 20:42 23,7 C -1,9 C 55 % 90 % 1016,6 hPa 0,0 l/m 3,2 km/h (1 Bft) W 270 0 min 0,000 mm 0,0 UV-I 0 W/m -3,3 C -1,9 C 6,4 km/h (2 Bft) 100,00 %
02.12.2023 20:41 23,7 C -1,9 C 55 % 90 % 1016,6 hPa 0,0 l/m 6,4 km/h (2 Bft) W-SW 247 0 min 0,000 mm 0,0 UV-I 0 W/m -3,3 C -1,9 C 16,1 km/h (3 Bft) 100,00 %
02.12.2023 20:40 23,7 C -1,9 C 55 % 90 % 1016,6 hPa 0,0 l/m 8,0 km/h (2 Bft) W-SW 247 0 min 0,000 mm 0,0 UV-I 0 W/m -3,3 C -3,6 C 14,5 km/h (3 Bft) 95,65 %
02.12.2023 20:39 23,7 C -1,9 C 55 % 90 % 1016,6 hPa 0,0 l/m 8,0 km/h (2 Bft) W 270 0 min 0,000 mm 0,0 UV-I 0 W/m -3,3 C -3,6 C 12,9 km/h (3 Bft) 100,00 %
02.12.2023 20:38 23,7 C -1,9 C 55 % 90 % 1016,6 hPa 0,0 l/m 4,8 km/h (1 Bft) W 270 0 min 0,000 mm 0,0 UV-I 0 W/m -3,3 C -1,9 C 8,0 km/h (2 Bft) 95,65 %
02.12.2023 20:37 23,7 C -1,9 C 55 % 90 % 1016,5 hPa 0,0 l/m 6,4 km/h (2 Bft) W-SW 247 0 min 0,000 mm 0,0 UV-I 0 W/m -3,3 C -1,9 C 11,3 km/h (2 Bft) 100,00 %
02.12.2023 20:36 23,7 C -1,9 C 55 % 90 % 1016,5 hPa 0,0 l/m 3,2 km/h (1 Bft) W-SW 247 0 min 0,000 mm 0,0 UV-I 0 W/m -3,3 C -1,9 C 4,8 km/h (1 Bft) 100,00 %
02.12.2023 20:35 23,7 C -1,9 C 55 % 90 % 1016,5 hPa 0,0 l/m 4,8 km/h (1 Bft) W-NW 292 0 min 0,000 mm 0,0 UV-I 0 W/m -3,3 C -1,9 C 8,0 km/h (2 Bft) 100,00 %
02.12.2023 20:34 23,7 C -1,9 C 55 % 90 % 1016,4 hPa 0,0 l/m 4,8 km/h (1 Bft) W 270 0 min 0,000 mm 0,0 UV-I 0 W/m -3,3 C -1,9 C 9,7 km/h (2 Bft) 100,00 %
02.12.2023 20:33 23,7 C -1,9 C 55 % 90 % 1016,5 hPa 0,0 l/m 6,4 km/h (2 Bft) W-NW 292 0 min 0,000 mm 0,0 UV-I 0 W/m -3,3 C -1,9 C 11,3 km/h (2 Bft) 95,65 %
02.12.2023 20:32 23,8 C -1,9 C 55 % 90 % 1016,4 hPa 0,0 l/m 4,8 km/h (1 Bft) W 270 0 min 0,000 mm 0,0 UV-I 0 W/m -3,3 C -1,9 C 11,3 km/h (2 Bft) 100,00 %
02.12.2023 20:31 23,7 C -1,9 C 55 % 90 % 1016,4 hPa 0,0 l/m 6,4 km/h (2 Bft) W-SW 247 0 min 0,000 mm 0,0 UV-I 0 W/m -3,3 C -1,9 C 12,9 km/h (3 Bft) 100,00 %
02.12.2023 20:30 23,7 C -1,8 C 55 % 90 % 1016,4 hPa 0,0 l/m 6,4 km/h (2 Bft) W-NW 292 0 min 0,000 mm 0,0 UV-I 0 W/m -3,2 C -1,8 C 11,3 km/h (2 Bft) 100,00 %
02.12.2023 20:29 23,7 C -1,8 C 55 % 90 % 1016,4 hPa 0,0 l/m 6,4 km/h (2 Bft) S 180 0 min 0,000 mm 0,0 UV-I 0 W/m -3,2 C -1,8 C 16,1 km/h (3 Bft) 100,00 %
02.12.2023 20:28 23,7 C -1,8 C 55 % 90 % 1016,3 hPa 0,0 l/m 4,8 km/h (1 Bft) W 270 0 min 0,000 mm 0,0 UV-I 0 W/m -3,2 C -1,8 C 14,5 km/h (3 Bft) 100,00 %
02.12.2023 20:27 23,7 C -1,8 C 55 % 90 % 1016,4 hPa 0,0 l/m 3,2 km/h (1 Bft) W 270 0 min 0,000 mm 0,0 UV-I 0 W/m -3,2 C -1,8 C 4,8 km/h (1 Bft) 100,00 %
02.12.2023 20:26 23,7 C -1,8 C 55 % 90 % 1016,4 hPa 0,0 l/m 4,8 km/h (1 Bft) W 270 0 min 0,000 mm 0,0 UV-I 0 W/m -3,2 C -1,8 C 11,3 km/h (2 Bft) 95,65 %
02.12.2023 20:25 23,7 C -1,8 C 55 % 90 % 1016,3 hPa 0,0 l/m 3,2 km/h (1 Bft) W-SW 247 0 min 0,000 mm 0,0 UV-I 0 W/m -3,2 C -1,8 C 4,8 km/h (1 Bft) 95,65 %
02.12.2023 20:24 23,7 C -1,7 C 55 % 91 % 1016,3 hPa 0,0 l/m 3,2 km/h (1 Bft) W-SW 247 0 min 0,000 mm 0,0 UV-I 0 W/m -3,0 C -1,7 C 4,8 km/h (1 Bft) 100,00 %
02.12.2023 20:23 23,7 C -1,7 C 55 % 91 % 1016,3 hPa 0,0 l/m 4,8 km/h (1 Bft) W-SW 247 0 min 0,000 mm 0,0 UV-I 0 W/m -3,0 C -1,7 C 8,0 km/h (2 Bft) 100,00 %
02.12.2023 20:22 23,7 C -1,8 C 55 % 91 % 1016,3 hPa 0,0 l/m 3,2 km/h (1 Bft) W-SW 247 0 min 0,000 mm 0,0 UV-I 0 W/m -3,1 C -1,8 C 11,3 km/h (2 Bft) 95,65 %
02.12.2023 20:21 23,7 C -1,7 C 55 % 90 % 1016,2 hPa 0,0 l/m 3,2 km/h (1 Bft) W-NW 292 0 min 0,000 mm 0,0 UV-I 0 W/m -3,1 C -1,7 C 3,2 km/h (1 Bft) 100,00 %
02.12.2023 20:20 23,7 C -1,7 C 55 % 91 % 1016,2 hPa 0,0 l/m 3,2 km/h (1 Bft) W-NW 292 0 min 0,000 mm 0,0 UV-I 0 W/m -3,0 C -1,7 C 9,7 km/h (2 Bft) 100,00 %
02.12.2023 20:19 23,7 C -1,7 C 55 % 91 % 1016,2 hPa 0,0 l/m 4,8 km/h (1 Bft) S-SW 202 0 min 0,000 mm 0,0 UV-I 0 W/m -3,0 C -1,7 C 12,9 km/h (3 Bft) 91,30 %
02.12.2023 20:18 23,7 C -1,8 C 55 % 91 % 1016,2 hPa 0,0 l/m 4,8 km/h (1 Bft) SW 225 0 min 0,000 mm 0,0 UV-I 0 W/m -3,1 C -1,8 C 12,9 km/h (3 Bft) 100,00 %
02.12.2023 20:17 23,7 C -1,8 C 55 % 91 % 1016,3 hPa 0,0 l/m 4,8 km/h (1 Bft) W 270 0 min 0,000 mm 0,0 UV-I 0 W/m -3,1 C -1,8 C 6,4 km/h (2 Bft) 100,00 %
02.12.2023 20:16 23,7 C -1,8 C 55 % 91 % 1016,2 hPa 0,0 l/m 4,8 km/h (1 Bft) W-SW 247 0 min 0,000 mm 0,0 UV-I 0 W/m -3,1 C -1,8 C 9,7 km/h (2 Bft) 95,65 %
02.12.2023 20:15 23,7 C -1,8 C 55 % 91 % 1016,1 hPa 0,0 l/m 3,2 km/h (1 Bft) W 270 0 min 0,000 mm 0,0 UV-I 0 W/m -3,1 C -1,8 C 4,8 km/h (1 Bft) 100,00 %
02.12.2023 20:14 23,7 C -1,8 C 55 % 90 % 1016,1 hPa 0,0 l/m 1,6 km/h (1 Bft) SW 225 0 min 0,000 mm 0,0 UV-I 0 W/m -3,2 C -1,8 C 4,8 km/h (1 Bft) 100,00 %
02.12.2023 20:13 23,7 C -1,8 C 55 % 90 % 1016,1 hPa 0,0 l/m 3,2 km/h (1 Bft) W-SW 247 0 min 0,000 mm 0,0 UV-I 0 W/m -3,2 C -1,8 C 4,8 km/h (1 Bft) 100,00 %
02.12.2023 20:12 23,7 C -1,8 C 55 % 90 % 1016,0 hPa 0,0 l/m 4,8 km/h (1 Bft) W-SW 247 0 min 0,000 mm 0,0 UV-I 0 W/m -3,2 C -1,8 C 9,7 km/h (2 Bft) 91,30 %
02.12.2023 20:11 23,7 C -1,8 C 55 % 90 % 1016,0 hPa 0,0 l/m 4,8 km/h (1 Bft) W-SW 247 0 min 0,000 mm 0,0 UV-I 0 W/m -3,2 C -1,8 C 9,7 km/h (2 Bft) 100,00 %
02.12.2023 20:10 23,7 C -1,8 C 55 % 90 % 1016,0 hPa 0,0 l/m 3,2 km/h (1 Bft) W 270 0 min 0,000 mm 0,0 UV-I 0 W/m -3,2 C -1,8 C 4,8 km/h (1 Bft) 100,00 %
02.12.2023 20:09 23,7 C -1,8 C 55 % 90 % 1016,0 hPa 0,0 l/m 4,8 km/h (1 Bft) W 270 0 min 0,000 mm 0,0 UV-I 0 W/m -3,2 C -1,8 C 14,5 km/h (3 Bft) 100,00 %
02.12.2023 20:08 23,7 C -1,8 C 55 % 90 % 1016,0 hPa 0,0 l/m 4,8 km/h (1 Bft) W 270 0 min 0,000 mm 0,0 UV-I 0 W/m -3,2 C -1,8 C 11,3 km/h (2 Bft) 95,65 %
02.12.2023 20:07 23,7 C -1,8 C 55 % 90 % 1016,0 hPa 0,0 l/m 3,2 km/h (1 Bft) W 270 0 min 0,000 mm 0,0 UV-I 0 W/m -3,2 C -1,8 C 6,4 km/h (2 Bft) 100,00 %
02.12.2023 20:06 23,7 C -1,8 C 55 % 91 % 1016,0 hPa 0,0 l/m 3,2 km/h (1 Bft) W-NW 292 0 min 0,000 mm 0,0 UV-I 0 W/m -3,1 C -1,8 C 8,0 km/h (2 Bft) 95,65 %
02.12.2023 20:05 23,7 C -1,7 C 55 % 91 % 1015,9 hPa 0,0 l/m 6,4 km/h (2 Bft) W-SW 247 0 min 0,000 mm 0,0 UV-I 0 W/m -3,0 C -1,7 C 11,3 km/h (2 Bft) 95,65 %
02.12.2023 20:04 23,7 C -1,7 C 55 % 91 % 1015,9 hPa 0,0 l/m 4,8 km/h (1 Bft) W-NW 292 0 min 0,000 mm 0,0 UV-I 0 W/m -3,0 C -1,7 C 8,0 km/h (2 Bft) 100,00 %
02.12.2023 20:03 23,7 C -1,7 C 55 % 91 % 1015,8 hPa 0,0 l/m 3,2 km/h (1 Bft) W-NW 292 0 min 0,000 mm 0,0 UV-I 0 W/m -3,0 C -1,7 C 4,8 km/h (1 Bft) 100,00 %
02.12.2023 20:02 23,7 C -1,7 C 55 % 91 % 1015,8 hPa 0,0 l/m 3,2 km/h (1 Bft) SW 225 0 min 0,000 mm 0,0 UV-I 0 W/m -3,0 C -1,7 C 6,4 km/h (2 Bft) 100,00 %
02.12.2023 20:01 23,7 C -1,7 C 55 % 91 % 1015,7 hPa 0,0 l/m 3,2 km/h (1 Bft) W-SW 247 0 min 0,000 mm 0,0 UV-I 0 W/m -3,0 C -1,7 C 3,2 km/h (1 Bft) 100,00 %
02.12.2023 20:00 23,7 C -1,7 C 55 % 91 % 1015,8 hPa 0,0 l/m 3,2 km/h (1 Bft) W-SW 247 0 min 0,000 mm 0,0 UV-I 0 W/m -3,0 C -1,7 C 6,4 km/h (2 Bft) 100,00 %
02.12.2023 19:59 23,7 C -1,7 C 55 % 91 % 1015,7 hPa 0,0 l/m 3,2 km/h (1 Bft) SW 225 0 min 0,000 mm 0,0 UV-I 0 W/m -3,0 C -1,7 C 6,4 km/h (2 Bft) 95,65 %
02.12.2023 19:58 23,7 C -1,7 C 55 % 91 % 1015,7 hPa 0,0 l/m 4,8 km/h (1 Bft) W 270 0 min 0,000 mm 0,0 UV-I 0 W/m -3,0 C -1,7 C 9,7 km/h (2 Bft) 95,65 %
02.12.2023 19:57 23,7 C -1,7 C 55 % 92 % 1015,7 hPa 0,0 l/m 3,2 km/h (1 Bft) W 270 0 min 0,000 mm 0,0 UV-I 0 W/m -2,8 C -1,7 C 4,8 km/h (1 Bft) 100,00 %
02.12.2023 19:56 23,7 C -1,7 C 55 % 92 % 1015,6 hPa 0,0 l/m 3,2 km/h (1 Bft) W 270 0 min 0,000 mm 0,0 UV-I 0 W/m -2,8 C -1,7 C 6,4 km/h (2 Bft) 100,00 %
02.12.2023 19:55 23,7 C -1,7 C 55 % 92 % 1015,6 hPa 0,0 l/m 3,2 km/h (1 Bft) W-SW 247 0 min 0,000 mm 0,0 UV-I 0 W/m -2,8 C -1,7 C 4,8 km/h (1 Bft) 95,65 %
02.12.2023 19:54 23,7 C -1,7 C 55 % 92 % 1015,6 hPa 0,0 l/m 3,2 km/h (1 Bft) W 270 0 min 0,000 mm 0,0 UV-I 0 W/m -2,8 C -1,7 C 4,8 km/h (1 Bft) 100,00 %
02.12.2023 19:53 23,7 C -1,7 C 55 % 92 % 1015,5 hPa 0,0 l/m 3,2 km/h (1 Bft) NW 315 0 min 0,000 mm 0,0 UV-I 0 W/m -2,8 C -1,7 C 8,0 km/h (2 Bft) 100,00 %
02.12.2023 19:52 23,7 C -1,7 C 54 % 92 % 1015,6 hPa 0,0 l/m 1,6 km/h (1 Bft) S-SW 202 0 min 0,000 mm 0,0 UV-I 0 W/m -2,8 C -1,7 C 4,8 km/h (1 Bft) 91,30 %
02.12.2023 19:51 23,7 C -1,7 C 54 % 92 % 1015,5 hPa 0,0 l/m 0,0 km/h (0 Bft) W-SW 247 0 min 0,000 mm 0,0 UV-I 0 W/m -2,8 C -1,7 C 1,6 km/h (1 Bft) 91,30 %
02.12.2023 19:50 23,7 C -1,8 C 54 % 92 % 1015,5 hPa 0,0 l/m 1,6 km/h (1 Bft) S-SW 202 0 min 0,000 mm 0,0 UV-I 0 W/m -2,9 C -1,8 C 6,4 km/h (2 Bft) 95,65 %
02.12.2023 19:49 23,7 C -1,7 C 54 % 92 % 1015,4 hPa 0,0 l/m 3,2 km/h (1 Bft) SW 225 0 min 0,000 mm 0,0 UV-I 0 W/m -2,8 C -1,7 C 8,0 km/h (2 Bft) 100,00 %
02.12.2023 19:48 23,7 C -1,8 C 54 % 92 % 1015,4 hPa 0,0 l/m 1,6 km/h (1 Bft) W 270 0 min 0,000 mm 0,0 UV-I 0 W/m -2,9 C -1,8 C 4,8 km/h (1 Bft) 95,65 %
02.12.2023 19:47 23,7 C -1,8 C 54 % 92 % 1015,4 hPa 0,0 l/m 1,6 km/h (1 Bft) NW 315 0 min 0,000 mm 0,0 UV-I 0 W/m -2,9 C -1,8 C 3,2 km/h (1 Bft) 100,00 %
02.12.2023 19:46 23,7 C -1,8 C 54 % 92 % 1015,4 hPa 0,0 l/m 1,6 km/h (1 Bft) W 270 0 min 0,000 mm 0,0 UV-I 0 W/m -2,9 C -1,8 C 4,8 km/h (1 Bft) 100,00 %
02.12.2023 19:45 23,7 C -1,8 C 54 % 92 % 1015,4 hPa 0,0 l/m 1,6 km/h (1 Bft) W 270 0 min 0,000 mm 0,0 UV-I 0 W/m -2,9 C -1,8 C 3,2 km/h (1 Bft) 95,65 %
02.12.2023 19:44 23,7 C -1,8 C 54 % 92 % 1015,3 hPa 0,0 l/m 3,2 km/h (1 Bft) W 270 0 min 0,000 mm 0,0 UV-I 0 W/m -2,9 C -1,8 C 6,4 km/h (2 Bft) 95,65 %
02.12.2023 19:43 23,7 C -1,8 C 54 % 92 % 1015,2 hPa 0,0 l/m 3,2 km/h (1 Bft) NW 315 0 min 0,000 mm 0,0 UV-I 0 W/m -2,9 C -1,8 C 4,8 km/h (1 Bft) 86,96 %
02.12.2023 19:42 23,7 C -1,8 C 54 % 92 % 1015,3 hPa 0,0 l/m 3,2 km/h (1 Bft) W 270 0 min 0,000 mm 0,0 UV-I 0 W/m -2,9 C -1,8 C 6,4 km/h (2 Bft) 91,30 %
02.12.2023 19:41 23,7 C -1,9 C 54 % 92 % 1015,3 hPa 0,0 l/m 1,6 km/h (1 Bft) W 270 0 min 0,000 mm 0,0 UV-I 0 W/m -3,0 C -1,9 C 3,2 km/h (1 Bft) 100,00 %
02.12.2023 19:40 23,7 C -1,8 C 53 % 92 % 1015,2 hPa 0,0 l/m 1,6 km/h (1 Bft) W-NW 292 0 min 0,000 mm 0,0 UV-I 0 W/m -2,9 C -1,8 C 3,2 km/h (1 Bft) 100,00 %
02.12.2023 19:39 23,7 C -1,8 C 53 % 92 % 1015,3 hPa 0,0 l/m 3,2 km/h (1 Bft) W-NW 292 0 min 0,000 mm 0,0 UV-I 0 W/m -2,9 C -1,8 C 8,0 km/h (2 Bft) 82,61 %
02.12.2023 19:38 23,7 C -1,9 C 53 % 92 % 1015,2 hPa 0,0 l/m 1,6 km/h (1 Bft) W 270 0 min 0,000 mm 0,0 UV-I 0 W/m -3,0 C -1,9 C 6,4 km/h (2 Bft) 95,65 %
02.12.2023 19:37 23,7 C -1,8 C 53 % 92 % 1015,2 hPa 0,0 l/m 3,2 km/h (1 Bft) W-NW 292 0 min 0,000 mm 0,0 UV-I 0 W/m -2,9 C -1,8 C 4,8 km/h (1 Bft) 95,65 %
02.12.2023 19:36 23,7 C -1,8 C 53 % 92 % 1015,1 hPa 0,0 l/m 3,2 km/h (1 Bft) W-SW 247 0 min 0,000 mm 0,0 UV-I 0 W/m -2,9 C -1,8 C 6,4 km/h (2 Bft) 95,65 %
02.12.2023 19:35 23,7 C -1,8 C 53 % 92 % 1015,1 hPa 0,0 l/m 3,2 km/h (1 Bft) W 270 0 min 0,000 mm 0,0 UV-I 0 W/m -2,9 C -1,8 C 4,8 km/h (1 Bft) 100,00 %
02.12.2023 19:34 23,7 C -1,8 C 53 % 92 % 1015,1 hPa 0,0 l/m 3,2 km/h (1 Bft) W-NW 292 0 min 0,000 mm 0,0 UV-I 0 W/m -2,9 C -1,8 C 3,2 km/h (1 Bft) 91,30 %
02.12.2023 19:33 23,7 C -1,8 C 53 % 92 % 1015,0 hPa 0,0 l/m 1,6 km/h (1 Bft) W 270 0 min 0,000 mm 0,0 UV-I 0 W/m -2,9 C -1,8 C 3,2 km/h (1 Bft) 95,65 %
02.12.2023 19:32 23,7 C -1,8 C 53 % 92 % 1015,0 hPa 0,0 l/m 0,0 km/h (0 Bft) S-SW 202 0 min 0,000 mm 0,0 UV-I 0 W/m -2,9 C -1,8 C 1,6 km/h (1 Bft) 100,00 %
02.12.2023 19:31 23,7 C -1,8 C 53 % 92 % 1015,0 hPa 0,0 l/m 1,6 km/h (1 Bft) S-SW 202 0 min 0,000 mm 0,0 UV-I 0 W/m -2,9 C -1,8 C 3,2 km/h (1 Bft) 78,26 %
02.12.2023 19:30 23,7 C -1,8 C 53 % 92 % 1014,9 hPa 0,0 l/m 1,6 km/h (1 Bft) W-SW 247 0 min 0,000 mm 0,0 UV-I 0 W/m -2,9 C -1,8 C 4,8 km/h (1 Bft) 95,65 %
02.12.2023 19:29 23,7 C -1,7 C 53 % 92 % 1014,9 hPa 0,0 l/m 3,2 km/h (1 Bft) W-NW 292 0 min 0,000 mm 0,0 UV-I 0 W/m -2,8 C -1,7 C 4,8 km/h (1 Bft) 95,65 %
02.12.2023 19:28 23,7 C -1,7 C 53 % 92 % 1014,9 hPa 0,0 l/m 1,6 km/h (1 Bft) SW 225 0 min 0,000 mm 0,0 UV-I 0 W/m -2,8 C -1,7 C 4,8 km/h (1 Bft) 86,96 %
02.12.2023 19:27 23,7 C -1,7 C 53 % 92 % 1014,8 hPa 0,0 l/m 3,2 km/h (1 Bft) S-SW 202 0 min 0,000 mm 0,0 UV-I 0 W/m -2,8 C -1,7 C 4,8 km/h (1 Bft) 95,65 %
02.12.2023 19:26 23,7 C -1,7 C 53 % 92 % 1014,8 hPa 0,0 l/m 3,2 km/h (1 Bft) W 270 0 min 0,000 mm 0,0 UV-I 0 W/m -2,8 C -1,7 C 4,8 km/h (1 Bft) 95,65 %
02.12.2023 19:25 23,7 C -1,7 C 53 % 92 % 1014,8 hPa 0,0 l/m 3,2 km/h (1 Bft) W 270 0 min 0,000 mm 0,0 UV-I 0 W/m -2,8 C -1,7 C 4,8 km/h (1 Bft) 100,00 %
02.12.2023 19:24 23,7 C -1,7 C 53 % 92 % 1014,8 hPa 0,0 l/m 3,2 km/h (1 Bft) W 270 0 min 0,000 mm 0,0 UV-I 0 W/m -2,8 C -1,7 C 6,4 km/h (2 Bft) 95,65 %
02.12.2023 19:23 23,7 C -1,7 C 53 % 92 % 1014,8 hPa 0,0 l/m 1,6 km/h (1 Bft) W 270 0 min 0,000 mm 0,0 UV-I 0 W/m -2,8 C -1,7 C 4,8 km/h (1 Bft) 91,30 %
02.12.2023 19:22 23,7 C -1,7 C 53 % 92 % 1014,8 hPa 0,0 l/m 3,2 km/h (1 Bft) W-NW 292 0 min 0,000 mm 0,0 UV-I 0 W/m -2,8 C -1,7 C 6,4 km/h (2 Bft) 95,65 %
02.12.2023 19:21 23,7 C -1,7 C 53 % 92 % 1014,8 hPa 0,0 l/m 4,8 km/h (1 Bft) W 270 0 min 0,000 mm 0,0 UV-I 0 W/m -2,8 C -1,7 C 9,7 km/h (2 Bft) 100,00 %
02.12.2023 19:20 23,7 C -1,7 C 53 % 92 % 1014,7 hPa 0,0 l/m 4,8 km/h (1 Bft) W 270 0 min 0,000 mm 0,0 UV-I 0 W/m -2,8 C -1,7 C 11,3 km/h (2 Bft) 100,00 %
02.12.2023 19:19 23,7 C -1,7 C 53 % 92 % 1014,7 hPa 0,0 l/m 0,0 km/h (0 Bft) SW 225 0 min 0,000 mm 0,0 UV-I 0 W/m -2,8 C -1,7 C 1,6 km/h (1 Bft) 95,65 %
02.12.2023 19:18 23,7 C -1,7 C 53 % 92 % 1014,6 hPa 0,0 l/m 1,6 km/h (1 Bft) SW 225 0 min 0,000 mm 0,0 UV-I 0 W/m -2,8 C -1,7 C 3,2 km/h (1 Bft) 100,00 %
02.12.2023 19:17 23,7 C -1,7 C 53 % 92 % 1014,6 hPa 0,0 l/m 3,2 km/h (1 Bft) W-SW 247 0 min 0,000 mm 0,0 UV-I 0 W/m -2,8 C -1,7 C 11,3 km/h (2 Bft) 95,65 %
02.12.2023 19:16 23,7 C -1,7 C 53 % 92 % 1014,6 hPa 0,0 l/m 1,6 km/h (1 Bft) W 270 0 min 0,000 mm 0,0 UV-I 0 W/m -2,8 C -1,7 C 3,2 km/h (1 Bft) 95,65 %
02.12.2023 19:15 23,7 C -1,7 C 53 % 92 % 1014,6 hPa 0,0 l/m 1,6 km/h (1 Bft) W 270 0 min 0,000 mm 0,0 UV-I 0 W/m -2,8 C -1,7 C 3,2 km/h (1 Bft) 100,00 %
02.12.2023 19:14 23,7 C -1,8 C 53 % 92 % 1014,6 hPa 0,0 l/m 1,6 km/h (1 Bft) W 270 0 min 0,000 mm 0,0 UV-I 0 W/m -2,9 C -1,8 C 3,2 km/h (1 Bft) 100,00 %
02.12.2023 19:13 23,7 C -1,7 C 53 % 92 % 1014,6 hPa 0,0 l/m 1,6 km/h (1 Bft) W 270 0 min 0,000 mm 0,0 UV-I 0 W/m -2,8 C -1,7 C 3,2 km/h (1 Bft) 100,00 %
02.12.2023 19:12 23,7 C -1,7 C 53 % 92 % 1014,6 hPa 0,0 l/m 1,6 km/h (1 Bft) W 270 0 min 0,000 mm 0,0 UV-I 0 W/m -2,8 C -1,7 C 3,2 km/h (1 Bft) 95,65 %
02.12.2023 19:11 23,7 C -1,7 C 53 % 92 % 1014,5 hPa 0,0 l/m 1,6 km/h (1 Bft) S-SW 202 0 min 0,000 mm 0,0 UV-I 0 W/m -2,8 C -1,7 C 4,8 km/h (1 Bft) 100,00 %
02.12.2023 19:10 23,7 C -1,7 C 53 % 92 % 1014,5 hPa 0,0 l/m 1,6 km/h (1 Bft) SW 225 0 min 0,000 mm 0,0 UV-I 0 W/m -2,8 C -1,7 C 3,2 km/h (1 Bft) 91,30 %
02.12.2023 19:09 23,7 C -1,7 C 53 % 92 % 1014,5 hPa 0,0 l/m 3,2 km/h (1 Bft) SW 225 0 min 0,000 mm 0,0 UV-I 0 W/m -2,8 C -1,7 C 4,8 km/h (1 Bft) 95,65 %
02.12.2023 19:08 23,7 C -1,7 C 53 % 92 % 1014,4 hPa 0,0 l/m 4,8 km/h (1 Bft) W 270 0 min 0,000 mm 0,0 UV-I 0 W/m -2,8 C -1,7 C 6,4 km/h (2 Bft) 95,65 %
02.12.2023 19:07 23,7 C -1,7 C 53 % 92 % 1014,4 hPa 0,0 l/m 3,2 km/h (1 Bft) W-SW 247 0 min 0,000 mm 0,0 UV-I 0 W/m -2,8 C -1,7 C 6,4 km/h (2 Bft) 100,00 %
02.12.2023 19:06 23,7 C -1,6 C 53 % 92 % 1014,4 hPa 0,0 l/m 4,8 km/h (1 Bft) W 270 0 min 0,000 mm 0,0 UV-I 0 W/m -2,7 C -1,6 C 6,4 km/h (2 Bft) 91,30 %
02.12.2023 19:05 23,7 C -1,7 C 53 % 92 % 1014,4 hPa 0,0 l/m 4,8 km/h (1 Bft) W-SW 247 0 min 0,000 mm 0,0 UV-I 0 W/m -2,8 C -1,7 C 9,7 km/h (2 Bft) 95,65 %
02.12.2023 19:04 23,7 C -1,6 C 53 % 92 % 1014,4 hPa 0,0 l/m 4,8 km/h (1 Bft) W 270 0 min 0,000 mm 0,0 UV-I 0 W/m -2,7 C -1,6 C 8,0 km/h (2 Bft) 95,65 %
02.12.2023 19:03 23,7 C -1,6 C 53 % 92 % 1014,3 hPa 0,0 l/m 3,2 km/h (1 Bft) W 270 0 min 0,000 mm 0,0 UV-I 0 W/m -2,7 C -1,6 C 11,3 km/h (2 Bft) 95,65 %
02.12.2023 19:02 23,7 C -1,6 C 53 % 92 % 1014,3 hPa 0,0 l/m 4,8 km/h (1 Bft) W-SW 247 0 min 0,000 mm 0,0 UV-I 0 W/m -2,7 C -1,6 C 8,0 km/h (2 Bft) 95,65 %
02.12.2023 19:01 23,6 C -1,6 C 53 % 92 % 1014,3 hPa 0,0 l/m 4,8 km/h (1 Bft) SW 225 0 min 0,000 mm 0,0 UV-I 0 W/m -2,7 C -1,6 C 6,4 km/h (2 Bft) 95,65 %
02.12.2023 19:00 23,7 C -1,6 C 53 % 92 % 1014,3 hPa 0,0 l/m 4,8 km/h (1 Bft) SW 225 0 min 0,000 mm 0,0 UV-I 0 W/m -2,7 C -1,6 C 11,3 km/h (2 Bft) 100,00 %
02.12.2023 18:59 23,6 C -1,6 C 53 % 92 % 1014,3 hPa 0,0 l/m 3,2 km/h (1 Bft) SW 225 0 min 0,000 mm 0,0 UV-I 0 W/m -2,7 C -1,6 C 4,8 km/h (1 Bft) 95,65 %
02.12.2023 18:58 23,6 C -1,6 C 53 % 92 % 1014,3 hPa 0,0 l/m 4,8 km/h (1 Bft) W 270 0 min 0,000 mm 0,0 UV-I 0 W/m -2,7 C -1,6 C 11,3 km/h (2 Bft) 95,65 %
02.12.2023 18:57 23,7 C -1,6 C 53 % 92 % 1014,3 hPa 0,0 l/m 4,8 km/h (1 Bft) W-SW 247 0 min 0,000 mm 0,0 UV-I 0 W/m -2,7 C -1,6 C 9,7 km/h (2 Bft) 95,65 %
02.12.2023 18:56 23,7 C -1,6 C 53 % 92 % 1014,3 hPa 0,0 l/m 3,2 km/h (1 Bft) W 270 0 min 0,000 mm 0,0 UV-I 0 W/m -2,7 C -1,6 C 6,4 km/h (2 Bft) 95,65 %
02.12.2023 18:55 23,7 C -1,6 C 53 % 92 % 1014,2 hPa 0,0 l/m 3,2 km/h (1 Bft) W-SW 247 0 min 0,000 mm 0,0 UV-I 0 W/m -2,7 C -1,6 C 6,4 km/h (2 Bft) 95,65 %
02.12.2023 18:54 23,7 C -1,6 C 53 % 92 % 1014,2 hPa 0,0 l/m 3,2 km/h (1 Bft) S 180 0 min 0,000 mm 0,0 UV-I 0 W/m -2,7 C -1,6 C 6,4 km/h (2 Bft) 95,65 %
02.12.2023 18:53 23,6 C -1,6 C 53 % 92 % 1014,2 hPa 0,0 l/m 3,2 km/h (1 Bft) SW 225 0 min 0,000 mm 0,0 UV-I 0 W/m -2,7 C -1,6 C 6,4 km/h (2 Bft) 95,65 %
02.12.2023 18:52 23,6 C -1,6 C 53 % 92 % 1014,2 hPa 0,0 l/m 3,2 km/h (1 Bft) SW 225 0 min 0,000 mm 0,0 UV-I 0 W/m -2,7 C -1,6 C 4,8 km/h (1 Bft) 95,65 %
02.12.2023 18:51 23,6 C -1,6 C 53 % 92 % 1014,2 hPa 0,0 l/m 4,8 km/h (1 Bft) W-SW 247 0 min 0,000 mm 0,0 UV-I 0 W/m -2,7 C -1,6 C 11,3 km/h (2 Bft) 100,00 %
02.12.2023 18:50 23,6 C -1,5 C 53 % 92 % 1014,1 hPa 0,0 l/m 4,8 km/h (1 Bft) SW 225 0 min 0,000 mm 0,0 UV-I 0 W/m -2,6 C -1,5 C 8,0 km/h (2 Bft) 95,65 %
02.12.2023 18:49 23,6 C -1,6 C 53 % 92 % 1014,1 hPa 0,0 l/m 3,2 km/h (1 Bft) W 270 0 min 0,000 mm 0,0 UV-I 0 W/m -2,7 C -1,6 C 4,8 km/h (1 Bft) 100,00 %
02.12.2023 18:48 23,7 C -1,6 C 53 % 92 % 1014,1 hPa 0,0 l/m 6,4 km/h (2 Bft) W 270 0 min 0,000 mm 0,0 UV-I 0 W/m -2,7 C -1,6 C 11,3 km/h (2 Bft) 95,65 %
02.12.2023 18:47 23,6 C -1,6 C 53 % 92 % 1014,1 hPa 0,0 l/m 4,8 km/h (1 Bft) SW 225 0 min 0,000 mm 0,0 UV-I 0 W/m -2,7 C -1,6 C 12,9 km/h (3 Bft) 100,00 %
02.12.2023 18:46 23,6 C -1,6 C 53 % 92 % 1014,1 hPa 0,0 l/m 1,6 km/h (1 Bft) W 270 0 min 0,000 mm 0,0 UV-I 0 W/m -2,7 C -1,6 C 6,4 km/h (2 Bft) 100,00 %
02.12.2023 18:45 23,6 C -1,5 C 53 % 92 % 1014,0 hPa 0,0 l/m 3,2 km/h (1 Bft) W-NW 292 0 min 0,000 mm 0,0 UV-I 0 W/m -2,6 C -1,5 C 6,4 km/h (2 Bft) 100,00 %
02.12.2023 18:44 23,7 C -1,5 C 53 % 92 % 1014,1 hPa 0,0 l/m 4,8 km/h (1 Bft) W 270 0 min 0,000 mm 0,0 UV-I 0 W/m -2,6 C -1,5 C 6,4 km/h (2 Bft) 95,65 %
02.12.2023 18:43 23,7 C -1,6 C 53 % 92 % 1014,0 hPa 0,0 l/m 3,2 km/h (1 Bft) W-SW 247 0 min 0,000 mm 0,0 UV-I 0 W/m -2,7 C -1,6 C 4,8 km/h (1 Bft) 100,00 %
02.12.2023 18:42 23,7 C -1,5 C 53 % 92 % 1014,0 hPa 0,0 l/m 4,8 km/h (1 Bft) W-SW 247 0 min 0,000 mm 0,0 UV-I 0 W/m -2,6 C -1,5 C 8,0 km/h (2 Bft) 95,65 %
02.12.2023 18:41 23,6 C -1,5 C 53 % 92 % 1014,0 hPa 0,0 l/m 4,8 km/h (1 Bft) W-SW 247 0 min 0,000 mm 0,0 UV-I 0 W/m -2,6 C -1,5 C 11,3 km/h (2 Bft) 95,65 %
02.12.2023 18:40 23,7 C -1,5 C 53 % 92 % 1014,0 hPa 0,0 l/m 3,2 km/h (1 Bft) S-SW 202 0 min 0,000 mm 0,0 UV-I 0 W/m -2,6 C -1,5 C 4,8 km/h (1 Bft) 95,65 %
02.12.2023 18:39 23,7 C -1,5 C 53 % 92 % 1013,9 hPa 0,0 l/m 1,6 km/h (1 Bft) SW 225 0 min 0,000 mm 0,0 UV-I 0 W/m -2,6 C -1,5 C 4,8 km/h (1 Bft) 95,65 %
02.12.2023 18:38 23,6 C -1,5 C 53 % 92 % 1013,9 hPa 0,0 l/m 3,2 km/h (1 Bft) W 270 0 min 0,000 mm 0,0 UV-I 0 W/m -2,6 C -1,5 C 6,4 km/h (2 Bft) 100,00 %
02.12.2023 18:37 23,7 C -1,5 C 53 % 92 % 1013,9 hPa 0,0 l/m 6,4 km/h (2 Bft) W-SW 247 0 min 0,000 mm 0,0 UV-I 0 W/m -2,6 C -1,5 C 8,0 km/h (2 Bft) 95,65 %
02.12.2023 18:36 23,6 C -1,5 C 53 % 92 % 1013,8 hPa 0,0 l/m 4,8 km/h (1 Bft) W-SW 247 0 min 0,000 mm 0,0 UV-I 0 W/m -2,6 C -1,5 C 16,1 km/h (3 Bft) 100,00 %
02.12.2023 18:35 23,6 C -1,5 C 53 % 92 % 1013,8 hPa 0,0 l/m 4,8 km/h (1 Bft) W-SW 247 0 min 0,000 mm 0,0 UV-I 0 W/m -2,6 C -1,5 C 8,0 km/h (2 Bft) 95,65 %
02.12.2023 18:34 23,7 C -1,5 C 53 % 92 % 1013,9 hPa 0,0 l/m 4,8 km/h (1 Bft) W 270 0 min 0,000 mm 0,0 UV-I 0 W/m -2,6 C -1,5 C 16,1 km/h (3 Bft) 95,65 %
02.12.2023 18:33 23,7 C -1,5 C 53 % 92 % 1013,8 hPa 0,0 l/m 3,2 km/h (1 Bft) W 270 0 min 0,000 mm 0,0 UV-I 0 W/m -2,6 C -1,5 C 4,8 km/h (1 Bft) 95,65 %
02.12.2023 18:32 23,6 C -1,4 C 53 % 92 % 1013,8 hPa 0,0 l/m 3,2 km/h (1 Bft) W 270 0 min 0,000 mm 0,0 UV-I 0 W/m -2,5 C -1,4 C 6,4 km/h (2 Bft) 95,65 %
02.12.2023 18:31 23,6 C -1,4 C 53 % 92 % 1013,7 hPa 0,0 l/m 3,2 km/h (1 Bft) W-SW 247 0 min 0,000 mm 0,0 UV-I 0 W/m -2,5 C -1,4 C 4,8 km/h (1 Bft) 100,00 %
02.12.2023 18:30 23,7 C -1,4 C 53 % 92 % 1013,7 hPa 0,0 l/m 3,2 km/h (1 Bft) W 270 0 min 0,000 mm 0,0 UV-I 0 W/m -2,5 C -1,4 C 4,8 km/h (1 Bft) 100,00 %
02.12.2023 18:29 23,6 C -1,4 C 53 % 92 % 1013,7 hPa 0,0 l/m 1,6 km/h (1 Bft) W 270 0 min 0,000 mm 0,0 UV-I 0 W/m -2,5 C -1,4 C 3,2 km/h (1 Bft) 95,65 %
02.12.2023 18:28 23,7 C -1,3 C 53 % 92 % 1013,6 hPa 0,0 l/m 3,2 km/h (1 Bft) W-SW 247 0 min 0,000 mm 0,0 UV-I 0 W/m -2,4 C -1,3 C 8,0 km/h (2 Bft) 91,30 %
02.12.2023 18:27 23,6 C -1,4 C 53 % 92 % 1013,6 hPa 0,0 l/m 3,2 km/h (1 Bft) SW 225 0 min 0,000 mm 0,0 UV-I 0 W/m -2,5 C -1,4 C 9,7 km/h (2 Bft) 95,65 %
02.12.2023 18:26 23,6 C -1,4 C 53 % 92 % 1013,6 hPa 0,0 l/m 3,2 km/h (1 Bft) SW 225 0 min 0,000 mm 0,0 UV-I 0 W/m -2,5 C -1,4 C 4,8 km/h (1 Bft) 95,65 %
02.12.2023 18:25 23,6 C -1,4 C 53 % 92 % 1013,5 hPa 0,0 l/m 3,2 km/h (1 Bft) W-SW 247 0 min 0,000 mm 0,0 UV-I 0 W/m -2,5 C -1,4 C 8,0 km/h (2 Bft) 100,00 %
02.12.2023 18:24 23,7 C -1,4 C 53 % 92 % 1013,5 hPa 0,0 l/m 1,6 km/h (1 Bft) W-SW 247 0 min 0,000 mm 0,0 UV-I 0 W/m -2,5 C -1,4 C 3,2 km/h (1 Bft) 100,00 %
02.12.2023 18:23 23,6 C -1,4 C 53 % 92 % 1013,5 hPa 0,0 l/m 3,2 km/h (1 Bft) W-SW 247 0 min 0,000 mm 0,0 UV-I 0 W/m -2,5 C -1,4 C 9,7 km/h (2 Bft) 100,00 %
02.12.2023 18:22 23,6 C -1,4 C 53 % 92 % 1013,5 hPa 0,0 l/m 1,6 km/h (1 Bft) SW 225 0 min 0,000 mm 0,0 UV-I 0 W/m -2,5 C -1,4 C 4,8 km/h (1 Bft) 100,00 %
02.12.2023 18:21 23,7 C -1,4 C 53 % 92 % 1013,4 hPa 0,0 l/m 1,6 km/h (1 Bft) SW 225 0 min 0,000 mm 0,0 UV-I 0 W/m -2,5 C -1,4 C 1,6 km/h (1 Bft) 100,00 %
02.12.2023 18:20 23,6 C -1,4 C 53 % 92 % 1013,4 hPa 0,0 l/m 3,2 km/h (1 Bft) W-SW 247 0 min 0,000 mm 0,0 UV-I 0 W/m -2,5 C -1,4 C 4,8 km/h (1 Bft) 95,65 %
02.12.2023 18:19 23,6 C -1,4 C 53 % 92 % 1013,4 hPa 0,0 l/m 3,2 km/h (1 Bft) W 270 0 min 0,000 mm 0,0 UV-I 0 W/m -2,5 C -1,4 C 4,8 km/h (1 Bft) 100,00 %
02.12.2023 18:18 23,6 C -1,5 C 53 % 92 % 1013,4 hPa 0,0 l/m 4,8 km/h (1 Bft) W 270 0 min 0,000 mm 0,0 UV-I 0 W/m -2,6 C -1,5 C 6,4 km/h (2 Bft) 95,65 %
02.12.2023 18:17 23,6 C -1,5 C 53 % 91 % 1013,4 hPa 0,0 l/m 4,8 km/h (1 Bft) W 270 0 min 0,000 mm 0,0 UV-I 0 W/m -2,8 C -1,5 C 11,3 km/h (2 Bft) 95,65 %
02.12.2023 18:16 23,6 C -1,5 C 53 % 91 % 1013,3 hPa 0,0 l/m 3,2 km/h (1 Bft) W 270 0 min 0,000 mm 0,0 UV-I 0 W/m -2,8 C -1,5 C 4,8 km/h (1 Bft) 91,30 %
02.12.2023 18:15 23,6 C -1,5 C 53 % 91 % 1013,3 hPa 0,0 l/m 3,2 km/h (1 Bft) W 270 0 min 0,000 mm 0,0 UV-I 0 W/m -2,8 C -1,5 C 6,4 km/h (2 Bft) 100,00 %
02.12.2023 18:14 23,7 C -1,4 C 53 % 91 % 1013,1 hPa 0,0 l/m 3,2 km/h (1 Bft) W-NW 292 0 min 0,000 mm 0,0 UV-I 0 W/m -2,7 C -1,4 C 6,4 km/h (2 Bft) 95,65 %
02.12.2023 18:13 23,6 C -1,4 C 53 % 91 % 1013,1 hPa 0,0 l/m 4,8 km/h (1 Bft) W 270 0 min 0,000 mm 0,0 UV-I 0 W/m -2,7 C -1,4 C 12,9 km/h (3 Bft) 91,30 %
02.12.2023 18:12 23,6 C -1,4 C 53 % 92 % 1013,1 hPa 0,0 l/m 3,2 km/h (1 Bft) W 270 0 min 0,000 mm 0,0 UV-I 0 W/m -2,5 C -1,4 C 3,2 km/h (1 Bft) 100,00 %
02.12.2023 18:11 23,7 C -1,4 C 53 % 92 % 1013,1 hPa 0,0 l/m 3,2 km/h (1 Bft) W 270 0 min 0,000 mm 0,0 UV-I 0 W/m -2,5 C -1,4 C 11,3 km/h (2 Bft) 95,65 %
02.12.2023 18:10 23,6 C -1,4 C 53 % 92 % 1013,1 hPa 0,0 l/m 3,2 km/h (1 Bft) W-NW 292 0 min 0,000 mm 0,0 UV-I 0 W/m -2,5 C -1,4 C 4,8 km/h (1 Bft) 100,00 %
02.12.2023 18:09 23,6 C -1,4 C 53 % 92 % 1013,0 hPa 0,0 l/m 6,4 km/h (2 Bft) W 270 0 min 0,000 mm 0,0 UV-I 0 W/m -2,5 C -1,4 C 11,3 km/h (2 Bft) 91,30 %
02.12.2023 18:08 23,6 C -1,3 C 53 % 91 % 1013,0 hPa 0,0 l/m 1,6 km/h (1 Bft) W 270 0 min 0,000 mm 0,0 UV-I 0 W/m -2,6 C -1,3 C 3,2 km/h (1 Bft) 100,00 %
02.12.2023 18:07 23,7 C -1,3 C 52 % 92 % 1013,0 hPa 0,0 l/m 3,2 km/h (1 Bft) W 270 0 min 0,000 mm 0,0 UV-I 0 W/m -2,4 C -1,3 C 6,4 km/h (2 Bft) 95,65 %
02.12.2023 18:06 23,6 C -1,3 C 53 % 92 % 1012,9 hPa 0,0 l/m 3,2 km/h (1 Bft) W-SW 247 0 min 0,000 mm 0,0 UV-I 0 W/m -2,4 C -1,3 C 4,8 km/h (1 Bft) 91,30 %
02.12.2023 18:05 23,6 C -1,3 C 52 % 92 % 1012,9 hPa 0,0 l/m 4,8 km/h (1 Bft) W 270 0 min 0,000 mm 0,0 UV-I 0 W/m -2,4 C -1,3 C 12,9 km/h (3 Bft) 95,65 %
02.12.2023 18:04 23,7 C -1,3 C 52 % 92 % 1012,9 hPa 0,0 l/m 6,4 km/h (2 Bft) W-SW 247 0 min 0,000 mm 0,0 UV-I 0 W/m -2,4 C -1,3 C 12,9 km/h (3 Bft) 100,00 %
02.12.2023 18:03 23,6 C -1,3 C 52 % 92 % 1012,9 hPa 0,0 l/m 3,2 km/h (1 Bft) W 270 0 min 0,000 mm 0,0 UV-I 0 W/m -2,4 C -1,3 C 8,0 km/h (2 Bft) 100,00 %
02.12.2023 18:02 23,6 C -1,3 C 52 % 92 % 1012,8 hPa 0,0 l/m 4,8 km/h (1 Bft) W-SW 247 0 min 0,000 mm 0,0 UV-I 0 W/m -2,4 C -1,3 C 6,4 km/h (2 Bft) 95,65 %
02.12.2023 18:01 23,6 C -1,3 C 52 % 92 % 1012,9 hPa 0,0 l/m 3,2 km/h (1 Bft) SW 225 0 min 0,000 mm 0,0 UV-I 0 W/m -2,4 C -1,3 C 4,8 km/h (1 Bft) 100,00 %
02.12.2023 18:00 23,6 C -1,3 C 52 % 92 % 1012,8 hPa 0,0 l/m 3,2 km/h (1 Bft) W 270 0 min 0,000 mm 0,0 UV-I 0 W/m -2,4 C -1,3 C 6,4 km/h (2 Bft) 91,30 %
02.12.2023 17:59 23,6 C -1,3 C 52 % 92 % 1012,7 hPa 0,0 l/m 4,8 km/h (1 Bft) W-SW 247 0 min 0,000 mm 0,0 UV-I 0 W/m -2,4 C -1,3 C 6,4 km/h (2 Bft) 95,65 %
02.12.2023 17:58 23,6 C -1,3 C 52 % 92 % 1012,8 hPa 0,0 l/m 3,2 km/h (1 Bft) W-SW 247 0 min 0,000 mm 0,0 UV-I 0 W/m -2,4 C -1,3 C 4,8 km/h (1 Bft) 100,00 %
02.12.2023 17:57 23,6 C -1,3 C 52 % 92 % 1012,7 hPa 0,0 l/m 4,8 km/h (1 Bft) W 270 0 min 0,000 mm 0,0 UV-I 0 W/m -2,4 C -1,3 C 6,4 km/h (2 Bft) 95,65 %
02.12.2023 17:56 23,6 C -1,3 C 52 % 92 % 1012,7 hPa 0,0 l/m 4,8 km/h (1 Bft) W-SW 247 0 min 0,000 mm 0,0 UV-I 0 W/m -2,4 C -1,3 C 6,4 km/h (2 Bft) 95,65 %
02.12.2023 17:55 23,6 C -1,4 C 52 % 91 % 1012,8 hPa 0,0 l/m 3,2 km/h (1 Bft) SW 225 0 min 0,000 mm 0,0 UV-I 0 W/m -2,7 C -1,4 C 8,0 km/h (2 Bft) 95,65 %
02.12.2023 17:54 23,6 C -1,4 C 52 % 91 % 1012,6 hPa 0,0 l/m 3,2 km/h (1 Bft) W-SW 247 0 min 0,000 mm 0,0 UV-I 0 W/m -2,7 C -1,4 C 6,4 km/h (2 Bft) 100,00 %
02.12.2023 17:53 23,6 C -1,4 C 52 % 91 % 1012,7 hPa 0,0 l/m 3,2 km/h (1 Bft) W-NW 292 0 min 0,000 mm 0,0 UV-I 0 W/m -2,7 C -1,4 C 6,4 km/h (2 Bft) 100,00 %
02.12.2023 17:52 23,6 C -1,4 C 52 % 91 % 1012,7 hPa 0,0 l/m 3,2 km/h (1 Bft) S 180 0 min 0,000 mm 0,0 UV-I 0 W/m -2,7 C -1,4 C 9,7 km/h (2 Bft) 91,30 %
02.12.2023 17:51 23,6 C -1,3 C 52 % 91 % 1012,6 hPa 0,0 l/m 4,8 km/h (1 Bft) S-SW 202 0 min 0,000 mm 0,0 UV-I 0 W/m -2,6 C -1,3 C 9,7 km/h (2 Bft) 95,65 %
02.12.2023 17:50 23,6 C -1,3 C 52 % 91 % 1012,6 hPa 0,0 l/m 3,2 km/h (1 Bft) W 270 0 min 0,000 mm 0,0 UV-I 0 W/m -2,6 C -1,3 C 4,8 km/h (1 Bft) 91,30 %
02.12.2023 17:49 23,6 C -1,3 C 52 % 91 % 1012,6 hPa 0,0 l/m 3,2 km/h (1 Bft) W 270 0 min 0,000 mm 0,0 UV-I 0 W/m -2,6 C -1,3 C 6,4 km/h (2 Bft) 100,00 %
02.12.2023 17:48 23,6 C -1,3 C 52 % 91 % 1012,7 hPa 0,0 l/m 4,8 km/h (1 Bft) W-SW 247 0 min 0,000 mm 0,0 UV-I 0 W/m -2,6 C -1,3 C 9,7 km/h (2 Bft) 95,65 %
02.12.2023 17:47 23,6 C -1,3 C 52 % 91 % 1012,6 hPa 0,0 l/m 3,2 km/h (1 Bft) W 270 0 min 0,000 mm 0,0 UV-I 0 W/m -2,6 C -1,3 C 11,3 km/h (2 Bft) 91,30 %
02.12.2023 17:46 23,6 C -1,3 C 52 % 91 % 1012,5 hPa 0,0 l/m 3,2 km/h (1 Bft) W-NW 292 0 min 0,000 mm 0,0 UV-I 0 W/m -2,6 C -1,3 C 4,8 km/h (1 Bft) 100,00 %
02.12.2023 17:45 23,6 C -1,2 C 52 % 91 % 1012,5 hPa 0,0 l/m 1,6 km/h (1 Bft) W-SW 247 0 min 0,000 mm 0,0 UV-I 0 W/m -2,5 C -1,2 C 4,8 km/h (1 Bft) 91,30 %
02.12.2023 17:44 23,6 C -1,2 C 52 % 91 % 1012,5 hPa 0,0 l/m 3,2 km/h (1 Bft) W-SW 247 0 min 0,000 mm 0,0 UV-I 0 W/m -2,5 C -1,2 C 4,8 km/h (1 Bft) 100,00 %
02.12.2023 17:43 23,6 C -1,2 C 52 % 92 % 1012,4 hPa 0,0 l/m 1,6 km/h (1 Bft) W-NW 292 0 min 0,000 mm 0,0 UV-I 0 W/m -2,3 C -1,2 C 3,2 km/h (1 Bft) 95,65 %
02.12.2023 17:42 23,6 C -1,2 C 52 % 92 % 1012,4 hPa 0,0 l/m 3,2 km/h (1 Bft) W-SW 247 0 min 0,000 mm 0,0 UV-I 0 W/m -2,3 C -1,2 C 4,8 km/h (1 Bft) 100,00 %
02.12.2023 17:41 23,6 C -1,2 C 52 % 92 % 1012,4 hPa 0,0 l/m 6,4 km/h (2 Bft) W-SW 247 0 min 0,000 mm 0,0 UV-I 0 W/m -2,3 C -1,2 C 9,7 km/h (2 Bft) 95,65 %
02.12.2023 17:40 23,6 C -1,1 C 52 % 92 % 1012,4 hPa 0,0 l/m 3,2 km/h (1 Bft) W-SW 247 0 min 0,000 mm 0,0 UV-I 0 W/m -2,2 C -1,1 C 6,4 km/h (2 Bft) 95,65 %
02.12.2023 17:39 23,6 C -1,1 C 52 % 92 % 1012,3 hPa 0,0 l/m 3,2 km/h (1 Bft) W-NW 292 0 min 0,000 mm 0,0 UV-I 0 W/m -2,2 C -1,1 C 4,8 km/h (1 Bft) 100,00 %
02.12.2023 17:38 23,6 C -1,1 C 52 % 92 % 1012,3 hPa 0,0 l/m 3,2 km/h (1 Bft) W 270 0 min 0,000 mm 0,0 UV-I 0 W/m -2,2 C -1,1 C 4,8 km/h (1 Bft) 91,30 %
02.12.2023 17:37 23,6 C -1,1 C 52 % 92 % 1012,2 hPa 0,0 l/m 3,2 km/h (1 Bft) W 270 0 min 0,000 mm 0,0 UV-I 0 W/m -2,2 C -1,1 C 9,7 km/h (2 Bft) 100,00 %
02.12.2023 17:36 23,6 C -1,1 C 52 % 92 % 1012,1 hPa 0,0 l/m 3,2 km/h (1 Bft) W-SW 247 0 min 0,000 mm 0,0 UV-I 0 W/m -2,2 C -1,1 C 8,0 km/h (2 Bft) 95,65 %
02.12.2023 17:35 23,6 C -1,1 C 52 % 92 % 1012,2 hPa 0,0 l/m 3,2 km/h (1 Bft) W 270 0 min 0,000 mm 0,0 UV-I 0 W/m -2,2 C -1,1 C 6,4 km/h (2 Bft) 100,00 %
02.12.2023 17:34 23,6 C -1,1 C 52 % 92 % 1012,1 hPa 0,0 l/m 4,8 km/h (1 Bft) W-SW 247 0 min 0,000 mm 0,0 UV-I 0 W/m -2,2 C -1,1 C 8,0 km/h (2 Bft) 100,00 %
02.12.2023 17:33 23,6 C -1,1 C 52 % 92 % 1012,1 hPa 0,0 l/m 4,8 km/h (1 Bft) SW 225 0 min 0,000 mm 0,0 UV-I 0 W/m -2,2 C -1,1 C 8,0 km/h (2 Bft) 100,00 %
02.12.2023 17:32 23,6 C -1,1 C 52 % 92 % 1012,1 hPa 0,0 l/m 1,6 km/h (1 Bft) SW 225 0 min 0,000 mm 0,0 UV-I 0 W/m -2,2 C -1,1 C 4,8 km/h (1 Bft) 100,00 %
02.12.2023 17:31 23,6 C -1,1 C 52 % 92 % 1012,1 hPa 0,0 l/m 3,2 km/h (1 Bft) W 270 0 min 0,000 mm 0,0 UV-I 0 W/m -2,2 C -1,1 C 6,4 km/h (2 Bft) 95,65 %
02.12.2023 17:30 23,6 C -1,1 C 52 % 92 % 1012,0 hPa 0,0 l/m 3,2 km/h (1 Bft) W 270 0 min 0,000 mm 0,0 UV-I 0 W/m -2,2 C -1,1 C 8,0 km/h (2 Bft) 100,00 %
02.12.2023 17:29 23,6 C -1,1 C 52 % 92 % 1012,0 hPa 0,0 l/m 3,2 km/h (1 Bft) W 270 0 min 0,000 mm 0,0 UV-I 0 W/m -2,2 C -1,1 C 4,8 km/h (1 Bft) 95,65 %
02.12.2023 17:28 23,6 C -1,1 C 52 % 92 % 1012,0 hPa 0,0 l/m 4,8 km/h (1 Bft) S 180 0 min 0,000 mm 0,0 UV-I 0 W/m -2,2 C -1,1 C 8,0 km/h (2 Bft) 100,00 %
02.12.2023 17:27 23,6 C -1,1 C 52 % 92 % 1011,9 hPa 0,0 l/m 4,8 km/h (1 Bft) W-SW 247 0 min 0,000 mm 0,0 UV-I 0 W/m -2,2 C -1,1 C 11,3 km/h (2 Bft) 100,00 %
02.12.2023 17:26 23,6 C -1,1 C 52 % 92 % 1011,9 hPa 0,0 l/m 4,8 km/h (1 Bft) W 270 0 min 0,000 mm 0,0 UV-I 0 W/m -2,2 C -1,1 C 6,4 km/h (2 Bft) 95,65 %
02.12.2023 17:25 23,6 C -1,1 C 52 % 92 % 1011,9 hPa 0,0 l/m 1,6 km/h (1 Bft) W 270 0 min 0,000 mm 0,0 UV-I 0 W/m -2,2 C -1,1 C 3,2 km/h (1 Bft) 100,00 %
02.12.2023 17:24 23,6 C -1,2 C 52 % 92 % 1011,9 hPa 0,0 l/m 1,6 km/h (1 Bft) W-SW 247 0 min 0,000 mm 0,0 UV-I 0 W/m -2,3 C -1,2 C 4,8 km/h (1 Bft) 91,30 %
02.12.2023 17:23 23,6 C -1,1 C 52 % 92 % 1011,8 hPa 0,0 l/m 3,2 km/h (1 Bft) W 270 0 min 0,000 mm 0,0 UV-I 0 W/m -2,2 C -1,1 C 6,4 km/h (2 Bft) 100,00 %
02.12.2023 17:22 23,6 C -1,1 C 52 % 92 % 1011,8 hPa 0,0 l/m 1,6 km/h (1 Bft) W 270 0 min 0,000 mm 0,0 UV-I 0 W/m -2,2 C -1,1 C 4,8 km/h (1 Bft) 95,65 %
02.12.2023 17:21 23,6 C -1,1 C 52 % 92 % 1011,8 hPa 0,0 l/m 3,2 km/h (1 Bft) W 270 0 min 0,000 mm 0,0 UV-I 0 W/m -2,2 C -1,1 C 6,4 km/h (2 Bft) 91,30 %
02.12.2023 17:20 23,6 C -1,0 C 52 % 92 % 1011,8 hPa 0,0 l/m 1,6 km/h (1 Bft) W 270 0 min 0,000 mm 0,0 UV-I 0 W/m -2,1 C -1,0 C 3,2 km/h (1 Bft) 100,00 %
02.12.2023 17:19 23,6 C -1,0 C 52 % 92 % 1011,7 hPa 0,0 l/m 1,6 km/h (1 Bft) W 270 0 min 0,000 mm 0,0 UV-I 0 W/m -2,1 C -1,0 C 4,8 km/h (1 Bft) 95,65 %
02.12.2023 17:18 23,6 C -0,9 C 52 % 92 % 1011,6 hPa 0,0 l/m 3,2 km/h (1 Bft) W-NW 292 0 min 0,000 mm 0,0 UV-I 0 W/m -2,0 C -0,9 C 4,8 km/h (1 Bft) 95,65 %
02.12.2023 17:17 23,6 C -0,9 C 52 % 92 % 1011,7 hPa 0,0 l/m 3,2 km/h (1 Bft) W-SW 247 0 min 0,000 mm 0,0 UV-I 0 W/m -2,0 C -0,9 C 9,7 km/h (2 Bft) 91,30 %
02.12.2023 17:16 23,6 C -0,9 C 52 % 92 % 1011,6 hPa 0,0 l/m 3,2 km/h (1 Bft) W 270 0 min 0,000 mm 0,0 UV-I 0 W/m -2,0 C -0,9 C 11,3 km/h (2 Bft) 100,00 %
02.12.2023 17:15 23,6 C -0,9 C 52 % 92 % 1011,6 hPa 0,0 l/m 3,2 km/h (1 Bft) W 270 0 min 0,000 mm 0,0 UV-I 0 W/m -2,0 C -0,9 C 4,8 km/h (1 Bft) 95,65 %
02.12.2023 17:14 23,6 C -0,9 C 52 % 92 % 1011,6 hPa 0,0 l/m 4,8 km/h (1 Bft) W-SW 247 0 min 0,000 mm 0,0 UV-I 0 W/m -2,0 C -0,9 C 9,7 km/h (2 Bft) 95,65 %
02.12.2023 17:13 23,6 C -0,8 C 52 % 92 % 1011,5 hPa 0,0 l/m 3,2 km/h (1 Bft) W-NW 292 0 min 0,000 mm 0,0 UV-I 0 W/m -1,9 C -0,8 C 4,8 km/h (1 Bft) 100,00 %
02.12.2023 17:12 23,6 C -0,8 C 52 % 92 % 1011,5 hPa 0,0 l/m 3,2 km/h (1 Bft) W 270 0 min 0,000 mm 0,0 UV-I 0 W/m -1,9 C -0,8 C 4,8 km/h (1 Bft) 91,30 %
02.12.2023 17:11 23,6 C -0,8 C 52 % 92 % 1011,5 hPa 0,0 l/m 3,2 km/h (1 Bft) W 270 0 min 0,000 mm 0,0 UV-I 0 W/m -1,9 C -0,8 C 4,8 km/h (1 Bft) 95,65 %
02.12.2023 17:10 23,6 C -0,8 C 52 % 92 % 1011,5 hPa 0,0 l/m 4,8 km/h (1 Bft) S 180 0 min 0,000 mm 0,0 UV-I 0 W/m -1,9 C -0,8 C 9,7 km/h (2 Bft) 86,96 %
02.12.2023 17:09 23,6 C -0,9 C 52 % 92 % 1011,5 hPa 0,0 l/m 3,2 km/h (1 Bft) W-SW 247 0 min 0,000 mm 0,0 UV-I 0 W/m -2,0 C -0,9 C 12,9 km/h (3 Bft) 100,00 %
02.12.2023 17:08 23,6 C -0,9 C 52 % 93 % 1011,4 hPa 0,0 l/m 4,8 km/h (1 Bft) W-SW 247 0 min 0,000 mm 0,0 UV-I 0 W/m -1,9 C -0,9 C 12,9 km/h (3 Bft) 100,00 %
02.12.2023 17:07 23,6 C -0,9 C 52 % 93 % 1011,4 hPa 0,0 l/m 4,8 km/h (1 Bft) W-SW 247 0 min 0,000 mm 0,0 UV-I 0 W/m -1,9 C -0,9 C 8,0 km/h (2 Bft) 100,00 %
02.12.2023 17:06 23,7 C -0,9 C 52 % 93 % 1011,4 hPa 0,0 l/m 4,8 km/h (1 Bft) W 270 0 min 0,000 mm 0,0 UV-I 0 W/m -1,9 C -0,9 C 9,7 km/h (2 Bft) 100,00 %
02.12.2023 17:05 23,6 C -0,9 C 52 % 93 % 1011,3 hPa 0,0 l/m 3,2 km/h (1 Bft) W 270 0 min 0,000 mm 0,0 UV-I 0 W/m -1,9 C -0,9 C 6,4 km/h (2 Bft) 100,00 %
02.12.2023 17:04 23,6 C -0,9 C 52 % 93 % 1011,3 hPa 0,0 l/m 3,2 km/h (1 Bft) W-NW 292 0 min 0,000 mm 0,0 UV-I 0 W/m -1,9 C -0,9 C 6,4 km/h (2 Bft) 91,30 %
02.12.2023 17:03 23,6 C -0,9 C 52 % 93 % 1011,3 hPa 0,0 l/m 3,2 km/h (1 Bft) SW 225 0 min 0,000 mm 0,0 UV-I 0 W/m -1,9 C -0,9 C 6,4 km/h (2 Bft) 86,96 %
02.12.2023 17:02 23,6 C -0,9 C 52 % 93 % 1011,2 hPa 0,0 l/m 3,2 km/h (1 Bft) SW 225 0 min 0,000 mm 0,0 UV-I 0 W/m -1,9 C -0,9 C 6,4 km/h (2 Bft) 91,30 %
02.12.2023 17:01 23,6 C -0,9 C 52 % 93 % 1011,2 hPa 0,0 l/m 3,2 km/h (1 Bft) W-SW 247 0 min 0,000 mm 0,0 UV-I 0 W/m -1,9 C -0,9 C 4,8 km/h (1 Bft) 39,13 %
02.12.2023 17:00 23,6 C -0,9 C 52 % 93 % 1011,2 hPa 0,0 l/m 1,6 km/h (1 Bft) W-NW 292 0 min 0,000 mm 0,0 UV-I 0 W/m -1,9 C -0,9 C 3,2 km/h (1 Bft) 56,52 %
02.12.2023 16:59 23,6 C -0,9 C 52 % 93 % 1011,1 hPa 0,0 l/m 3,2 km/h (1 Bft) W-SW 247 0 min 0,000 mm 0,0 UV-I 0 W/m -1,9 C -0,9 C 6,4 km/h (2 Bft) 78,26 %
02.12.2023 16:58 23,6 C -0,9 C 52 % 93 % 1011,1 hPa 0,0 l/m 3,2 km/h (1 Bft) W-NW 292 0 min 0,000 mm 0,0 UV-I 0 W/m -1,9 C -0,9 C 4,8 km/h (1 Bft) 78,26 %
02.12.2023 16:57 23,6 C -0,9 C 52 % 93 % 1011,1 hPa 0,0 l/m 4,8 km/h (1 Bft) W-SW 247 0 min 0,000 mm 0,0 UV-I 0 W/m -1,9 C -0,9 C 9,7 km/h (2 Bft) 100,00 %
02.12.2023 16:56 23,6 C -0,8 C 52 % 93 % 1011,1 hPa 0,0 l/m 4,8 km/h (1 Bft) W 270 0 min 0,000 mm 0,0 UV-I 0 W/m -1,8 C -0,8 C 9,7 km/h (2 Bft) 73,91 %
02.12.2023 16:55 23,6 C -0,8 C 52 % 93 % 1011,0 hPa 0,0 l/m 3,2 km/h (1 Bft) W 270 0 min 0,000 mm 0,0 UV-I 0 W/m -1,8 C -0,8 C 6,4 km/h (2 Bft) 91,30 %
02.12.2023 16:54 23,6 C -0,8 C 52 % 93 % 1011,0 hPa 0,0 l/m 3,2 km/h (1 Bft) W 270 0 min 0,000 mm 0,0 UV-I 0 W/m -1,8 C -0,8 C 6,4 km/h (2 Bft) 82,61 %
02.12.2023 16:53 23,6 C -0,8 C 52 % 93 % 1010,9 hPa 0,0 l/m 1,6 km/h (1 Bft) W 270 0 min 0,000 mm 0,0 UV-I 0 W/m -1,8 C -0,8 C 3,2 km/h (1 Bft) 82,61 %
02.12.2023 16:52 23,6 C -0,7 C 52 % 93 % 1011,0 hPa 0,0 l/m 1,6 km/h (1 Bft) SW 225 0 min 0,000 mm 0,0 UV-I 0 W/m -1,7 C -0,7 C 4,8 km/h (1 Bft) 86,96 %
02.12.2023 16:51 23,6 C -0,7 C 51 % 93 % 1010,9 hPa 0,0 l/m 3,2 km/h (1 Bft) SW 225 0 min 0,000 mm 0,0 UV-I 0 W/m -1,7 C -0,7 C 4,8 km/h (1 Bft) 91,30 %
02.12.2023 16:50 23,6 C -0,7 C 52 % 93 % 1010,9 hPa 0,0 l/m 3,2 km/h (1 Bft) SW 225 0 min 0,000 mm 0,0 UV-I 0 W/m -1,7 C -0,7 C 6,4 km/h (2 Bft) 91,30 %
02.12.2023 16:49 23,6 C -0,7 C 51 % 94 % 1010,9 hPa 0,0 l/m 1,6 km/h (1 Bft) W 270 0 min 0,000 mm 0,0 UV-I 0 W/m -1,5 C -0,7 C 3,2 km/h (1 Bft) 91,30 %
02.12.2023 16:48 23,6 C -0,7 C 51 % 94 % 1010,9 hPa 0,0 l/m 3,2 km/h (1 Bft) W 270 0 min 0,000 mm 0,0 UV-I 0 W/m -1,5 C -0,7 C 6,4 km/h (2 Bft) 95,65 %
02.12.2023 16:47 23,6 C -0,7 C 51 % 93 % 1010,9 hPa 0,0 l/m 4,8 km/h (1 Bft) W-NW 292 0 min 0,000 mm 0,0 UV-I 0 W/m -1,7 C -0,7 C 6,4 km/h (2 Bft) 82,61 %
02.12.2023 16:46 23,6 C -0,7 C 51 % 94 % 1010,8 hPa 0,0 l/m 3,2 km/h (1 Bft) W 270 0 min 0,000 mm 0,0 UV-I 0 W/m -1,5 C -0,7 C 6,4 km/h (2 Bft) 91,30 %
02.12.2023 16:45 23,6 C -0,7 C 51 % 94 % 1010,8 hPa 0,0 l/m 1,6 km/h (1 Bft) W-SW 247 0 min 0,000 mm 0,0 UV-I 0 W/m -1,5 C -0,7 C 3,2 km/h (1 Bft) 95,65 %
02.12.2023 16:44 23,6 C -0,7 C 51 % 94 % 1010,8 hPa 0,0 l/m 1,6 km/h (1 Bft) W-SW 247 0 min 0,000 mm 0,0 UV-I 0 W/m -1,5 C -0,7 C 1,6 km/h (1 Bft) 95,65 %
02.12.2023 16:43 23,6 C -0,8 C 51 % 94 % 1010,7 hPa 0,0 l/m 1,6 km/h (1 Bft) W-SW 247 0 min 0,000 mm 0,0 UV-I 0 W/m -1,6 C -0,8 C 3,2 km/h (1 Bft) 95,65 %
02.12.2023 16:42 23,6 C -0,8 C 51 % 94 % 1010,7 hPa 0,0 l/m 3,2 km/h (1 Bft) W-NW 292 0 min 0,000 mm 0,0 UV-I 0 W/m -1,6 C -0,8 C 4,8 km/h (1 Bft) 91,30 %
02.12.2023 16:41 23,6 C -0,8 C 51 % 94 % 1010,7 hPa 0,0 l/m 1,6 km/h (1 Bft) SW 225 0 min 0,000 mm 0,0 UV-I 0 W/m -1,6 C -0,8 C 11,3 km/h (2 Bft) 100,00 %
02.12.2023 16:40 23,6 C -0,8 C 51 % 94 % 1010,6 hPa 0,0 l/m 3,2 km/h (1 Bft) W 270 0 min 0,000 mm 0,0 UV-I 0 W/m -1,6 C -0,8 C 11,3 km/h (2 Bft) 100,00 %
02.12.2023 16:39 23,6 C -0,8 C 51 % 94 % 1010,6 hPa 0,0 l/m 3,2 km/h (1 Bft) W 270 0 min 0,000 mm 0,0 UV-I 0 W/m -1,6 C -0,8 C 6,4 km/h (2 Bft) 100,00 %
02.12.2023 16:38 23,6 C -0,7 C 51 % 94 % 1010,5 hPa 0,0 l/m 3,2 km/h (1 Bft) SW 225 0 min 0,000 mm 0,0 UV-I 0 W/m -1,5 C -0,7 C 4,8 km/h (1 Bft) 95,65 %
02.12.2023 16:37 23,6 C -0,7 C 51 % 94 % 1010,6 hPa 0,0 l/m 3,2 km/h (1 Bft) W-SW 247 0 min 0,000 mm 0,0 UV-I 0 W/m -1,5 C -0,7 C 6,4 km/h (2 Bft) 95,65 %
02.12.2023 16:36 23,6 C -0,7 C 51 % 94 % 1010,5 hPa 0,0 l/m 1,6 km/h (1 Bft) W-SW 247 0 min 0,000 mm 0,0 UV-I 0 W/m -1,5 C -0,7 C 3,2 km/h (1 Bft) 95,65 %
02.12.2023 16:35 23,6 C -0,6 C 51 % 94 % 1010,4 hPa 0,0 l/m 1,6 km/h (1 Bft) SW 225 0 min 0,000 mm 0,0 UV-I 0 W/m -1,4 C -0,6 C 3,2 km/h (1 Bft) 95,65 %
02.12.2023 16:34 23,6 C -0,6 C 51 % 94 % 1010,5 hPa 0,0 l/m 1,6 km/h (1 Bft) SW 225 0 min 0,000 mm 0,0 UV-I 0 W/m -1,4 C -0,6 C 3,2 km/h (1 Bft) 95,65 %
02.12.2023 16:33 23,6 C -0,6 C 51 % 94 % 1010,4 hPa 0,0 l/m 1,6 km/h (1 Bft) W 270 0 min 0,000 mm 0,0 UV-I 0 W/m -1,4 C -0,6 C 3,2 km/h (1 Bft) 100,00 %
02.12.2023 16:32 23,5 C -0,5 C 50 % 94 % 1010,4 hPa 0,0 l/m 3,2 km/h (1 Bft) W 270 0 min 0,000 mm 0,0 UV-I 0 W/m -1,3 C -0,5 C 4,8 km/h (1 Bft) 91,30 %
02.12.2023 16:31 23,6 C -0,5 C 50 % 95 % 1010,3 hPa 0,0 l/m 1,6 km/h (1 Bft) W 270 0 min 0,000 mm 0,0 UV-I 0 W/m -1,2 C -0,5 C 3,2 km/h (1 Bft) 95,65 %
02.12.2023 16:30 23,6 C -0,5 C 50 % 95 % 1010,3 hPa 0,0 l/m 1,6 km/h (1 Bft) W 270 0 min 0,000 mm 0,0 UV-I 0 W/m -1,2 C -0,5 C 4,8 km/h (1 Bft) 95,65 %
02.12.2023 16:29 23,6 C -0,4 C 50 % 95 % 1010,3 hPa 0,0 l/m 1,6 km/h (1 Bft) W-SW 247 0 min 0,000 mm 0,0 UV-I 0 W/m -1,1 C -0,4 C 3,2 km/h (1 Bft) 95,65 %
02.12.2023 16:28 23,6 C -0,5 C 50 % 95 % 1010,2 hPa 0,0 l/m 3,2 km/h (1 Bft) W-SW 247 0 min 0,000 mm 0,0 UV-I 0 W/m -1,2 C -0,5 C 4,8 km/h (1 Bft) 91,30 %
02.12.2023 16:27 23,6 C -0,4 C 50 % 95 % 1010,1 hPa 0,0 l/m 1,6 km/h (1 Bft) W-NW 292 0 min 0,000 mm 0,0 UV-I 0 W/m -1,1 C -0,4 C 6,4 km/h (2 Bft) 91,30 %
02.12.2023 16:26 23,6 C -0,4 C 50 % 95 % 1010,1 hPa 0,0 l/m 1,6 km/h (1 Bft) W 270 0 min 0,000 mm 0,0 UV-I 0 W/m -1,1 C -0,4 C 3,2 km/h (1 Bft) 95,65 %
02.12.2023 16:25 23,6 C -0,4 C 50 % 95 % 1010,1 hPa 0,0 l/m 1,6 km/h (1 Bft) N-NW 337 0 min 0,000 mm 0,0 UV-I 0 W/m -1,1 C -0,4 C 4,8 km/h (1 Bft) 95,65 %
02.12.2023 16:24 23,6 C -0,5 C 49 % 95 % 1010,1 hPa 0,0 l/m 1,6 km/h (1 Bft) SW 225 0 min 0,000 mm 0,0 UV-I 0 W/m -1,2 C -0,5 C 4,8 km/h (1 Bft) 100,00 %
02.12.2023 16:23 23,7 C -0,5 C 50 % 95 % 1010,1 hPa 0,0 l/m 1,6 km/h (1 Bft) W 270 0 min 0,000 mm 0,0 UV-I 0 W/m -1,2 C -0,5 C 3,2 km/h (1 Bft) 91,30 %
02.12.2023 16:22 23,7 C -0,5 C 52 % 95 % 1010,0 hPa 0,0 l/m 3,2 km/h (1 Bft) W 270 0 min 0,000 mm 0,0 UV-I 0 W/m -1,2 C -0,5 C 4,8 km/h (1 Bft) 95,65 %
02.12.2023 16:21 23,7 C -0,6 C 53 % 95 % 1010,1 hPa 0,0 l/m 1,6 km/h (1 Bft) W 270 0 min 0,000 mm 0,0 UV-I 0 W/m -1,3 C -0,6 C 3,2 km/h (1 Bft) 95,65 %
02.12.2023 16:20 23,7 C -0,6 C 53 % 95 % 1010,0 hPa 0,0 l/m 1,6 km/h (1 Bft) W 270 0 min 0,000 mm 0,0 UV-I 0 W/m -1,3 C -0,6 C 4,8 km/h (1 Bft) 95,65 %
02.12.2023 16:19 23,7 C -0,5 C 53 % 95 % 1010,0 hPa 0,0 l/m 3,2 km/h (1 Bft) W-SW 247 0 min 0,000 mm 0,0 UV-I 0 W/m -1,2 C -0,5 C 4,8 km/h (1 Bft) 100,00 %
02.12.2023 16:18 23,6 C -0,5 C 53 % 95 % 1009,9 hPa 0,0 l/m 1,6 km/h (1 Bft) W 270 0 min 0,000 mm 0,0 UV-I 0 W/m -1,2 C -0,5 C 4,8 km/h (1 Bft) 91,30 %
02.12.2023 16:17 23,7 C -0,4 C 53 % 95 % 1010,0 hPa 0,0 l/m 1,6 km/h (1 Bft) W-SW 247 0 min 0,000 mm 0,0 UV-I 0 W/m -1,1 C -0,4 C 3,2 km/h (1 Bft) 100,00 %
02.12.2023 16:16 23,7 C -0,4 C 53 % 95 % 1009,9 hPa 0,0 l/m 1,6 km/h (1 Bft) SW 225 0 min 0,000 mm 0,0 UV-I 0 W/m -1,1 C -0,4 C 4,8 km/h (1 Bft) 95,65 %
02.12.2023 16:15 23,7 C -0,4 C 53 % 95 % 1009,9 hPa 0,0 l/m 1,6 km/h (1 Bft) W 270 0 min 0,000 mm 0,0 UV-I 0 W/m -1,1 C -0,4 C 3,2 km/h (1 Bft) 95,65 %
02.12.2023 16:14 23,7 C -0,4 C 53 % 95 % 1009,9 hPa 0,0 l/m 3,2 km/h (1 Bft) W 270 0 min 0,000 mm 0,0 UV-I 0 W/m -1,1 C -0,4 C 4,8 km/h (1 Bft) 91,30 %
02.12.2023 16:13 23,7 C -0,3 C 53 % 95 % 1009,9 hPa 0,0 l/m 0,0 km/h (0 Bft) S-SW 202 0 min 0,000 mm 0,0 UV-I 0 W/m -1,0 C -0,3 C 1,6 km/h (1 Bft) 100,00 %
02.12.2023 16:12 23,7 C -0,3 C 53 % 95 % 1009,8 hPa 0,0 l/m 0,0 km/h (0 Bft) SW 225 0 min 0,000 mm 0,0 UV-I 0 W/m -1,0 C -0,3 C 1,6 km/h (1 Bft) 100,00 %
02.12.2023 16:11 23,7 C -0,3 C 53 % 95 % 1009,8 hPa 0,0 l/m 1,6 km/h (1 Bft) W-SW 247 0 min 0,000 mm 0,0 UV-I 0 W/m -1,0 C -0,3 C 4,8 km/h (1 Bft) 100,00 %
02.12.2023 16:10 23,7 C -0,4 C 53 % 95 % 1009,8 hPa 0,0 l/m 1,6 km/h (1 Bft) W 270 0 min 0,000 mm 0,0 UV-I 0 W/m -1,1 C -0,4 C 3,2 km/h (1 Bft) 91,30 %
02.12.2023 16:09 23,7 C -0,4 C 53 % 95 % 1009,7 hPa 0,0 l/m 3,2 km/h (1 Bft) W 270 0 min 0,000 mm 0,0 UV-I 0 W/m -1,1 C -0,4 C 6,4 km/h (2 Bft) 95,65 %
02.12.2023 16:08 23,7 C -0,4 C 53 % 95 % 1009,8 hPa 0,0 l/m 0,0 km/h (0 Bft) W-SW 247 0 min 0,000 mm 0,0 UV-I 0 W/m -1,1 C -0,4 C 1,6 km/h (1 Bft) 95,65 %
02.12.2023 16:07 23,6 C -0,4 C 53 % 95 % 1009,8 hPa 0,0 l/m 0,0 km/h (0 Bft) W-SW 247 0 min 0,000 mm 0,0 UV-I 0 W/m -1,1 C -0,4 C 1,6 km/h (1 Bft) 95,65 %
02.12.2023 16:06 23,7 C -0,4 C 53 % 95 % 1009,8 hPa 0,0 l/m 1,6 km/h (1 Bft) W 270 0 min 0,000 mm 0,0 UV-I 0 W/m -1,1 C -0,4 C 3,2 km/h (1 Bft) 95,65 %
02.12.2023 16:05 23,7 C -0,4 C 53 % 95 % 1009,7 hPa 0,0 l/m 3,2 km/h (1 Bft) W 270 0 min 0,000 mm 0,0 UV-I 0 W/m -1,1 C -0,4 C 4,8 km/h (1 Bft) 100,00 %
02.12.2023 16:04 23,6 C -0,5 C 53 % 95 % 1009,7 hPa 0,0 l/m 1,6 km/h (1 Bft) W 270 0 min 0,000 mm 0,0 UV-I 0 W/m -1,2 C -0,5 C 4,8 km/h (1 Bft) 95,65 %
02.12.2023 16:03 23,6 C -0,6 C 53 % 95 % 1009,7 hPa 0,0 l/m 1,6 km/h (1 Bft) W 270 0 min 0,000 mm 0,0 UV-I 0 W/m -1,3 C -0,6 C 4,8 km/h (1 Bft) 91,30 %
02.12.2023 16:02 23,7 C -0,6 C 53 % 95 % 1009,7 hPa 0,0 l/m 1,6 km/h (1 Bft) W 270 0 min 0,000 mm 0,0 UV-I 0 W/m -1,3 C -0,6 C 3,2 km/h (1 Bft) 95,65 %
02.12.2023 16:01 23,6 C -0,6 C 53 % 95 % 1009,6 hPa 0,0 l/m 1,6 km/h (1 Bft) W 270 0 min 0,000 mm 0,0 UV-I 0 W/m -1,3 C -0,6 C 4,8 km/h (1 Bft) 95,65 %
02.12.2023 16:00 23,6 C -0,6 C 53 % 95 % 1009,6 hPa 0,0 l/m 1,6 km/h (1 Bft) SW 225 0 min 0,000 mm 0,0 UV-I 0 W/m -1,3 C -0,6 C 3,2 km/h (1 Bft) 91,30 %
02.12.2023 15:59 23,7 C -0,6 C 53 % 95 % 1009,5 hPa 0,0 l/m 1,6 km/h (1 Bft) W-SW 247 0 min 0,000 mm 0,0 UV-I 0 W/m -1,3 C -0,6 C 3,2 km/h (1 Bft) 86,96 %
02.12.2023 15:58 23,6 C -0,6 C 53 % 95 % 1009,5 hPa 0,0 l/m 3,2 km/h (1 Bft) W-SW 247 0 min 0,000 mm 0,0 UV-I 0 W/m -1,3 C -0,6 C 4,8 km/h (1 Bft) 91,30 %
02.12.2023 15:57 23,6 C -0,5 C 53 % 95 % 1009,5 hPa 0,0 l/m 1,6 km/h (1 Bft) W-SW 247 0 min 0,000 mm 0,0 UV-I 0 W/m -1,2 C -0,5 C 3,2 km/h (1 Bft) 91,30 %
02.12.2023 15:56 23,7 C -0,5 C 53 % 95 % 1009,5 hPa 0,0 l/m 1,6 km/h (1 Bft) W-SW 247 0 min 0,000 mm 0,0 UV-I 0 W/m -1,2 C -0,5 C 4,8 km/h (1 Bft) 95,65 %
02.12.2023 15:55 23,7 C -0,5 C 53 % 95 % 1009,4 hPa 0,0 l/m 1,6 km/h (1 Bft) W-SW 247 0 min 0,000 mm 0,0 UV-I 0 W/m -1,2 C -0,5 C 3,2 km/h (1 Bft) 100,00 %
02.12.2023 15:54 23,7 C -0,4 C 53 % 95 % 1009,3 hPa 0,0 l/m 0,0 km/h (0 Bft) W-SW 247 0 min 0,000 mm 0,0 UV-I 0 W/m -1,1 C -0,4 C 1,6 km/h (1 Bft) 95,65 %
02.12.2023 15:53 23,6 C -0,4 C 53 % 95 % 1009,4 hPa 0,0 l/m 0,0 km/h (0 Bft) W-SW 247 0 min 0,000 mm 0,0 UV-I 0 W/m -1,1 C -0,4 C 1,6 km/h (1 Bft) 86,96 %
02.12.2023 15:52 23,6 C -0,4 C 53 % 95 % 1009,3 hPa 0,0 l/m 1,6 km/h (1 Bft) W-SW 247 0 min 0,000 mm 0,0 UV-I 0 W/m -1,1 C -0,4 C 3,2 km/h (1 Bft) 91,30 %
02.12.2023 15:51 23,6 C -0,4 C 53 % 95 % 1009,3 hPa 0,0 l/m 0,0 km/h (0 Bft) W-SW 247 0 min 0,000 mm 0,0 UV-I 0 W/m -1,1 C -0,4 C 1,6 km/h (1 Bft) 100,00 %
02.12.2023 15:50 23,6 C -0,5 C 53 % 95 % 1009,4 hPa 0,0 l/m 1,6 km/h (1 Bft) W-SW 247 0 min 0,000 mm 0,0 UV-I 0 W/m -1,2 C -0,5 C 4,8 km/h (1 Bft) 91,30 %
02.12.2023 15:49 23,6 C -0,5 C 53 % 95 % 1009,3 hPa 0,0 l/m 1,6 km/h (1 Bft) W-SW 247 0 min 0,000 mm 0,0 UV-I 0 W/m -1,2 C -0,5 C 3,2 km/h (1 Bft) 100,00 %
02.12.2023 15:48 23,6 C -0,5 C 53 % 95 % 1009,3 hPa 0,0 l/m 3,2 km/h (1 Bft) SW 225 0 min 0,000 mm 0,0 UV-I 0 W/m -1,2 C -0,5 C 4,8 km/h (1 Bft) 91,30 %
02.12.2023 15:47 23,6 C -0,5 C 53 % 95 % 1009,2 hPa 0,0 l/m 1,6 km/h (1 Bft) W 270 0 min 0,000 mm 0,0 UV-I 0 W/m -1,2 C -0,5 C 3,2 km/h (1 Bft) 100,00 %
02.12.2023 15:46 23,6 C -0,6 C 53 % 95 % 1009,2 hPa 0,0 l/m 0,0 km/h (0 Bft) W 270 0 min 0,000 mm 0,0 UV-I 0 W/m -1,3 C -0,6 C 1,6 km/h (1 Bft) 95,65 %
02.12.2023 15:45 23,6 C -0,6 C 53 % 95 % 1009,2 hPa 0,0 l/m 0,0 km/h (0 Bft) W 270 0 min 0,000 mm 0,0 UV-I 0 W/m -1,3 C -0,6 C 1,6 km/h (1 Bft) 100,00 %
02.12.2023 15:44 23,6 C -0,6 C 53 % 95 % 1009,2 hPa 0,0 l/m 1,6 km/h (1 Bft) W 270 0 min 0,000 mm 0,0 UV-I 0 W/m -1,3 C -0,6 C 3,2 km/h (1 Bft) 95,65 %
02.12.2023 15:43 23,6 C -0,7 C 53 % 95 % 1009,1 hPa 0,0 l/m 1,6 km/h (1 Bft) W 270 0 min 0,000 mm 0,0 UV-I 0 W/m -1,4 C -0,7 C 1,6 km/h (1 Bft) 100,00 %
02.12.2023 15:42 23,6 C -0,6 C 53 % 95 % 1009,1 hPa 0,0 l/m 1,6 km/h (1 Bft) W 270 0 min 0,000 mm 0,0 UV-I 0 W/m -1,3 C -0,6 C 3,2 km/h (1 Bft) 95,65 %
02.12.2023 15:41 23,6 C -0,6 C 53 % 95 % 1009,1 hPa 0,0 l/m 3,2 km/h (1 Bft) W-NW 292 0 min 0,000 mm 0,0 UV-I 0 W/m -1,3 C -0,6 C 4,8 km/h (1 Bft) 100,00 %
02.12.2023 15:40 23,6 C -0,6 C 53 % 95 % 1009,2 hPa 0,0 l/m 1,6 km/h (1 Bft) W-NW 292 0 min 0,000 mm 0,0 UV-I 0 W/m -1,3 C -0,6 C 3,2 km/h (1 Bft) 91,30 %
02.12.2023 15:39 23,6 C -0,6 C 53 % 94 % 1009,0 hPa 0,0 l/m 3,2 km/h (1 Bft) W-SW 247 0 min 0,000 mm 0,0 UV-I 0 W/m -1,4 C -0,6 C 4,8 km/h (1 Bft) 95,65 %
02.12.2023 15:38 23,6 C -0,5 C 53 % 95 % 1009,0 hPa 0,0 l/m 1,6 km/h (1 Bft) W 270 0 min 0,000 mm 0,0 UV-I 0 W/m -1,2 C -0,5 C 3,2 km/h (1 Bft) 95,65 %
02.12.2023 15:37 23,6 C -0,5 C 53 % 95 % 1009,0 hPa 0,0 l/m 3,2 km/h (1 Bft) W-NW 292 0 min 0,000 mm 0,0 UV-I 0 W/m -1,2 C -0,5 C 4,8 km/h (1 Bft) 95,65 %
02.12.2023 15:36 23,6 C -0,4 C 53 % 95 % 1009,0 hPa 0,0 l/m 1,6 km/h (1 Bft) W-NW 292 0 min 0,000 mm 0,0 UV-I 0 W/m -1,1 C -0,4 C 3,2 km/h (1 Bft) 86,96 %
02.12.2023 15:35 23,6 C -0,4 C 53 % 95 % 1009,0 hPa 0,0 l/m 1,6 km/h (1 Bft) S-SW 202 0 min 0,000 mm 0,0 UV-I 0 W/m -1,1 C -0,4 C 1,6 km/h (1 Bft) 91,30 %
02.12.2023 15:34 23,6 C -0,4 C 53 % 95 % 1008,9 hPa 0,0 l/m 1,6 km/h (1 Bft) W-NW 292 0 min 0,000 mm 0,0 UV-I 0 W/m -1,1 C -0,4 C 4,8 km/h (1 Bft) 78,26 %
02.12.2023 15:33 23,6 C -0,3 C 53 % 95 % 1008,9 hPa 0,0 l/m 1,6 km/h (1 Bft) W 270 0 min 0,000 mm 0,0 UV-I 0 W/m -1,0 C -0,3 C 4,8 km/h (1 Bft) 69,57 %
02.12.2023 15:32 23,6 C -0,3 C 53 % 95 % 1008,9 hPa 0,0 l/m 1,6 km/h (1 Bft) W-SW 247 0 min 0,000 mm 0,0 UV-I 0 W/m -1,0 C -0,3 C 1,6 km/h (1 Bft) 78,26 %
02.12.2023 15:31 23,6 C -0,3 C 53 % 95 % 1008,9 hPa 0,0 l/m 1,6 km/h (1 Bft) W-SW 247 0 min 0,000 mm 0,0 UV-I 0 W/m -1,0 C -0,3 C 1,6 km/h (1 Bft) 65,22 %
02.12.2023 15:30 23,6 C -0,3 C 53 % 95 % 1008,9 hPa 0,0 l/m 0,0 km/h (0 Bft) W 270 0 min 0,000 mm 0,0 UV-I 0 W/m -1,0 C -0,3 C 1,6 km/h (1 Bft) 43,48 %
02.12.2023 15:29 23,6 C -0,3 C 53 % 95 % 1008,9 hPa 0,0 l/m 1,6 km/h (1 Bft) W-NW 292 0 min 0,000 mm 0,0 UV-I 0 W/m -1,0 C -0,3 C 3,2 km/h (1 Bft) 60,87 %
02.12.2023 15:28 23,6 C -0,3 C 52 % 95 % 1008,8 hPa 0,0 l/m 3,2 km/h (1 Bft) W-NW 292 0 min 0,000 mm 0,0 UV-I 0 W/m -1,0 C -0,3 C 4,8 km/h (1 Bft) 65,22 %
02.12.2023 15:27 23,6 C -0,4 C 52 % 95 % 1008,8 hPa 0,0 l/m 1,6 km/h (1 Bft) S-SW 202 0 min 0,000 mm 0,0 UV-I 0 W/m -1,1 C -0,4 C 4,8 km/h (1 Bft) 56,52 %
02.12.2023 15:26 23,6 C -0,3 C 52 % 95 % 1008,8 hPa 0,0 l/m 3,2 km/h (1 Bft) W-NW 292 0 min 0,000 mm 0,0 UV-I 0 W/m -1,0 C -0,3 C 4,8 km/h (1 Bft) 78,26 %
02.12.2023 15:25 23,6 C -0,4 C 52 % 95 % 1008,8 hPa 0,0 l/m 3,2 km/h (1 Bft) W-NW 292 0 min 0,000 mm 0,0 UV-I 0 W/m -1,1 C -0,4 C 3,2 km/h (1 Bft) 78,26 %
02.12.2023 15:24 23,6 C -0,4 C 52 % 95 % 1008,7 hPa 0,0 l/m 1,6 km/h (1 Bft) W-NW 292 0 min 0,000 mm 0,0 UV-I 0 W/m -1,1 C -0,4 C 3,2 km/h (1 Bft) 73,91 %
02.12.2023 15:23 23,6 C -0,4 C 52 % 95 % 1008,7 hPa 0,0 l/m 0,0 km/h (0 Bft) W-NW 292 0 min 0,000 mm 0,0 UV-I 0 W/m -1,1 C -0,4 C 1,6 km/h (1 Bft) 82,61 %
02.12.2023 15:22 23,6 C -0,3 C 52 % 95 % 1008,7 hPa 0,0 l/m 3,2 km/h (1 Bft) W-NW 292 0 min 0,000 mm 0,0 UV-I 0 W/m -1,0 C -0,3 C 4,8 km/h (1 Bft) 78,26 %
02.12.2023 15:21 23,6 C -0,3 C 52 % 95 % 1008,7 hPa 0,0 l/m 4,8 km/h (1 Bft) W-NW 292 0 min 0,000 mm 0,0 UV-I 0 W/m -1,0 C -0,3 C 4,8 km/h (1 Bft) 69,57 %
02.12.2023 15:20 23,6 C -0,3 C 52 % 95 % 1008,7 hPa 0,0 l/m 1,6 km/h (1 Bft) SW 225 0 min 0,000 mm 0,0 UV-I 0 W/m -1,0 C -0,3 C 3,2 km/h (1 Bft) 69,57 %
02.12.2023 15:19 23,6 C -0,3 C 52 % 95 % 1008,7 hPa 0,0 l/m 3,2 km/h (1 Bft) W-NW 292 0 min 0,000 mm 0,0 UV-I 0 W/m -1,0 C -0,3 C 4,8 km/h (1 Bft) 69,57 %
02.12.2023 15:18 23,6 C -0,2 C 52 % 95 % 1008,7 hPa 0,0 l/m 3,2 km/h (1 Bft) W-NW 292 0 min 0,000 mm 0,0 UV-I 0 W/m -0,9 C -0,2 C 4,8 km/h (1 Bft) 95,65 %
02.12.2023 15:17 23,6 C -0,2 C 52 % 95 % 1008,6 hPa 0,0 l/m 3,2 km/h (1 Bft) W 270 0 min 0,000 mm 0,0 UV-I 0 W/m -0,9 C -0,2 C 6,4 km/h (2 Bft) 82,61 %
02.12.2023 15:16 23,6 C -0,1 C 52 % 95 % 1008,6 hPa 0,0 l/m 3,2 km/h (1 Bft) NW 315 0 min 0,000 mm 0,0 UV-I 0 W/m -0,8 C -0,1 C 4,8 km/h (1 Bft) 60,87 %
02.12.2023 15:15 23,6 C -0,1 C 52 % 95 % 1008,5 hPa 0,0 l/m 3,2 km/h (1 Bft) W-NW 292 0 min 0,000 mm 0,0 UV-I 0 W/m -0,8 C -0,1 C 4,8 km/h (1 Bft) 73,91 %
02.12.2023 15:14 23,6 C -0,1 C 52 % 96 % 1008,5 hPa 0,0 l/m 3,2 km/h (1 Bft) W 270 0 min 0,000 mm 0,0 UV-I 0 W/m -0,7 C -0,1 C 9,7 km/h (2 Bft) 65,22 %
02.12.2023 15:13 23,6 C -0,1 C 52 % 96 % 1008,5 hPa 0,0 l/m 3,2 km/h (1 Bft) W-NW 292 0 min 0,000 mm 0,0 UV-I 0 W/m -0,7 C -0,1 C 4,8 km/h (1 Bft) 73,91 %
02.12.2023 15:12 23,6 C 0,0 C 52 % 96 % 1008,4 hPa 0,0 l/m 4,8 km/h (1 Bft) W-NW 292 0 min 0,000 mm 0,0 UV-I 0 W/m -0,6 C 0,0 C 8,0 km/h (2 Bft) 82,61 %
02.12.2023 15:11 23,6 C 0,1 C 52 % 96 % 1008,4 hPa 0,0 l/m 4,8 km/h (1 Bft) W-NW 292 0 min 0,000 mm 0,0 UV-I 0 W/m -0,5 C 0,1 C 6,4 km/h (2 Bft) 73,91 %
02.12.2023 15:10 23,6 C 0,1 C 52 % 96 % 1008,4 hPa 0,0 l/m 4,8 km/h (1 Bft) W-NW 292 0 min 0,000 mm 0,0 UV-I 0 W/m -0,5 C 0,1 C 8,0 km/h (2 Bft) 69,57 %
02.12.2023 15:09 23,6 C 0,1 C 52 % 96 % 1008,3 hPa 0,0 l/m 3,2 km/h (1 Bft) W-NW 292 0 min 0,000 mm 0,0 UV-I 0 W/m -0,5 C 0,1 C 6,4 km/h (2 Bft) 69,57 %
02.12.2023 15:08 23,6 C 0,1 C 52 % 96 % 1008,3 hPa 0,0 l/m 3,2 km/h (1 Bft) W-NW 292 0 min 0,000 mm 0,0 UV-I 0 W/m -0,5 C 0,1 C 4,8 km/h (1 Bft) 69,57 %
02.12.2023 15:07 23,6 C 0,1 C 52 % 96 % 1008,3 hPa 0,0 l/m 3,2 km/h (1 Bft) W-NW 292 0 min 0,000 mm 0,0 UV-I 0 W/m -0,5 C 0,1 C 6,4 km/h (2 Bft) 82,61 %
02.12.2023 15:06 23,6 C 0,0 C 52 % 96 % 1008,2 hPa 0,0 l/m 1,6 km/h (1 Bft) W-NW 292 0 min 0,000 mm 0,0 UV-I 0 W/m -0,6 C 0,0 C 3,2 km/h (1 Bft) 65,22 %
02.12.2023 15:05 23,6 C 0,0 C 52 % 96 % 1008,2 hPa 0,0 l/m 1,6 km/h (1 Bft) SW 225 0 min 0,000 mm 0,0 UV-I 0 W/m -0,6 C 0,0 C 3,2 km/h (1 Bft) 69,57 %
02.12.2023 15:04 23,6 C 0,0 C 52 % 96 % 1008,2 hPa 0,0 l/m 1,6 km/h (1 Bft) W 270 0 min 0,000 mm 0,0 UV-I 0 W/m -0,6 C 0,0 C 3,2 km/h (1 Bft) 65,22 %
02.12.2023 15:03 23,6 C 0,1 C 52 % 96 % 1008,2 hPa 0,0 l/m 1,6 km/h (1 Bft) W 270 0 min 0,000 mm 0,0 UV-I 0 W/m -0,5 C 0,1 C 3,2 km/h (1 Bft) 78,26 %
02.12.2023 15:02 23,6 C 0,1 C 52 % 96 % 1008,1 hPa 0,0 l/m 1,6 km/h (1 Bft) W 270 0 min 0,000 mm 0,0 UV-I 0 W/m -0,5 C 0,1 C 3,2 km/h (1 Bft) 78,26 %
02.12.2023 15:01 23,6 C 0,1 C 52 % 96 % 1008,1 hPa 0,0 l/m 0,0 km/h (0 Bft) W 270 0 min 0,000 mm 0,0 UV-I 0 W/m -0,5 C 0,1 C 1,6 km/h (1 Bft) 43,48 %
02.12.2023 15:00 23,6 C 0,1 C 52 % 96 % 1008,0 hPa 0,0 l/m 1,6 km/h (1 Bft) W 270 0 min 0,000 mm 0,0 UV-I 0 W/m -0,5 C 0,1 C 3,2 km/h (1 Bft) 95,65 %
02.12.2023 14:59 23,6 C 0,1 C 52 % 96 % 1008,0 hPa 0,0 l/m 1,6 km/h (1 Bft) W 270 0 min 0,000 mm 0,0 UV-I 0 W/m -0,5 C 0,1 C 1,6 km/h (1 Bft) 78,26 %
02.12.2023 14:58 23,6 C 0,1 C 52 % 96 % 1008,1 hPa 0,0 l/m 1,6 km/h (1 Bft) W 270 0 min 0,000 mm 0,0 UV-I 0 W/m -0,5 C 0,1 C 3,2 km/h (1 Bft) 69,57 %
02.12.2023 14:57 23,6 C 0,1 C 52 % 96 % 1008,0 hPa 0,0 l/m 1,6 km/h (1 Bft) W 270 0 min 0,000 mm 0,0 UV-I 0 W/m -0,5 C 0,1 C 3,2 km/h (1 Bft) 69,57 %
02.12.2023 14:56 23,5 C 0,1 C 52 % 96 % 1008,0 hPa 0,0 l/m 1,6 km/h (1 Bft) W-NW 292 0 min 0,000 mm 0,0 UV-I 0 W/m -0,5 C 0,1 C 3,2 km/h (1 Bft) 65,22 %
02.12.2023 14:55 23,6 C 0,1 C 52 % 96 % 1008,0 hPa 0,0 l/m 1,6 km/h (1 Bft) W-NW 292 0 min 0,000 mm 0,0 UV-I 0 W/m -0,5 C 0,1 C 3,2 km/h (1 Bft) 73,91 %
02.12.2023 14:54 23,6 C 0,1 C 52 % 96 % 1008,0 hPa 0,0 l/m 3,2 km/h (1 Bft) W-NW 292 0 min 0,000 mm 0,0 UV-I 0 W/m -0,5 C 0,1 C 4,8 km/h (1 Bft) 86,96 %
02.12.2023 14:53 23,6 C 0,0 C 52 % 96 % 1008,0 hPa 0,0 l/m 0,0 km/h (0 Bft) W-SW 247 0 min 0,000 mm 0,0 UV-I 0 W/m -0,6 C 0,0 C 1,6 km/h (1 Bft) 82,61 %
02.12.2023 14:52 23,5 C -0,1 C 52 % 96 % 1008,0 hPa 0,0 l/m 1,6 km/h (1 Bft) W-SW 247 0 min 0,000 mm 0,0 UV-I 0 W/m -0,7 C -0,1 C 3,2 km/h (1 Bft) 43,48 %
02.12.2023 14:51 23,5 C -0,1 C 52 % 96 % 1007,9 hPa 0,0 l/m 1,6 km/h (1 Bft) W-SW 247 0 min 0,000 mm 0,0 UV-I 0 W/m -0,7 C -0,1 C 3,2 km/h (1 Bft) 43,48 %
02.12.2023 14:50 23,5 C -0,1 C 52 % 96 % 1008,0 hPa 0,0 l/m 0,0 km/h (0 Bft) W-SW 247 0 min 0,000 mm 0,0 UV-I 0 W/m -0,7 C -0,1 C 1,6 km/h (1 Bft) 56,52 %
02.12.2023 14:49 23,5 C -0,1 C 52 % 96 % 1007,9 hPa 0,0 l/m 1,6 km/h (1 Bft) W-SW 247 0 min 0,000 mm 0,0 UV-I 0 W/m -0,7 C -0,1 C 3,2 km/h (1 Bft) 65,22 %
02.12.2023 14:48 23,5 C -0,1 C 51 % 96 % 1007,9 hPa 0,0 l/m 1,6 km/h (1 Bft) W-SW 247 0 min 0,000 mm 0,0 UV-I 0 W/m -0,7 C -0,1 C 3,2 km/h (1 Bft) 78,26 %
02.12.2023 14:47 23,5 C -0,1 C 52 % 96 % 1008,0 hPa 0,0 l/m 1,6 km/h (1 Bft) W-SW 247 0 min 0,000 mm 0,0 UV-I 0 W/m -0,7 C -0,1 C 3,2 km/h (1 Bft) 56,52 %
02.12.2023 14:46 23,5 C -0,2 C 51 % 96 % 1007,9 hPa 0,0 l/m 1,6 km/h (1 Bft) W-SW 247 0 min 0,000 mm 0,0 UV-I 0 W/m -0,8 C -0,2 C 3,2 km/h (1 Bft) 91,30 %
02.12.2023 14:45 23,5 C -0,1 C 51 % 96 % 1007,9 hPa 0,0 l/m 0,0 km/h (0 Bft) W-SW 247 0 min 0,000 mm 0,0 UV-I 0 W/m -0,7 C -0,1 C 3,2 km/h (1 Bft) 100,00 %
02.12.2023 14:44 23,5 C -0,2 C 51 % 96 % 1008,0 hPa 0,0 l/m 1,6 km/h (1 Bft) W-SW 247 0 min 0,000 mm 0,0 UV-I 0 W/m -0,8 C -0,2 C 4,8 km/h (1 Bft) 95,65 %
02.12.2023 14:43 23,5 C -0,2 C 51 % 96 % 1008,0 hPa 0,0 l/m 1,6 km/h (1 Bft) W-SW 247 0 min 0,000 mm 0,0 UV-I 0 W/m -0,8 C -0,2 C 3,2 km/h (1 Bft) 91,30 %
02.12.2023 14:42 23,5 C -0,2 C 51 % 96 % 1007,9 hPa 0,0 l/m 1,6 km/h (1 Bft) W-SW 247 0 min 0,000 mm 0,0 UV-I 5 W/m -0,8 C -0,2 C 3,2 km/h (1 Bft) 100,00 %
02.12.2023 14:41 23,5 C -0,3 C 51 % 96 % 1008,0 hPa 0,0 l/m 1,6 km/h (1 Bft) W-SW 247 0 min 0,000 mm 0,0 UV-I 5 W/m -0,9 C -0,3 C 1,6 km/h (1 Bft) 78,26 %
02.12.2023 14:40 23,4 C -0,3 C 51 % 95 % 1007,9 hPa 0,0 l/m 1,6 km/h (1 Bft) W-SW 247 0 min 0,000 mm 0,0 UV-I 5 W/m -1,0 C -0,3 C 3,2 km/h (1 Bft) 95,65 %
02.12.2023 14:39 23,5 C -0,3 C 51 % 95 % 1007,9 hPa 0,0 l/m 1,6 km/h (1 Bft) W-SW 247 0 min 0,000 mm 0,0 UV-I 5 W/m -1,0 C -0,3 C 3,2 km/h (1 Bft) 95,65 %
02.12.2023 14:38 23,5 C -0,3 C 51 % 95 % 1007,8 hPa 0,0 l/m 1,6 km/h (1 Bft) W-SW 247 0 min 0,000 mm 0,0 UV-I 5 W/m -1,0 C -0,3 C 3,2 km/h (1 Bft) 100,00 %
02.12.2023 14:37 23,4 C -0,3 C 51 % 95 % 1007,8 hPa 0,0 l/m 1,6 km/h (1 Bft) W-SW 247 0 min 0,000 mm 0,0 UV-I 5 W/m -1,0 C -0,3 C 3,2 km/h (1 Bft) 95,65 %
02.12.2023 14:36 23,5 C -0,3 C 51 % 95 % 1007,7 hPa 0,0 l/m 1,6 km/h (1 Bft) W-SW 247 0 min 0,000 mm 0,0 UV-I 7 W/m -1,0 C -0,3 C 4,8 km/h (1 Bft) 91,30 %
02.12.2023 14:35 23,5 C -0,3 C 51 % 95 % 1007,8 hPa 0,0 l/m 1,6 km/h (1 Bft) W-SW 247 0 min 0,000 mm 0,0 UV-I 7 W/m -1,0 C -0,3 C 3,2 km/h (1 Bft) 100,00 %
02.12.2023 14:34 23,5 C -0,2 C 51 % 95 % 1007,8 hPa 0,0 l/m 1,6 km/h (1 Bft) W-SW 247 0 min 0,000 mm 0,0 UV-I 7 W/m -0,9 C -0,2 C 4,8 km/h (1 Bft) 95,65 %
02.12.2023 14:33 23,4 C -0,2 C 51 % 95 % 1007,8 hPa 0,0 l/m 3,2 km/h (1 Bft) W-SW 247 0 min 0,000 mm 0,0 UV-I 7 W/m -0,9 C -0,2 C 4,8 km/h (1 Bft) 100,00 %
02.12.2023 14:32 23,4 C -0,2 C 51 % 95 % 1007,8 hPa 0,0 l/m 1,6 km/h (1 Bft) W-SW 247 0 min 0,000 mm 0,0 UV-I 5 W/m -0,9 C -0,2 C 3,2 km/h (1 Bft) 95,65 %
02.12.2023 14:31 23,4 C -0,1 C 51 % 95 % 1007,7 hPa 0,0 l/m 1,6 km/h (1 Bft) W-SW 247 0 min 0,000 mm 0,0 UV-I 5 W/m -0,8 C -0,1 C 3,2 km/h (1 Bft) 95,65 %
02.12.2023 14:30 23,4 C 0,1 C 51 % 95 % 1007,8 hPa 0,0 l/m 3,2 km/h (1 Bft) W-SW 247 0 min 0,000 mm 0,0 UV-I 7 W/m -0,6 C 0,1 C 3,2 km/h (1 Bft) 100,00 %
02.12.2023 14:29 23,4 C 0,2 C 51 % 96 % 1007,7 hPa 0,0 l/m 1,6 km/h (1 Bft) W-SW 247 0 min 0,000 mm 0,0 UV-I 7 W/m -0,4 C 0,2 C 3,2 km/h (1 Bft) 91,30 %
02.12.2023 14:28 23,4 C 0,3 C 51 % 96 % 1007,7 hPa 0,0 l/m 1,6 km/h (1 Bft) W-SW 247 0 min 0,000 mm 0,0 UV-I 7 W/m -0,3 C 0,3 C 3,2 km/h (1 Bft) 100,00 %
02.12.2023 14:27 23,4 C 0,3 C 51 % 96 % 1007,8 hPa 0,0 l/m 1,6 km/h (1 Bft) W-SW 247 0 min 0,000 mm 0,0 UV-I 7 W/m -0,3 C 0,3 C 3,2 km/h (1 Bft) 100,00 %
02.12.2023 14:26 23,4 C 0,2 C 51 % 96 % 1007,6 hPa 0,0 l/m 1,6 km/h (1 Bft) W-SW 247 0 min 0,000 mm 0,0 UV-I 7 W/m -0,4 C 0,2 C 3,2 km/h (1 Bft) 100,00 %
02.12.2023 14:25 23,4 C 0,1 C 51 % 96 % 1007,6 hPa 0,0 l/m 0,0 km/h (0 Bft) W-SW 247 0 min 0,000 mm 0,0 UV-I 7 W/m -0,5 C 0,1 C 1,6 km/h (1 Bft) 100,00 %
02.12.2023 14:24 23,4 C 0,1 C 51 % 96 % 1007,6 hPa 0,0 l/m 0,0 km/h (0 Bft) W-SW 247 0 min 0,000 mm 0,0 UV-I 7 W/m -0,5 C 0,1 C 1,6 km/h (1 Bft) 95,65 %
02.12.2023 14:23 23,4 C 0,0 C 51 % 96 % 1007,6 hPa 0,0 l/m 0,0 km/h (0 Bft) W-SW 247 0 min 0,000 mm 0,0 UV-I 7 W/m -0,6 C 0,0 C 1,6 km/h (1 Bft) 95,65 %
02.12.2023 14:22 23,4 C 0,0 C 51 % 96 % 1007,5 hPa 0,0 l/m 0,0 km/h (0 Bft) W-SW 247 0 min 0,000 mm 0,0 UV-I 7 W/m -0,6 C 0,0 C 1,6 km/h (1 Bft) 78,26 %
02.12.2023 14:21 23,4 C -0,1 C 51 % 96 % 1007,6 hPa 0,0 l/m 1,6 km/h (1 Bft) W-SW 247 0 min 0,000 mm 0,0 UV-I 7 W/m -0,7 C -0,1 C 3,2 km/h (1 Bft) 86,96 %
02.12.2023 14:20 23,4 C -0,2 C 50 % 95 % 1007,6 hPa 0,0 l/m 0,0 km/h (0 Bft) W-SW 247 0 min 0,000 mm 0,0 UV-I 7 W/m -0,9 C -0,2 C 1,6 km/h (1 Bft) 65,22 %
02.12.2023 14:19 23,4 C -0,2 C 50 % 95 % 1007,6 hPa 0,0 l/m 1,6 km/h (1 Bft) W-SW 247 0 min 0,000 mm 0,0 UV-I 7 W/m -0,9 C -0,2 C 3,2 km/h (1 Bft) 100,00 %
02.12.2023 14:18 23,4 C -0,2 C 50 % 95 % 1007,6 hPa 0,0 l/m 0,0 km/h (0 Bft) W-SW 247 0 min 0,000 mm 0,0 UV-I 7 W/m -0,9 C -0,2 C 1,6 km/h (1 Bft) 95,65 %
02.12.2023 14:17 23,4 C -0,2 C 50 % 95 % 1007,5 hPa 0,0 l/m 0,0 km/h (0 Bft) W-SW 247 0 min 0,000 mm 0,0 UV-I 7 W/m -0,9 C -0,2 C 1,6 km/h (1 Bft) 95,65 %
02.12.2023 14:16 23,4 C -0,2 C 50 % 96 % 1007,5 hPa 0,0 l/m 0,0 km/h (0 Bft) N 0 0 min 0,000 mm 0,0 UV-I 7 W/m -0,8 C -0,2 C 0,0 km/h (0 Bft) 82,61 %
02.12.2023 14:15 23,4 C -0,2 C 50 % 95 % 1007,4 hPa 0,0 l/m 0,0 km/h (0 Bft) W-SW 247 0 min 0,000 mm 0,0 UV-I 7 W/m -0,9 C -0,2 C 3,2 km/h (1 Bft) 91,30 %
02.12.2023 14:14 23,4 C -0,2 C 50 % 96 % 1007,4 hPa 0,0 l/m 3,2 km/h (1 Bft) W-SW 247 0 min 0,000 mm 0,0 UV-I 7 W/m -0,8 C -0,2 C 6,4 km/h (2 Bft) 82,61 %
02.12.2023 14:13 23,4 C -0,3 C 50 % 95 % 1007,4 hPa 0,0 l/m 1,6 km/h (1 Bft) W-SW 247 0 min 0,000 mm 0,0 UV-I 7 W/m -1,0 C -0,3 C 3,2 km/h (1 Bft) 95,65 %
02.12.2023 14:12 23,4 C -0,3 C 50 % 95 % 1007,3 hPa 0,0 l/m 1,6 km/h (1 Bft) W-SW 247 0 min 0,000 mm 0,0 UV-I 7 W/m -1,0 C -0,3 C 1,6 km/h (1 Bft) 95,65 %
02.12.2023 14:11 23,3 C -0,3 C 50 % 95 % 1007,4 hPa 0,0 l/m 0,0 km/h (0 Bft) W-SW 247 0 min 0,000 mm 0,0 UV-I 7 W/m -1,0 C -0,3 C 3,2 km/h (1 Bft) 82,61 %
02.12.2023 14:10 23,3 C -0,3 C 50 % 95 % 1007,3 hPa 0,0 l/m 0,0 km/h (0 Bft) N 0 0 min 0,000 mm 0,0 UV-I 7 W/m -1,0 C -0,3 C 0,0 km/h (0 Bft) 95,65 %
02.12.2023 14:09 23,3 C -0,3 C 50 % 95 % 1007,3 hPa 0,0 l/m 1,6 km/h (1 Bft) W-SW 247 0 min 0,000 mm 0,0 UV-I 7 W/m -1,0 C -0,3 C 3,2 km/h (1 Bft) 95,65 %
02.12.2023 14:08 23,3 C -0,3 C 50 % 95 % 1007,2 hPa 0,0 l/m 1,6 km/h (1 Bft) S-SW 202 0 min 0,000 mm 0,0 UV-I 9 W/m -1,0 C -0,3 C 4,8 km/h (1 Bft) 86,96 %
02.12.2023 14:07 23,3 C -0,3 C 50 % 95 % 1007,2 hPa 0,0 l/m 0,0 km/h (0 Bft) SW 225 0 min 0,000 mm 0,0 UV-I 9 W/m -1,0 C -0,3 C 1,6 km/h (1 Bft) 100,00 %
02.12.2023 14:06 23,3 C -0,4 C 50 % 95 % 1007,1 hPa 0,0 l/m 1,6 km/h (1 Bft) SW 225 0 min 0,000 mm 0,0 UV-I 9 W/m -1,1 C -0,4 C 3,2 km/h (1 Bft) 95,65 %
02.12.2023 14:05 23,3 C -0,4 C 50 % 95 % 1007,1 hPa 0,0 l/m 1,6 km/h (1 Bft) SW 225 0 min 0,000 mm 0,0 UV-I 9 W/m -1,1 C -0,4 C 3,2 km/h (1 Bft) 91,30 %
02.12.2023 14:04 23,3 C -0,3 C 49 % 95 % 1007,1 hPa 0,0 l/m 1,6 km/h (1 Bft) SW 225 0 min 0,000 mm 0,0 UV-I 9 W/m -1,0 C -0,3 C 3,2 km/h (1 Bft) 91,30 %
02.12.2023 14:03 23,3 C -0,3 C 49 % 95 % 1007,1 hPa 0,0 l/m 1,6 km/h (1 Bft) SW 225 0 min 0,000 mm 0,0 UV-I 9 W/m -1,0 C -0,3 C 4,8 km/h (1 Bft) 95,65 %
02.12.2023 14:02 23,3 C -0,3 C 49 % 95 % 1007,1 hPa 0,0 l/m 1,6 km/h (1 Bft) SW 225 0 min 0,000 mm 0,0 UV-I 9 W/m -1,0 C -0,3 C 1,6 km/h (1 Bft) 91,30 %
02.12.2023 14:01 23,3 C -0,3 C 49 % 95 % 1006,9 hPa 0,0 l/m 3,2 km/h (1 Bft) SW 225 0 min 0,000 mm 0,0 UV-I 9 W/m -1,0 C -0,3 C 4,8 km/h (1 Bft) 91,30 %
02.12.2023 14:00 23,3 C -0,2 C 49 % 95 % 1006,9 hPa 0,0 l/m 1,6 km/h (1 Bft) W-SW 247 0 min 0,000 mm 0,0 UV-I 9 W/m -0,9 C -0,2 C 1,6 km/h (1 Bft) 100,00 %
02.12.2023 13:59 23,3 C -0,2 C 49 % 95 % 1006,8 hPa 0,0 l/m 1,6 km/h (1 Bft) W-SW 247 0 min 0,000 mm 0,0 UV-I 9 W/m -0,9 C -0,2 C 3,2 km/h (1 Bft) 86,96 %
02.12.2023 13:58 23,3 C -0,2 C 49 % 95 % 1006,7 hPa 0,0 l/m 1,6 km/h (1 Bft) W-SW 247 0 min 0,000 mm 0,0 UV-I 9 W/m -0,9 C -0,2 C 1,6 km/h (1 Bft) 100,00 %
02.12.2023 13:57 23,3 C -0,2 C 49 % 95 % 1006,7 hPa 0,0 l/m 1,6 km/h (1 Bft) W-SW 247 0 min 0,000 mm 0,0 UV-I 9 W/m -0,9 C -0,2 C 3,2 km/h (1 Bft) 95,65 %
02.12.2023 13:56 23,3 C -0,2 C 49 % 95 % 1006,6 hPa 0,0 l/m 1,6 km/h (1 Bft) W-SW 247 0 min 0,000 mm 0,0 UV-I 7 W/m -0,9 C -0,2 C 3,2 km/h (1 Bft) 86,96 %
02.12.2023 13:55 23,2 C -0,1 C 49 % 95 % 1006,7 hPa 0,0 l/m 0,0 km/h (0 Bft) W-SW 247 0 min 0,000 mm 0,0 UV-I 7 W/m -0,8 C -0,1 C 1,6 km/h (1 Bft) 100,00 %
02.12.2023 13:54 23,3 C -0,1 C 49 % 95 % 1006,6 hPa 0,0 l/m 0,0 km/h (0 Bft) N 0 0 min 0,000 mm 0,0 UV-I 7 W/m -0,8 C -0,1 C 0,0 km/h (0 Bft) 82,61 %
02.12.2023 13:53 23,3 C -0,1 C 49 % 95 % 1006,7 hPa 0,0 l/m 0,0 km/h (0 Bft) N 0 0 min 0,000 mm 0,0 UV-I 7 W/m -0,8 C -0,1 C 0,0 km/h (0 Bft) 95,65 %
02.12.2023 13:52 23,2 C -0,1 C 49 % 96 % 1006,7 hPa 0,0 l/m 1,6 km/h (1 Bft) W-SW 247 0 min 0,000 mm 0,0 UV-I 7 W/m -0,7 C -0,1 C 3,2 km/h (1 Bft) 69,57 %
02.12.2023 13:51 23,2 C 0,0 C 49 % 96 % 1006,7 hPa 0,0 l/m 1,6 km/h (1 Bft) W-SW 247 0 min 0,000 mm 0,0 UV-I 9 W/m -0,6 C 0,0 C 3,2 km/h (1 Bft) 86,96 %
02.12.2023 13:50 23,2 C 0,1 C 49 % 96 % 1006,7 hPa 0,0 l/m 0,0 km/h (0 Bft) W-SW 247 0 min 0,000 mm 0,0 UV-I 9 W/m -0,5 C 0,1 C 1,6 km/h (1 Bft) 100,00 %
02.12.2023 13:49 23,2 C 0,1 C 49 % 96 % 1006,7 hPa 0,0 l/m 0,0 km/h (0 Bft) W-SW 247 0 min 0,000 mm 0,0 UV-I 9 W/m -0,5 C 0,1 C 1,6 km/h (1 Bft) 91,30 %
02.12.2023 13:48 23,2 C 0,1 C 49 % 96 % 1006,7 hPa 0,0 l/m 0,0 km/h (0 Bft) W-SW 247 0 min 0,000 mm 0,0 UV-I 9 W/m -0,5 C 0,1 C 1,6 km/h (1 Bft) 86,96 %
02.12.2023 13:47 23,2 C 0,1 C 48 % 96 % 1006,7 hPa 0,0 l/m 0,0 km/h (0 Bft) W-SW 247 0 min 0,000 mm 0,0 UV-I 11 W/m -0,5 C 0,1 C 1,6 km/h (1 Bft) 91,30 %
02.12.2023 13:46 23,2 C 0,1 C 48 % 96 % 1006,7 hPa 0,0 l/m 0,0 km/h (0 Bft) W-SW 247 0 min 0,000 mm 0,0 UV-I 11 W/m -0,5 C 0,1 C 1,6 km/h (1 Bft) 95,65 %
02.12.2023 13:45 23,2 C 0,1 C 48 % 96 % 1006,6 hPa 0,0 l/m 0,0 km/h (0 Bft) W-SW 247 0 min 0,000 mm 0,0 UV-I 11 W/m -0,5 C 0,1 C 1,6 km/h (1 Bft) 91,30 %
02.12.2023 13:44 23,2 C 0,0 C 48 % 96 % 1006,6 hPa 0,0 l/m 0,0 km/h (0 Bft) W-SW 247 0 min 0,000 mm 0,0 UV-I 11 W/m -0,6 C 0,0 C 1,6 km/h (1 Bft) 95,65 %
02.12.2023 13:43 23,2 C 0,0 C 48 % 96 % 1006,6 hPa 0,0 l/m 1,6 km/h (1 Bft) W-SW 247 0 min 0,000 mm 0,0 UV-I 11 W/m -0,6 C 0,0 C 3,2 km/h (1 Bft) 100,00 %
02.12.2023 13:42 23,2 C -0,1 C 48 % 96 % 1006,6 hPa 0,0 l/m 1,6 km/h (1 Bft) W-SW 247 0 min 0,000 mm 0,0 UV-I 11 W/m -0,7 C -0,1 C 1,6 km/h (1 Bft) 95,65 %
02.12.2023 13:41 23,2 C -0,1 C 48 % 96 % 1006,6 hPa 0,0 l/m 0,0 km/h (0 Bft) W-SW 247 0 min 0,000 mm 0,0 UV-I 11 W/m -0,7 C -0,1 C 1,6 km/h (1 Bft) 95,65 %
02.12.2023 13:40 23,2 C -0,2 C 48 % 95 % 1006,7 hPa 0,0 l/m 1,6 km/h (1 Bft) W-SW 247 0 min 0,000 mm 0,0 UV-I 9 W/m -0,9 C -0,2 C 1,6 km/h (1 Bft) 86,96 %
02.12.2023 13:39 23,1 C -0,2 C 48 % 95 % 1006,7 hPa 0,0 l/m 1,6 km/h (1 Bft) W-SW 247 0 min 0,000 mm 0,0 UV-I 9 W/m -0,9 C -0,2 C 1,6 km/h (1 Bft) 95,65 %
02.12.2023 13:38 23,1 C -0,2 C 48 % 95 % 1006,7 hPa 0,0 l/m 1,6 km/h (1 Bft) W-SW 247 0 min 0,000 mm 0,0 UV-I 9 W/m -0,9 C -0,2 C 1,6 km/h (1 Bft) 86,96 %
02.12.2023 13:37 23,1 C -0,2 C 48 % 95 % 1006,7 hPa 0,0 l/m 1,6 km/h (1 Bft) W-SW 247 0 min 0,000 mm 0,0 UV-I 9 W/m -0,9 C -0,2 C 3,2 km/h (1 Bft) 100,00 %
02.12.2023 13:36 23,1 C -0,2 C 48 % 95 % 1006,7 hPa 0,0 l/m 1,6 km/h (1 Bft) W-SW 247 0 min 0,000 mm 0,0 UV-I 9 W/m -0,9 C -0,2 C 1,6 km/h (1 Bft) 100,00 %
02.12.2023 13:35 23,1 C -0,1 C 48 % 95 % 1006,7 hPa 0,0 l/m 0,0 km/h (0 Bft) W-SW 247 0 min 0,000 mm 0,0 UV-I 11 W/m -0,8 C -0,1 C 1,6 km/h (1 Bft) 100,00 %
02.12.2023 13:34 23,1 C -0,1 C 47 % 95 % 1006,7 hPa 0,0 l/m 1,6 km/h (1 Bft) W-SW 247 0 min 0,000 mm 0,0 UV-I 11 W/m -0,8 C -0,1 C 3,2 km/h (1 Bft) 100,00 %
02.12.2023 13:33 23,1 C -0,1 C 47 % 96 % 1006,7 hPa 0,0 l/m 1,6 km/h (1 Bft) W-SW 247 0 min 0,000 mm 0,0 UV-I 11 W/m -0,7 C -0,1 C 3,2 km/h (1 Bft) 78,26 %
02.12.2023 13:32 23,1 C 0,0 C 47 % 96 % 1006,6 hPa 0,0 l/m 0,0 km/h (0 Bft) N 0 0 min 0,000 mm 0,0 UV-I 11 W/m -0,6 C 0,0 C 0,0 km/h (0 Bft) 100,00 %
02.12.2023 13:31 23,0 C 0,1 C 47 % 96 % 1006,7 hPa 0,0 l/m 0,0 km/h (0 Bft) N 0 0 min 0,000 mm 0,0 UV-I 9 W/m -0,5 C 0,1 C 0,0 km/h (0 Bft) 100,00 %
02.12.2023 13:30 23,0 C 0,1 C 47 % 96 % 1006,8 hPa 0,0 l/m 0,0 km/h (0 Bft) N 0 0 min 0,000 mm 0,0 UV-I 9 W/m -0,5 C 0,1 C 0,0 km/h (0 Bft) 86,96 %
02.12.2023 13:29 23,0 C 0,1 C 47 % 96 % 1006,7 hPa 0,0 l/m 0,0 km/h (0 Bft) N 0 0 min 0,000 mm 0,0 UV-I 9 W/m -0,5 C 0,1 C 0,0 km/h (0 Bft) 100,00 %
02.12.2023 13:28 22,9 C 0,1 C 47 % 96 % 1006,7 hPa 0,0 l/m 0,0 km/h (0 Bft) N 0 0 min 0,000 mm 0,0 UV-I 9 W/m -0,5 C 0,1 C 0,0 km/h (0 Bft) 78,26 %
02.12.2023 13:27 22,9 C 0,0 C 47 % 96 % 1006,7 hPa 0,0 l/m 0,0 km/h (0 Bft) N 0 0 min 0,000 mm 0,0 UV-I 9 W/m -0,6 C 0,0 C 0,0 km/h (0 Bft) 95,65 %
02.12.2023 13:26 22,9 C 0,0 C 47 % 96 % 1006,6 hPa 0,0 l/m 0,0 km/h (0 Bft) N 0 0 min 0,000 mm 0,0 UV-I 9 W/m -0,6 C 0,0 C 0,0 km/h (0 Bft) 91,30 %
02.12.2023 13:25 22,9 C 0,0 C 47 % 96 % 1006,7 hPa 0,0 l/m 0,0 km/h (0 Bft) N 0 0 min 0,000 mm 0,0 UV-I 9 W/m -0,6 C 0,0 C 0,0 km/h (0 Bft) 91,30 %
02.12.2023 13:24 22,9 C -0,1 C 47 % 96 % 1006,7 hPa 0,0 l/m 0,0 km/h (0 Bft) N 0 0 min 0,000 mm 0,0 UV-I 9 W/m -0,7 C -0,1 C 0,0 km/h (0 Bft) 100,00 %
02.12.2023 13:23 22,9 C -0,1 C 47 % 96 % 1006,6 hPa 0,0 l/m 0,0 km/h (0 Bft) N 0 0 min 0,000 mm 0,0 UV-I 7 W/m -0,7 C -0,1 C 0,0 km/h (0 Bft) 91,30 %
02.12.2023 13:22 22,8 C -0,1 C 46 % 96 % 1006,6 hPa 0,0 l/m 0,0 km/h (0 Bft) N 0 0 min 0,000 mm 0,0 UV-I 9 W/m -0,7 C -0,1 C 0,0 km/h (0 Bft) 100,00 %
02.12.2023 13:21 22,8 C -0,2 C 46 % 96 % 1006,6 hPa 0,0 l/m 0,0 km/h (0 Bft) N 0 0 min 0,000 mm 0,0 UV-I 9 W/m -0,8 C -0,2 C 0,0 km/h (0 Bft) 95,65 %
02.12.2023 13:20 22,8 C -0,3 C 46 % 96 % 1006,5 hPa 0,0 l/m 0,0 km/h (0 Bft) N 0 0 min 0,000 mm 0,0 UV-I 9 W/m -0,9 C -0,3 C 0,0 km/h (0 Bft) 95,65 %
02.12.2023 13:19 22,8 C -0,2 C 46 % 96 % 1006,5 hPa 0,0 l/m 0,0 km/h (0 Bft) N 0 0 min 0,000 mm 0,0 UV-I 9 W/m -0,8 C -0,2 C 0,0 km/h (0 Bft) 91,30 %
02.12.2023 13:18 22,8 C -0,2 C 46 % 95 % 1006,5 hPa 0,0 l/m 0,0 km/h (0 Bft) N 0 0 min 0,000 mm 0,0 UV-I 9 W/m -0,9 C -0,2 C 0,0 km/h (0 Bft) 91,30 %
02.12.2023 13:17 22,7 C -0,2 C 46 % 96 % 1006,5 hPa 0,0 l/m 0,0 km/h (0 Bft) N 0 0 min 0,000 mm 0,0 UV-I 9 W/m -0,8 C -0,2 C 0,0 km/h (0 Bft) 100,00 %
02.12.2023 13:16 22,7 C -0,2 C 46 % 95 % 1006,5 hPa 0,0 l/m 0,0 km/h (0 Bft) N 0 0 min 0,000 mm 0,0 UV-I 9 W/m -0,9 C -0,2 C 0,0 km/h (0 Bft) 95,65 %
02.12.2023 13:15 22,7 C -0,1 C 45 % 96 % 1006,4 hPa 0,0 l/m 0,0 km/h (0 Bft) N 0 0 min 0,000 mm 0,0 UV-I 9 W/m -0,7 C -0,1 C 0,0 km/h (0 Bft) 100,00 %
02.12.2023 13:14 22,7 C -0,1 C 45 % 96 % 1006,4 hPa 0,0 l/m 0,0 km/h (0 Bft) N 0 0 min 0,000 mm 0,0 UV-I 9 W/m -0,7 C -0,1 C 0,0 km/h (0 Bft) 95,65 %
02.12.2023 13:13 22,7 C -0,1 C 45 % 96 % 1006,4 hPa 0,0 l/m 0,0 km/h (0 Bft) N 0 0 min 0,000 mm 0,0 UV-I 9 W/m -0,7 C -0,1 C 0,0 km/h (0 Bft) 95,65 %
02.12.2023 13:12 22,7 C -0,1 C 44 % 96 % 1006,5 hPa 0,0 l/m 0,0 km/h (0 Bft) N 0 0 min 0,000 mm 0,0 UV-I 9 W/m -0,7 C -0,1 C 0,0 km/h (0 Bft) 91,30 %
02.12.2023 13:11 22,7 C 0,0 C 44 % 96 % 1006,5 hPa 0,0 l/m 0,0 km/h (0 Bft) N 0 0 min 0,000 mm 0,0 UV-I 9 W/m -0,6 C 0,0 C 0,0 km/h (0 Bft) 91,30 %
02.12.2023 13:10 22,7 C 0,0 C 43 % 96 % 1006,4 hPa 0,0 l/m 0,0 km/h (0 Bft) N 0 0 min 0,000 mm 0,0 UV-I 9 W/m -0,6 C 0,0 C 0,0 km/h (0 Bft) 86,96 %
02.12.2023 13:09 22,7 C 0,1 C 43 % 96 % 1006,5 hPa 0,0 l/m 0,0 km/h (0 Bft) NW 315 0 min 0,000 mm 0,0 UV-I 9 W/m -0,5 C 0,1 C 1,6 km/h (1 Bft) 100,00 %
02.12.2023 13:08 22,7 C 0,1 C 42 % 96 % 1006,5 hPa 0,0 l/m 0,0 km/h (0 Bft) N 0 0 min 0,000 mm 0,0 UV-I 9 W/m -0,5 C 0,1 C 0,0 km/h (0 Bft) 100,00 %
02.12.2023 13:07 22,7 C 0,0 C 41 % 96 % 1006,5 hPa 0,0 l/m 0,0 km/h (0 Bft) N 0 0 min 0,000 mm 0,0 UV-I 9 W/m -0,6 C 0,0 C 0,0 km/h (0 Bft) 100,00 %
02.12.2023 13:06 22,8 C 0,0 C 40 % 96 % 1006,5 hPa 0,0 l/m 0,0 km/h (0 Bft) NW 315 0 min 0,000 mm 0,0 UV-I 9 W/m -0,6 C 0,0 C 1,6 km/h (1 Bft) 100,00 %
02.12.2023 13:05 22,9 C 0,0 C 39 % 96 % 1006,5 hPa 0,0 l/m 0,0 km/h (0 Bft) NW 315 0 min 0,000 mm 0,0 UV-I 9 W/m -0,6 C 0,0 C 1,6 km/h (1 Bft) 91,30 %
02.12.2023 13:04 23,1 C 0,0 C 38 % 96 % 1006,6 hPa 0,0 l/m 0,0 km/h (0 Bft) NW 315 0 min 0,000 mm 0,0 UV-I 9 W/m -0,6 C 0,0 C 1,6 km/h (1 Bft) 95,65 %
02.12.2023 13:03 23,2 C 0,0 C 39 % 96 % 1006,4 hPa 0,0 l/m 0,0 km/h (0 Bft) NW 315 0 min 0,000 mm 0,0 UV-I 9 W/m -0,6 C 0,0 C 1,6 km/h (1 Bft) 100,00 %
02.12.2023 13:02 23,4 C -0,1 C 40 % 96 % 1006,4 hPa 0,0 l/m 0,0 km/h (0 Bft) N 0 0 min 0,000 mm 0,0 UV-I 9 W/m -0,7 C -0,1 C 0,0 km/h (0 Bft) 91,30 %
02.12.2023 13:01 23,6 C -0,2 C 42 % 96 % 1006,4 hPa 0,0 l/m 0,0 km/h (0 Bft) N 0 0 min 0,000 mm 0,0 UV-I 9 W/m -0,8 C -0,2 C 0,0 km/h (0 Bft) 69,57 %
02.12.2023 13:00 23,7 C -0,2 C 45 % 96 % 1006,4 hPa 0,0 l/m 0,0 km/h (0 Bft) NW 315 0 min 0,000 mm 0,0 UV-I 9 W/m -0,8 C -0,2 C 1,6 km/h (1 Bft) 95,65 %
02.12.2023 12:59 23,8 C -0,3 C 52 % 96 % 1006,4 hPa 0,0 l/m 0,0 km/h (0 Bft) NW 315 0 min 0,000 mm 0,0 UV-I 9 W/m -0,9 C -0,3 C 1,6 km/h (1 Bft) 95,65 %
02.12.2023 12:58 23,9 C -0,3 C 57 % 96 % 1006,3 hPa 0,0 l/m 0,0 km/h (0 Bft) NW 315 0 min 0,000 mm 0,0 UV-I 11 W/m -0,9 C -0,3 C 1,6 km/h (1 Bft) 95,65 %
02.12.2023 12:57 23,9 C -0,3 C 57 % 96 % 1006,3 hPa 0,0 l/m 0,0 km/h (0 Bft) NW 315 0 min 0,000 mm 0,0 UV-I 11 W/m -0,9 C -0,3 C 1,6 km/h (1 Bft) 91,30 %
02.12.2023 12:56 23,9 C -0,3 C 57 % 96 % 1006,3 hPa 0,0 l/m 0,0 km/h (0 Bft) NW 315 0 min 0,000 mm 0,0 UV-I 11 W/m -0,9 C -0,3 C 1,6 km/h (1 Bft) 100,00 %
02.12.2023 12:55 23,9 C -0,3 C 57 % 96 % 1006,4 hPa 0,0 l/m 0,0 km/h (0 Bft) NW 315 0 min 0,000 mm 0,0 UV-I 11 W/m -0,9 C -0,3 C 1,6 km/h (1 Bft) 95,65 %
02.12.2023 12:54 23,9 C -0,3 C 57 % 95 % 1006,4 hPa 0,0 l/m 1,6 km/h (1 Bft) NW 315 0 min 0,000 mm 0,0 UV-I 11 W/m -1,0 C -0,3 C 1,6 km/h (1 Bft) 100,00 %
02.12.2023 12:53 23,8 C -0,2 C 56 % 96 % 1006,4 hPa 0,0 l/m 0,0 km/h (0 Bft) NW 315 0 min 0,000 mm 0,0 UV-I 11 W/m -0,8 C -0,2 C 1,6 km/h (1 Bft) 95,65 %
02.12.2023 12:52 23,9 C -0,2 C 57 % 96 % 1006,5 hPa 0,0 l/m 0,0 km/h (0 Bft) N 0 0 min 0,000 mm 0,0 UV-I 11 W/m -0,8 C -0,2 C 0,0 km/h (0 Bft) 95,65 %
02.12.2023 12:51 23,9 C -0,1 C 57 % 96 % 1006,5 hPa 0,0 l/m 0,0 km/h (0 Bft) N 0 0 min 0,000 mm 0,0 UV-I 9 W/m -0,7 C -0,1 C 0,0 km/h (0 Bft) 95,65 %
02.12.2023 12:50 23,9 C -0,1 C 56 % 96 % 1006,4 hPa 0,0 l/m 0,0 km/h (0 Bft) NW 315 0 min 0,000 mm 0,0 UV-I 9 W/m -0,7 C -0,1 C 1,6 km/h (1 Bft) 95,65 %
02.12.2023 12:49 23,9 C 0,0 C 56 % 96 % 1006,5 hPa 0,0 l/m 0,0 km/h (0 Bft) NW 315 0 min 0,000 mm 0,0 UV-I 9 W/m -0,6 C 0,0 C 1,6 km/h (1 Bft) 100,00 %
02.12.2023 12:48 23,9 C 0,0 C 56 % 96 % 1006,5 hPa 0,0 l/m 0,0 km/h (0 Bft) NW 315 0 min 0,000 mm 0,0 UV-I 9 W/m -0,6 C 0,0 C 1,6 km/h (1 Bft) 95,65 %
02.12.2023 12:47 23,9 C -0,1 C 56 % 96 % 1006,5 hPa 0,0 l/m 0,0 km/h (0 Bft) N 0 0 min 0,000 mm 0,0 UV-I 9 W/m -0,7 C -0,1 C 0,0 km/h (0 Bft) 100,00 %
02.12.2023 12:46 23,8 C -0,1 C 56 % 96 % 1006,5 hPa 0,0 l/m 0,0 km/h (0 Bft) N 0 0 min 0,000 mm 0,0 UV-I 9 W/m -0,7 C -0,1 C 0,0 km/h (0 Bft) 95,65 %
02.12.2023 12:45 23,9 C -0,1 C 56 % 96 % 1006,5 hPa 0,0 l/m 0,0 km/h (0 Bft) N 0 0 min 0,000 mm 0,0 UV-I 9 W/m -0,7 C -0,1 C 0,0 km/h (0 Bft) 95,65 %
02.12.2023 12:44 23,9 C -0,1 C 56 % 96 % 1006,5 hPa 0,0 l/m 0,0 km/h (0 Bft) N 0 0 min 0,000 mm 0,0 UV-I 9 W/m -0,7 C -0,1 C 0,0 km/h (0 Bft) 78,26 %
02.12.2023 12:43 23,9 C -0,1 C 56 % 96 % 1006,4 hPa 0,0 l/m 0,0 km/h (0 Bft) N 0 0 min 0,000 mm 0,0 UV-I 9 W/m -0,7 C -0,1 C 0,0 km/h (0 Bft) 100,00 %
02.12.2023 12:42 23,9 C -0,2 C 56 % 96 % 1006,4 hPa 0,0 l/m 0,0 km/h (0 Bft) NW 315 0 min 0,000 mm 0,0 UV-I 9 W/m -0,8 C -0,2 C 1,6 km/h (1 Bft) 100,00 %
02.12.2023 12:41 23,9 C -0,2 C 56 % 96 % 1006,3 hPa 0,0 l/m 1,6 km/h (1 Bft) NW 315 0 min 0,000 mm 0,0 UV-I 9 W/m -0,8 C -0,2 C 3,2 km/h (1 Bft) 82,61 %
02.12.2023 12:40 23,9 C -0,3 C 56 % 96 % 1006,4 hPa 0,0 l/m 0,0 km/h (0 Bft) NW 315 0 min 0,000 mm 0,0 UV-I 9 W/m -0,9 C -0,3 C 1,6 km/h (1 Bft) 91,30 %
02.12.2023 12:39 23,9 C -0,3 C 56 % 96 % 1006,5 hPa 0,0 l/m 1,6 km/h (1 Bft) NW 315 0 min 0,000 mm 0,0 UV-I 9 W/m -0,9 C -0,3 C 1,6 km/h (1 Bft) 82,61 %
02.12.2023 12:38 23,9 C -0,3 C 56 % 96 % 1006,5 hPa 0,0 l/m 1,6 km/h (1 Bft) NW 315 0 min 0,000 mm 0,0 UV-I 9 W/m -0,9 C -0,3 C 1,6 km/h (1 Bft) 100,00 %
02.12.2023 12:37 23,9 C -0,3 C 56 % 95 % 1006,5 hPa 0,0 l/m 1,6 km/h (1 Bft) NW 315 0 min 0,000 mm 0,0 UV-I 9 W/m -1,0 C -0,3 C 1,6 km/h (1 Bft) 95,65 %
02.12.2023 12:36 23,9 C -0,2 C 56 % 96 % 1006,5 hPa 0,0 l/m 0,0 km/h (0 Bft) NW 315 0 min 0,000 mm 0,0 UV-I 9 W/m -0,8 C -0,2 C 1,6 km/h (1 Bft) 95,65 %
02.12.2023 12:35 23,9 C -0,3 C 56 % 96 % 1006,6 hPa 0,0 l/m 0,0 km/h (0 Bft) NW 315 0 min 0,000 mm 0,0 UV-I 9 W/m -0,9 C -0,3 C 1,6 km/h (1 Bft) 100,00 %
02.12.2023 12:34 23,9 C -0,2 C 56 % 95 % 1006,6 hPa 0,0 l/m 0,0 km/h (0 Bft) NW 315 0 min 0,000 mm 0,0 UV-I 9 W/m -0,9 C -0,2 C 1,6 km/h (1 Bft) 95,65 %
02.12.2023 12:33 23,9 C -0,2 C 56 % 95 % 1006,6 hPa 0,0 l/m 0,0 km/h (0 Bft) NW 315 0 min 0,000 mm 0,0 UV-I 9 W/m -0,9 C -0,2 C 1,6 km/h (1 Bft) 95,65 %
02.12.2023 12:32 23,9 C -0,2 C 56 % 95 % 1006,5 hPa 0,0 l/m 0,0 km/h (0 Bft) NW 315 0 min 0,000 mm 0,0 UV-I 9 W/m -0,9 C -0,2 C 1,6 km/h (1 Bft) 91,30 %
02.12.2023 12:31 23,9 C -0,1 C 56 % 95 % 1006,5 hPa 0,0 l/m 0,0 km/h (0 Bft) NW 315 0 min 0,000 mm 0,0 UV-I 9 W/m -0,8 C -0,1 C 1,6 km/h (1 Bft) 95,65 %
02.12.2023 12:30 23,9 C -0,1 C 56 % 96 % 1006,4 hPa 0,0 l/m 0,0 km/h (0 Bft) NW 315 0 min 0,000 mm 0,0 UV-I 7 W/m -0,7 C -0,1 C 1,6 km/h (1 Bft) 95,65 %
02.12.2023 12:29 23,8 C -0,1 C 56 % 96 % 1006,4 hPa 0,0 l/m 0,0 km/h (0 Bft) NW 315 0 min 0,000 mm 0,0 UV-I 7 W/m -0,7 C -0,1 C 1,6 km/h (1 Bft) 82,61 %
02.12.2023 12:28 23,9 C -0,1 C 56 % 96 % 1006,3 hPa 0,0 l/m 0,0 km/h (0 Bft) N 0 0 min 0,000 mm 0,0 UV-I 7 W/m -0,7 C -0,1 C 0,0 km/h (0 Bft) 91,30 %
02.12.2023 12:27 23,9 C -0,1 C 56 % 96 % 1006,2 hPa 0,0 l/m 0,0 km/h (0 Bft) N 0 0 min 0,000 mm 0,0 UV-I 7 W/m -0,7 C -0,1 C 0,0 km/h (0 Bft) 95,65 %
02.12.2023 12:26 23,9 C -0,1 C 56 % 96 % 1006,3 hPa 0,0 l/m 0,0 km/h (0 Bft) N 0 0 min 0,000 mm 0,0 UV-I 7 W/m -0,7 C -0,1 C 0,0 km/h (0 Bft) 95,65 %
02.12.2023 12:25 23,9 C -0,1 C 56 % 96 % 1006,2 hPa 0,0 l/m 0,0 km/h (0 Bft) N 0 0 min 0,000 mm 0,0 UV-I 9 W/m -0,7 C -0,1 C 0,0 km/h (0 Bft) 91,30 %
02.12.2023 12:24 23,9 C -0,1 C 56 % 96 % 1006,2 hPa 0,0 l/m 0,0 km/h (0 Bft) N 0 0 min 0,000 mm 0,0 UV-I 9 W/m -0,7 C -0,1 C 0,0 km/h (0 Bft) 86,96 %
02.12.2023 12:23 23,9 C -0,2 C 56 % 96 % 1006,1 hPa 0,0 l/m 0,0 km/h (0 Bft) NW 315 0 min 0,000 mm 0,0 UV-I 9 W/m -0,8 C -0,2 C 1,6 km/h (1 Bft) 95,65 %
02.12.2023 12:22 23,9 C -0,2 C 56 % 96 % 1006,1 hPa 0,0 l/m 0,0 km/h (0 Bft) N 0 0 min 0,000 mm 0,0 UV-I 9 W/m -0,8 C -0,2 C 0,0 km/h (0 Bft) 73,91 %
02.12.2023 12:21 23,9 C -0,3 C 56 % 96 % 1006,0 hPa 0,0 l/m 0,0 km/h (0 Bft) N 0 0 min 0,000 mm 0,0 UV-I 9 W/m -0,9 C -0,3 C 0,0 km/h (0 Bft) 91,30 %
02.12.2023 12:20 23,9 C -0,3 C 56 % 95 % 1005,9 hPa 0,0 l/m 0,0 km/h (0 Bft) NW 315 0 min 0,000 mm 0,0 UV-I 9 W/m -1,0 C -0,3 C 1,6 km/h (1 Bft) 82,61 %
02.12.2023 12:19 23,9 C -0,4 C 56 % 95 % 1006,0 hPa 0,0 l/m 0,0 km/h (0 Bft) NW 315 0 min 0,000 mm 0,0 UV-I 9 W/m -1,1 C -0,4 C 1,6 km/h (1 Bft) 91,30 %
02.12.2023 12:18 23,9 C -0,4 C 56 % 95 % 1006,0 hPa 0,0 l/m 0,0 km/h (0 Bft) NW 315 0 min 0,000 mm 0,0 UV-I 9 W/m -1,1 C -0,4 C 1,6 km/h (1 Bft) 100,00 %
02.12.2023 12:17 23,9 C -0,3 C 56 % 95 % 1006,0 hPa 0,0 l/m 1,6 km/h (1 Bft) NW 315 0 min 0,000 mm 0,0 UV-I 9 W/m -1,0 C -0,3 C 1,6 km/h (1 Bft) 100,00 %
02.12.2023 12:16 23,9 C -0,3 C 56 % 95 % 1006,0 hPa 0,0 l/m 0,0 km/h (0 Bft) NW 315 0 min 0,000 mm 0,0 UV-I 9 W/m -1,0 C -0,3 C 1,6 km/h (1 Bft) 91,30 %
02.12.2023 12:15 23,9 C -0,3 C 56 % 95 % 1006,0 hPa 0,0 l/m 0,0 km/h (0 Bft) NW 315 0 min 0,000 mm 0,0 UV-I 9 W/m -1,0 C -0,3 C 1,6 km/h (1 Bft) 100,00 %
02.12.2023 12:14 23,9 C -0,3 C 56 % 95 % 1005,9 hPa 0,0 l/m 0,0 km/h (0 Bft) NW 315 0 min 0,000 mm 0,0 UV-I 9 W/m -1,0 C -0,3 C 1,6 km/h (1 Bft) 100,00 %
02.12.2023 12:13 23,9 C -0,3 C 56 % 95 % 1005,8 hPa 0,0 l/m 0,0 km/h (0 Bft) NW 315 0 min 0,000 mm 0,0 UV-I 9 W/m -1,0 C -0,3 C 1,6 km/h (1 Bft) 95,65 %
02.12.2023 12:12 23,9 C -0,3 C 56 % 95 % 1005,7 hPa 0,0 l/m 0,0 km/h (0 Bft) NW 315 0 min 0,000 mm 0,0 UV-I 9 W/m -1,0 C -0,3 C 1,6 km/h (1 Bft) 91,30 %
02.12.2023 12:11 23,9 C -0,3 C 56 % 95 % 1005,5 hPa 0,0 l/m 0,0 km/h (0 Bft) NW 315 0 min 0,000 mm 0,0 UV-I 9 W/m -1,0 C -0,3 C 1,6 km/h (1 Bft) 100,00 %
02.12.2023 12:10 23,9 C -0,3 C 56 % 95 % 1005,3 hPa 0,0 l/m 0,0 km/h (0 Bft) NW 315 0 min 0,000 mm 0,0 UV-I 11 W/m -1,0 C -0,3 C 1,6 km/h (1 Bft) 91,30 %
02.12.2023 12:09 23,8 C -0,3 C 56 % 95 % 1005,2 hPa 0,0 l/m 0,0 km/h (0 Bft) NW 315 0 min 0,000 mm 0,0 UV-I 11 W/m -1,0 C -0,3 C 1,6 km/h (1 Bft) 95,65 %
02.12.2023 12:08 23,9 C -0,2 C 56 % 95 % 1005,1 hPa 0,0 l/m 0,0 km/h (0 Bft) N 0 0 min 0,000 mm 0,0 UV-I 11 W/m -0,9 C -0,2 C 0,0 km/h (0 Bft) 91,30 %
02.12.2023 12:07 23,9 C -0,1 C 56 % 95 % 1005,0 hPa 0,0 l/m 0,0 km/h (0 Bft) N 0 0 min 0,000 mm 0,0 UV-I 11 W/m -0,8 C -0,1 C 0,0 km/h (0 Bft) 78,26 %
02.12.2023 12:06 23,9 C -0,1 C 56 % 95 % 1004,9 hPa 0,0 l/m 0,0 km/h (0 Bft) N 0 0 min 0,000 mm 0,0 UV-I 11 W/m -0,8 C -0,1 C 0,0 km/h (0 Bft) 73,91 %
02.12.2023 12:05 23,9 C -0,1 C 56 % 96 % 1004,9 hPa 0,0 l/m 0,0 km/h (0 Bft) NW 315 0 min 0,000 mm 0,0 UV-I 12 W/m -0,7 C -0,1 C 1,6 km/h (1 Bft) 73,91 %
02.12.2023 12:04 23,9 C -0,1 C 56 % 95 % 1004,9 hPa 0,0 l/m 1,6 km/h (1 Bft) NW 315 0 min 0,000 mm 0,0 UV-I 12 W/m -0,8 C -0,1 C 3,2 km/h (1 Bft) 82,61 %
02.12.2023 12:03 23,9 C -0,1 C 56 % 95 % 1004,8 hPa 0,0 l/m 0,0 km/h (0 Bft) W 270 0 min 0,000 mm 0,0 UV-I 12 W/m -0,8 C -0,1 C 1,6 km/h (1 Bft) 82,61 %
02.12.2023 12:02 23,9 C -0,1 C 56 % 95 % 1004,8 hPa 0,0 l/m 0,0 km/h (0 Bft) W 270 0 min 0,000 mm 0,0 UV-I 12 W/m -0,8 C -0,1 C 1,6 km/h (1 Bft) 95,65 %
02.12.2023 12:01 23,9 C -0,1 C 56 % 96 % 1004,8 hPa 0,0 l/m 0,0 km/h (0 Bft) N 0 0 min 0,000 mm 0,0 UV-I 12 W/m -0,7 C -0,1 C 0,0 km/h (0 Bft) 95,65 %
02.12.2023 12:00 23,9 C -0,2 C 56 % 95 % 1004,9 hPa 0,0 l/m 0,0 km/h (0 Bft) N 0 0 min 0,000 mm 0,0 UV-I 12 W/m -0,9 C -0,2 C 0,0 km/h (0 Bft) 95,65 %
02.12.2023 11:59 23,9 C -0,2 C 56 % 95 % 1004,9 hPa 0,0 l/m 0,0 km/h (0 Bft) N 0 0 min 0,000 mm 0,0 UV-I 12 W/m -0,9 C -0,2 C 0,0 km/h (0 Bft) 91,30 %
02.12.2023 11:58 23,9 C -0,2 C 56 % 95 % 1004,9 hPa 0,0 l/m 0,0 km/h (0 Bft) W 270 0 min 0,000 mm 0,0 UV-I 12 W/m -0,9 C -0,2 C 1,6 km/h (1 Bft) 95,65 %
02.12.2023 11:57 23,9 C -0,2 C 56 % 95 % 1005,0 hPa 0,0 l/m 0,0 km/h (0 Bft) W 270 0 min 0,000 mm 0,0 UV-I 12 W/m -0,9 C -0,2 C 3,2 km/h (1 Bft) 100,00 %
02.12.2023 11:56 23,9 C -0,2 C 56 % 95 % 1005,0 hPa 0,0 l/m 1,6 km/h (1 Bft) W 270 0 min 0,000 mm 0,0 UV-I 12 W/m -0,9 C -0,2 C 1,6 km/h (1 Bft) 91,30 %
02.12.2023 11:55 23,9 C -0,2 C 56 % 95 % 1005,1 hPa 0,0 l/m 0,0 km/h (0 Bft) N 0 0 min 0,000 mm 0,0 UV-I 12 W/m -0,9 C -0,2 C 0,0 km/h (0 Bft) 95,65 %
02.12.2023 11:54 23,9 C -0,2 C 56 % 95 % 1005,1 hPa 0,0 l/m 0,0 km/h (0 Bft) N 0 0 min 0,000 mm 0,0 UV-I 12 W/m -0,9 C -0,2 C 0,0 km/h (0 Bft) 91,30 %
02.12.2023 11:53 23,9 C -0,2 C 56 % 95 % 1005,1 hPa 0,0 l/m 0,0 km/h (0 Bft) W 270 0 min 0,000 mm 0,0 UV-I 12 W/m -0,9 C -0,2 C 1,6 km/h (1 Bft) 100,00 %
02.12.2023 11:52 23,8 C -0,2 C 56 % 95 % 1005,2 hPa 0,0 l/m 0,0 km/h (0 Bft) N 0 0 min 0,000 mm 0,0 UV-I 12 W/m -0,9 C -0,2 C 0,0 km/h (0 Bft) 95,65 %
02.12.2023 11:51 23,9 C -0,2 C 56 % 95 % 1005,3 hPa 0,0 l/m 0,0 km/h (0 Bft) W 270 0 min 0,000 mm 0,0 UV-I 12 W/m -0,9 C -0,2 C 1,6 km/h (1 Bft) 95,65 %
02.12.2023 11:50 23,9 C -0,2 C 56 % 95 % 1005,3 hPa 0,0 l/m 0,0 km/h (0 Bft) N 0 0 min 0,000 mm 0,0 UV-I 12 W/m -0,9 C -0,2 C 0,0 km/h (0 Bft) 100,00 %
02.12.2023 11:49 23,9 C -0,2 C 56 % 95 % 1005,5 hPa 0,0 l/m 0,0 km/h (0 Bft) W 270 0 min 0,000 mm 0,0 UV-I 12 W/m -0,9 C -0,2 C 1,6 km/h (1 Bft) 95,65 %
02.12.2023 11:48 23,9 C -0,2 C 56 % 95 % 1005,5 hPa 0,0 l/m 0,0 km/h (0 Bft) W 270 0 min 0,000 mm 0,0 UV-I 11 W/m -0,9 C -0,2 C 1,6 km/h (1 Bft) 95,65 %
02.12.2023 11:47 23,9 C -0,2 C 56 % 95 % 1005,4 hPa 0,0 l/m 0,0 km/h (0 Bft) W 270 0 min 0,000 mm 0,0 UV-I 11 W/m -0,9 C -0,2 C 1,6 km/h (1 Bft) 100,00 %
02.12.2023 11:46 23,9 C -0,2 C 56 % 95 % 1005,4 hPa 0,0 l/m 0,0 km/h (0 Bft) W 270 0 min 0,000 mm 0,0 UV-I 11 W/m -0,9 C -0,2 C 1,6 km/h (1 Bft) 95,65 %
02.12.2023 11:45 23,9 C -0,1 C 56 % 95 % 1005,5 hPa 0,0 l/m 0,0 km/h (0 Bft) W 270 0 min 0,000 mm 0,0 UV-I 11 W/m -0,8 C -0,1 C 1,6 km/h (1 Bft) 82,61 %
02.12.2023 11:44 23,9 C -0,1 C 56 % 95 % 1005,4 hPa 0,0 l/m 1,6 km/h (1 Bft) W 270 0 min 0,000 mm 0,0 UV-I 11 W/m -0,8 C -0,1 C 3,2 km/h (1 Bft) 95,65 %
02.12.2023 11:43 23,9 C -0,1 C 56 % 95 % 1005,5 hPa 0,0 l/m 0,0 km/h (0 Bft) NW 315 0 min 0,000 mm 0,0 UV-I 11 W/m -0,8 C -0,1 C 1,6 km/h (1 Bft) 95,65 %
02.12.2023 11:42 23,9 C -0,1 C 56 % 95 % 1005,5 hPa 0,0 l/m 0,0 km/h (0 Bft) NW 315 0 min 0,000 mm 0,0 UV-I 11 W/m -0,8 C -0,1 C 1,6 km/h (1 Bft) 86,96 %
02.12.2023 11:41 23,9 C -0,1 C 56 % 95 % 1005,4 hPa 0,0 l/m 0,0 km/h (0 Bft) NW 315 0 min 0,000 mm 0,0 UV-I 11 W/m -0,8 C -0,1 C 1,6 km/h (1 Bft) 91,30 %
02.12.2023 11:40 23,9 C -0,1 C 56 % 95 % 1005,3 hPa 0,0 l/m 1,6 km/h (1 Bft) NW 315 0 min 0,000 mm 0,0 UV-I 11 W/m -0,8 C -0,1 C 3,2 km/h (1 Bft) 95,65 %
02.12.2023 11:39 23,9 C -0,1 C 56 % 95 % 1005,2 hPa 0,0 l/m 1,6 km/h (1 Bft) NW 315 0 min 0,000 mm 0,0 UV-I 11 W/m -0,8 C -0,1 C 3,2 km/h (1 Bft) 95,65 %
02.12.2023 11:38 23,9 C -0,1 C 56 % 95 % 1005,2 hPa 0,0 l/m 0,0 km/h (0 Bft) N 0 0 min 0,000 mm 0,0 UV-I 12 W/m -0,8 C -0,1 C 0,0 km/h (0 Bft) 100,00 %
02.12.2023 11:37 23,9 C -0,1 C 56 % 95 % 1005,2 hPa 0,0 l/m 0,0 km/h (0 Bft) NW 315 0 min 0,000 mm 0,0 UV-I 12 W/m -0,8 C -0,1 C 1,6 km/h (1 Bft) 95,65 %
02.12.2023 11:36 23,8 C -0,1 C 56 % 95 % 1005,1 hPa 0,0 l/m 1,6 km/h (1 Bft) NW 315 0 min 0,000 mm 0,0 UV-I 12 W/m -0,8 C -0,1 C 1,6 km/h (1 Bft) 91,30 %
02.12.2023 11:35 23,9 C -0,1 C 56 % 95 % 1005,2 hPa 0,0 l/m 1,6 km/h (1 Bft) NW 315 0 min 0,000 mm 0,0 UV-I 12 W/m -0,8 C -0,1 C 3,2 km/h (1 Bft) 95,65 %
02.12.2023 11:34 23,9 C -0,1 C 56 % 95 % 1005,1 hPa 0,0 l/m 1,6 km/h (1 Bft) NW 315 0 min 0,000 mm 0,0 UV-I 14 W/m -0,8 C -0,1 C 3,2 km/h (1 Bft) 91,30 %
02.12.2023 11:33 23,9 C -0,1 C 56 % 95 % 1005,0 hPa 0,0 l/m 1,6 km/h (1 Bft) NW 315 0 min 0,000 mm 0,0 UV-I 14 W/m -0,8 C -0,1 C 3,2 km/h (1 Bft) 91,30 %
02.12.2023 11:32 23,9 C -0,1 C 56 % 95 % 1005,1 hPa 0,0 l/m 1,6 km/h (1 Bft) NW 315 0 min 0,000 mm 0,0 UV-I 16 W/m -0,8 C -0,1 C 3,2 km/h (1 Bft) 86,96 %
02.12.2023 11:31 23,8 C -0,1 C 56 % 95 % 1005,1 hPa 0,0 l/m 1,6 km/h (1 Bft) NW 315 0 min 0,000 mm 0,0 UV-I 16 W/m -0,8 C -0,1 C 3,2 km/h (1 Bft) 91,30 %
02.12.2023 11:30 23,9 C -0,1 C 56 % 95 % 1005,1 hPa 0,0 l/m 1,6 km/h (1 Bft) NW 315 0 min 0,000 mm 0,0 UV-I 16 W/m -0,8 C -0,1 C 3,2 km/h (1 Bft) 82,61 %
02.12.2023 11:29 23,9 C -0,1 C 56 % 95 % 1005,1 hPa 0,0 l/m 0,0 km/h (0 Bft) N 0 0 min 0,000 mm 0,0 UV-I 14 W/m -0,8 C -0,1 C 0,0 km/h (0 Bft) 95,65 %
02.12.2023 11:28 23,9 C -0,1 C 56 % 95 % 1005,1 hPa 0,0 l/m 0,0 km/h (0 Bft) N 0 0 min 0,000 mm 0,0 UV-I 14 W/m -0,8 C -0,1 C 0,0 km/h (0 Bft) 86,96 %
02.12.2023 11:27 23,9 C -0,1 C 56 % 95 % 1005,1 hPa 0,0 l/m 0,0 km/h (0 Bft) N 0 0 min 0,000 mm 0,0 UV-I 12 W/m -0,8 C -0,1 C 0,0 km/h (0 Bft) 91,30 %
02.12.2023 11:26 23,9 C -0,1 C 56 % 95 % 1005,2 hPa 0,0 l/m 0,0 km/h (0 Bft) N 0 0 min 0,000 mm 0,0 UV-I 12 W/m -0,8 C -0,1 C 0,0 km/h (0 Bft) 95,65 %
02.12.2023 11:25 23,9 C -0,1 C 56 % 95 % 1005,2 hPa 0,0 l/m 0,0 km/h (0 Bft) N 0 0 min 0,000 mm 0,0 UV-I 12 W/m -0,8 C -0,1 C 0,0 km/h (0 Bft) 95,65 %
02.12.2023 11:24 23,9 C -0,1 C 56 % 95 % 1005,2 hPa 0,0 l/m 0,0 km/h (0 Bft) N 0 0 min 0,000 mm 0,0 UV-I 12 W/m -0,8 C -0,1 C 0,0 km/h (0 Bft) 100,00 %
02.12.2023 11:23 23,9 C 0,0 C 56 % 95 % 1005,3 hPa 0,0 l/m 0,0 km/h (0 Bft) N 0 0 min 0,000 mm 0,0 UV-I 12 W/m -0,7 C 0,0 C 0,0 km/h (0 Bft) 100,00 %
02.12.2023 11:22 23,8 C -0,1 C 56 % 95 % 1005,3 hPa 0,0 l/m 0,0 km/h (0 Bft) N 0 0 min 0,000 mm 0,0 UV-I 14 W/m -0,8 C -0,1 C 0,0 km/h (0 Bft) 91,30 %
02.12.2023 11:21 23,9 C 0,0 C 56 % 95 % 1005,3 hPa 0,0 l/m 0,0 km/h (0 Bft) N 0 0 min 0,000 mm 0,0 UV-I 14 W/m -0,7 C 0,0 C 0,0 km/h (0 Bft) 91,30 %
02.12.2023 11:20 23,9 C 0,1 C 56 % 96 % 1005,4 hPa 0,0 l/m 0,0 km/h (0 Bft) N 0 0 min 0,000 mm 0,0 UV-I 14 W/m -0,5 C 0,1 C 9,7 km/h (2 Bft) 95,65 %
02.12.2023 11:19 23,9 C 0,1 C 56 % 96 % 1005,4 hPa 0,0 l/m 0,0 km/h (0 Bft) NW 315 0 min 0,000 mm 0,0 UV-I 14 W/m -0,5 C 0,1 C 6,4 km/h (2 Bft) 100,00 %
02.12.2023 11:18 23,9 C 0,0 C 56 % 96 % 1005,4 hPa 0,0 l/m 1,6 km/h (1 Bft) NW 315 0 min 0,000 mm 0,0 UV-I 12 W/m -0,6 C 0,0 C 9,7 km/h (2 Bft) 91,30 %
02.12.2023 11:17 23,9 C 0,0 C 56 % 96 % 1005,4 hPa 0,0 l/m 0,0 km/h (0 Bft) N 0 0 min 0,000 mm 0,0 UV-I 12 W/m -0,6 C 0,0 C 0,0 km/h (0 Bft) 100,00 %
02.12.2023 11:16 23,9 C 0,0 C 56 % 95 % 1005,4 hPa 0,0 l/m 0,0 km/h (0 Bft) N 0 0 min 0,000 mm 0,0 UV-I 12 W/m -0,7 C 0,0 C 0,0 km/h (0 Bft) 91,30 %
02.12.2023 11:15 23,9 C -0,1 C 56 % 95 % 1005,4 hPa 0,0 l/m 0,0 km/h (0 Bft) N 0 0 min 0,000 mm 0,0 UV-I 12 W/m -0,8 C -0,1 C 0,0 km/h (0 Bft) 86,96 %
02.12.2023 11:14 23,9 C -0,1 C 56 % 96 % 1005,4 hPa 0,0 l/m 0,0 km/h (0 Bft) N 0 0 min 0,000 mm 0,0 UV-I 12 W/m -0,7 C -0,1 C 0,0 km/h (0 Bft) 95,65 %
02.12.2023 11:13 23,9 C -0,1 C 56 % 96 % 1005,4 hPa 0,0 l/m 0,0 km/h (0 Bft) N 0 0 min 0,000 mm 0,0 UV-I 12 W/m -0,7 C -0,1 C 0,0 km/h (0 Bft) 91,30 %
02.12.2023 11:12 23,9 C 0,0 C 56 % 96 % 1005,4 hPa 0,0 l/m 0,0 km/h (0 Bft) N 0 0 min 0,000 mm 0,0 UV-I 12 W/m -0,6 C 0,0 C 0,0 km/h (0 Bft) 86,96 %
02.12.2023 11:11 23,9 C -0,1 C 56 % 96 % 1005,4 hPa 0,0 l/m 0,0 km/h (0 Bft) N 0 0 min 0,000 mm 0,0 UV-I 12 W/m -0,7 C -0,1 C 0,0 km/h (0 Bft) 78,26 %
02.12.2023 11:10 23,9 C -0,1 C 56 % 95 % 1005,4 hPa 0,0 l/m 0,0 km/h (0 Bft) N 0 0 min 0,000 mm 0,0 UV-I 12 W/m -0,8 C -0,1 C 0,0 km/h (0 Bft) 100,00 %
02.12.2023 11:09 23,9 C -0,2 C 56 % 95 % 1005,3 hPa 0,0 l/m 0,0 km/h (0 Bft) N 0 0 min 0,000 mm 0,0 UV-I 12 W/m -0,9 C -0,2 C 0,0 km/h (0 Bft) 95,65 %
02.12.2023 11:08 23,9 C -0,2 C 56 % 95 % 1005,2 hPa 0,0 l/m 0,0 km/h (0 Bft) N 0 0 min 0,000 mm 0,0 UV-I 12 W/m -0,9 C -0,2 C 0,0 km/h (0 Bft) 100,00 %
02.12.2023 11:07 23,9 C -0,2 C 56 % 96 % 1005,2 hPa 0,0 l/m 0,0 km/h (0 Bft) N 0 0 min 0,000 mm 0,0 UV-I 11 W/m -0,8 C -0,2 C 0,0 km/h (0 Bft) 91,30 %
02.12.2023 11:06 23,9 C -0,2 C 56 % 95 % 1005,2 hPa 0,0 l/m 0,0 km/h (0 Bft) N 0 0 min 0,000 mm 0,0 UV-I 11 W/m -0,9 C -0,2 C 0,0 km/h (0 Bft) 91,30 %
02.12.2023 11:05 23,9 C -0,2 C 56 % 96 % 1005,2 hPa 0,0 l/m 0,0 km/h (0 Bft) N 0 0 min 0,000 mm 0,0 UV-I 11 W/m -0,8 C -0,2 C 0,0 km/h (0 Bft) 100,00 %
02.12.2023 11:04 23,9 C -0,2 C 56 % 96 % 1005,1 hPa 0,0 l/m 0,0 km/h (0 Bft) N 0 0 min 0,000 mm 0,0 UV-I 11 W/m -0,8 C -0,2 C 0,0 km/h (0 Bft) 82,61 %
02.12.2023 11:03 23,9 C -0,2 C 56 % 96 % 1005,1 hPa 0,0 l/m 0,0 km/h (0 Bft) N 0 0 min 0,000 mm 0,0 UV-I 11 W/m -0,8 C -0,2 C 0,0 km/h (0 Bft) 91,30 %
02.12.2023 11:02 23,9 C -0,2 C 56 % 96 % 1005,1 hPa 0,0 l/m 0,0 km/h (0 Bft) N 0 0 min 0,000 mm 0,0 UV-I 11 W/m -0,8 C -0,2 C 0,0 km/h (0 Bft) 100,00 %
02.12.2023 11:01 23,9 C -0,2 C 56 % 96 % 1005,1 hPa 0,0 l/m 0,0 km/h (0 Bft) N 0 0 min 0,000 mm 0,0 UV-I 11 W/m -0,8 C -0,2 C 0,0 km/h (0 Bft) 100,00 %
02.12.2023 11:00 23,9 C -0,2 C 56 % 96 % 1005,1 hPa 0,0 l/m 0,0 km/h (0 Bft) N 0 0 min 0,000 mm 0,0 UV-I 11 W/m -0,8 C -0,2 C 0,0 km/h (0 Bft) 95,65 %
02.12.2023 10:59 23,9 C -0,3 C 56 % 96 % 1005,1 hPa 0,0 l/m 0,0 km/h (0 Bft) N 0 0 min 0,000 mm 0,0 UV-I 9 W/m -0,9 C -0,3 C 0,0 km/h (0 Bft) 95,65 %
02.12.2023 10:58 23,9 C -0,3 C 56 % 96 % 1005,2 hPa 0,0 l/m 0,0 km/h (0 Bft) N 0 0 min 0,000 mm 0,0 UV-I 9 W/m -0,9 C -0,3 C 0,0 km/h (0 Bft) 100,00 %
02.12.2023 10:57 23,9 C -0,3 C 56 % 96 % 1005,2 hPa 0,0 l/m 0,0 km/h (0 Bft) N 0 0 min 0,000 mm 0,0 UV-I 9 W/m -0,9 C -0,3 C 0,0 km/h (0 Bft) 100,00 %
02.12.2023 10:56 23,9 C -0,3 C 56 % 96 % 1005,2 hPa 0,0 l/m 0,0 km/h (0 Bft) N 0 0 min 0,000 mm 0,0 UV-I 9 W/m -0,9 C -0,3 C 0,0 km/h (0 Bft) 100,00 %
02.12.2023 10:55 23,9 C -0,4 C 56 % 96 % 1005,2 hPa 0,0 l/m 0,0 km/h (0 Bft) N-NW 337 0 min 0,000 mm 0,0 UV-I 9 W/m -1,0 C -0,4 C 1,6 km/h (1 Bft) 100,00 %
02.12.2023 10:54 23,9 C -0,4 C 56 % 96 % 1005,1 hPa 0,0 l/m 0,0 km/h (0 Bft) N-NW 337 0 min 0,000 mm 0,0 UV-I 9 W/m -1,0 C -0,4 C 1,6 km/h (1 Bft) 100,00 %
02.12.2023 10:53 23,9 C -0,4 C 56 % 95 % 1005,2 hPa 0,0 l/m 0,0 km/h (0 Bft) N 0 0 min 0,000 mm 0,0 UV-I 9 W/m -1,1 C -0,4 C 0,0 km/h (0 Bft) 91,30 %
02.12.2023 10:52 23,9 C -0,4 C 56 % 95 % 1005,2 hPa 0,0 l/m 0,0 km/h (0 Bft) N-NW 337 0 min 0,000 mm 0,0 UV-I 9 W/m -1,1 C -0,4 C 1,6 km/h (1 Bft) 91,30 %
02.12.2023 10:51 23,8 C -0,4 C 56 % 95 % 1005,1 hPa 0,0 l/m 0,0 km/h (0 Bft) N 0 0 min 0,000 mm 0,0 UV-I 9 W/m -1,1 C -0,4 C 0,0 km/h (0 Bft) 91,30 %
02.12.2023 10:50 23,9 C -0,4 C 56 % 96 % 1005,0 hPa 0,0 l/m 0,0 km/h (0 Bft) N 0 0 min 0,000 mm 0,0 UV-I 9 W/m -1,0 C -0,4 C 0,0 km/h (0 Bft) 86,96 %
02.12.2023 10:49 23,9 C -0,3 C 56 % 96 % 1005,1 hPa 0,0 l/m 0,0 km/h (0 Bft) N 0 0 min 0,000 mm 0,0 UV-I 9 W/m -0,9 C -0,3 C 0,0 km/h (0 Bft) 86,96 %
02.12.2023 10:48 23,9 C -0,3 C 56 % 96 % 1005,1 hPa 0,0 l/m 0,0 km/h (0 Bft) N-NW 337 0 min 0,000 mm 0,0 UV-I 9 W/m -0,9 C -0,3 C 1,6 km/h (1 Bft) 91,30 %
02.12.2023 10:47 23,9 C -0,2 C 56 % 96 % 1005,2 hPa 0,0 l/m 0,0 km/h (0 Bft) N-NW 337 0 min 0,000 mm 0,0 UV-I 9 W/m -0,8 C -0,2 C 1,6 km/h (1 Bft) 91,30 %
02.12.2023 10:46 23,9 C -0,2 C 56 % 96 % 1005,1 hPa 0,0 l/m 0,0 km/h (0 Bft) N-NW 337 0 min 0,000 mm 0,0 UV-I 9 W/m -0,8 C -0,2 C 1,6 km/h (1 Bft) 100,00 %
02.12.2023 10:45 23,8 C -0,2 C 56 % 96 % 1005,1 hPa 0,0 l/m 0,0 km/h (0 Bft) N 0 0 min 0,000 mm 0,0 UV-I 9 W/m -0,8 C -0,2 C 1,6 km/h (1 Bft) 91,30 %
02.12.2023 10:44 23,9 C -0,3 C 56 % 96 % 1005,1 hPa 0,0 l/m 0,0 km/h (0 Bft) N-NW 337 0 min 0,000 mm 0,0 UV-I 7 W/m -0,9 C -0,3 C 1,6 km/h (1 Bft) 100,00 %
02.12.2023 10:43 23,8 C -0,4 C 56 % 96 % 1005,1 hPa 0,0 l/m 0,0 km/h (0 Bft) N 0 0 min 0,000 mm 0,0 UV-I 7 W/m -1,0 C -0,4 C 0,0 km/h (0 Bft) 95,65 %
02.12.2023 10:42 23,8 C -0,4 C 56 % 96 % 1005,1 hPa 0,0 l/m 0,0 km/h (0 Bft) N 0 0 min 0,000 mm 0,0 UV-I 7 W/m -1,0 C -0,4 C 0,0 km/h (0 Bft) 95,65 %
02.12.2023 10:41 23,9 C -0,4 C 56 % 96 % 1005,0 hPa 0,0 l/m 0,0 km/h (0 Bft) N 0 0 min 0,000 mm 0,0 UV-I 7 W/m -1,0 C -0,4 C 0,0 km/h (0 Bft) 95,65 %
02.12.2023 10:40 23,9 C -0,5 C 56 % 96 % 1005,1 hPa 0,0 l/m 0,0 km/h (0 Bft) N 0 0 min 0,000 mm 0,0 UV-I 7 W/m -1,1 C -0,5 C 0,0 km/h (0 Bft) 95,65 %
02.12.2023 10:39 23,8 C -0,6 C 56 % 96 % 1005,0 hPa 0,0 l/m 0,0 km/h (0 Bft) N 0 0 min 0,000 mm 0,0 UV-I 9 W/m -1,2 C -0,6 C 0,0 km/h (0 Bft) 100,00 %
02.12.2023 10:38 23,8 C -0,6 C 56 % 96 % 1005,1 hPa 0,0 l/m 0,0 km/h (0 Bft) N 0 0 min 0,000 mm 0,0 UV-I 9 W/m -1,2 C -0,6 C 0,0 km/h (0 Bft) 82,61 %
02.12.2023 10:37 23,9 C -0,6 C 56 % 96 % 1005,1 hPa 0,0 l/m 0,0 km/h (0 Bft) N 0 0 min 0,000 mm 0,0 UV-I 9 W/m -1,2 C -0,6 C 0,0 km/h (0 Bft) 91,30 %
02.12.2023 10:36 23,9 C -0,6 C 56 % 96 % 1005,1 hPa 0,0 l/m 0,0 km/h (0 Bft) N 0 0 min 0,000 mm 0,0 UV-I 9 W/m -1,2 C -0,6 C 0,0 km/h (0 Bft) 86,96 %
02.12.2023 10:35 23,9 C -0,6 C 56 % 96 % 1005,2 hPa 0,0 l/m 0,0 km/h (0 Bft) N 0 0 min 0,000 mm 0,0 UV-I 9 W/m -1,2 C -0,6 C 0,0 km/h (0 Bft) 100,00 %
02.12.2023 10:34 23,9 C -0,6 C 56 % 96 % 1005,2 hPa 0,0 l/m 0,0 km/h (0 Bft) N 0 0 min 0,000 mm 0,0 UV-I 9 W/m -1,2 C -0,6 C 0,0 km/h (0 Bft) 95,65 %
02.12.2023 10:33 23,9 C -0,6 C 56 % 96 % 1005,2 hPa 0,0 l/m 0,0 km/h (0 Bft) N 0 0 min 0,000 mm 0,0 UV-I 7 W/m -1,2 C -0,6 C 0,0 km/h (0 Bft) 95,65 %
02.12.2023 10:32 23,8 C -0,6 C 56 % 96 % 1005,2 hPa 0,0 l/m 0,0 km/h (0 Bft) N 0 0 min 0,000 mm 0,0 UV-I 7 W/m -1,2 C -0,6 C 0,0 km/h (0 Bft) 95,65 %
02.12.2023 10:31 23,8 C -0,6 C 56 % 96 % 1005,2 hPa 0,0 l/m 0,0 km/h (0 Bft) N 0 0 min 0,000 mm 0,0 UV-I 7 W/m -1,2 C -0,6 C 0,0 km/h (0 Bft) 95,65 %
02.12.2023 10:30 23,9 C -0,6 C 56 % 96 % 1005,2 hPa 0,0 l/m 0,0 km/h (0 Bft) N 0 0 min 0,000 mm 0,0 UV-I 7 W/m -1,2 C -0,6 C 0,0 km/h (0 Bft) 73,91 %
02.12.2023 10:29 23,9 C -0,6 C 56 % 96 % 1005,1 hPa 0,0 l/m 0,0 km/h (0 Bft) N 0 0 min 0,000 mm 0,0 UV-I 7 W/m -1,2 C -0,6 C 0,0 km/h (0 Bft) 86,96 %
02.12.2023 10:28 23,9 C -0,6 C 56 % 96 % 1005,1 hPa 0,0 l/m 0,0 km/h (0 Bft) N 0 0 min 0,000 mm 0,0 UV-I 7 W/m -1,2 C -0,6 C 0,0 km/h (0 Bft) 82,61 %
02.12.2023 10:27 23,9 C -0,6 C 56 % 96 % 1005,0 hPa 0,0 l/m 0,0 km/h (0 Bft) N 0 0 min 0,000 mm 0,0 UV-I 7 W/m -1,2 C -0,6 C 0,0 km/h (0 Bft) 100,00 %
02.12.2023 10:26 23,8 C -0,6 C 56 % 96 % 1004,9 hPa 0,0 l/m 0,0 km/h (0 Bft) N 0 0 min 0,000 mm 0,0 UV-I 7 W/m -1,2 C -0,6 C 0,0 km/h (0 Bft) 100,00 %
02.12.2023 10:25 23,8 C -0,6 C 56 % 96 % 1004,8 hPa 0,0 l/m 0,0 km/h (0 Bft) N 0 0 min 0,000 mm 0,0 UV-I 7 W/m -1,2 C -0,6 C 0,0 km/h (0 Bft) 100,00 %
02.12.2023 10:24 23,9 C -0,6 C 56 % 96 % 1004,8 hPa 0,0 l/m 0,0 km/h (0 Bft) N 0 0 min 0,000 mm 0,0 UV-I 7 W/m -1,2 C -0,6 C 0,0 km/h (0 Bft) 78,26 %
02.12.2023 10:23 23,8 C -0,6 C 56 % 96 % 1004,7 hPa 0,0 l/m 0,0 km/h (0 Bft) N 0 0 min 0,000 mm 0,0 UV-I 7 W/m -1,2 C -0,6 C 0,0 km/h (0 Bft) 91,30 %
02.12.2023 10:22 23,8 C -0,6 C 56 % 96 % 1004,8 hPa 0,0 l/m 0,0 km/h (0 Bft) N 0 0 min 0,000 mm 0,0 UV-I 9 W/m -1,2 C -0,6 C 0,0 km/h (0 Bft) 100,00 %
02.12.2023 10:21 23,8 C -0,6 C 56 % 96 % 1004,8 hPa 0,0 l/m 0,0 km/h (0 Bft) N 0 0 min 0,000 mm 0,0 UV-I 9 W/m -1,2 C -0,6 C 0,0 km/h (0 Bft) 95,65 %
02.12.2023 10:20 23,8 C -0,6 C 56 % 96 % 1004,8 hPa 0,0 l/m 0,0 km/h (0 Bft) N 0 0 min 0,000 mm 0,0 UV-I 9 W/m -1,2 C -0,6 C 0,0 km/h (0 Bft) 100,00 %
02.12.2023 10:19 23,8 C -0,6 C 56 % 96 % 1004,8 hPa 0,0 l/m 0,0 km/h (0 Bft) N 0 0 min 0,000 mm 0,0 UV-I 9 W/m -1,2 C -0,6 C 0,0 km/h (0 Bft) 82,61 %
02.12.2023 10:18 23,8 C -0,6 C 56 % 96 % 1004,9 hPa 0,0 l/m 0,0 km/h (0 Bft) N 0 0 min 0,000 mm 0,0 UV-I 9 W/m -1,2 C -0,6 C 0,0 km/h (0 Bft) 100,00 %
02.12.2023 10:17 23,9 C -0,6 C 56 % 96 % 1004,9 hPa 0,0 l/m 0,0 km/h (0 Bft) N 0 0 min 0,000 mm 0,0 UV-I 7 W/m -1,2 C -0,6 C 0,0 km/h (0 Bft) 91,30 %
02.12.2023 10:16 23,8 C -0,6 C 56 % 96 % 1004,9 hPa 0,0 l/m 0,0 km/h (0 Bft) N 0 0 min 0,000 mm 0,0 UV-I 7 W/m -1,2 C -0,6 C 0,0 km/h (0 Bft) 100,00 %
02.12.2023 10:15 23,9 C -0,7 C 56 % 96 % 1004,9 hPa 0,0 l/m 0,0 km/h (0 Bft) N 0 0 min 0,000 mm 0,0 UV-I 7 W/m -1,3 C -0,7 C 0,0 km/h (0 Bft) 95,65 %
02.12.2023 10:14 23,8 C -0,8 C 56 % 96 % 1004,9 hPa 0,0 l/m 0,0 km/h (0 Bft) N 0 0 min 0,000 mm 0,0 UV-I 7 W/m -1,4 C -0,8 C 0,0 km/h (0 Bft) 95,65 %
02.12.2023 10:13 23,8 C -0,8 C 56 % 96 % 1005,0 hPa 0,0 l/m 0,0 km/h (0 Bft) N 0 0 min 0,000 mm 0,0 UV-I 9 W/m -1,4 C -0,8 C 0,0 km/h (0 Bft) 100,00 %
02.12.2023 10:12 23,8 C -0,8 C 56 % 96 % 1005,0 hPa 0,0 l/m 0,0 km/h (0 Bft) N 0 0 min 0,000 mm 0,0 UV-I 9 W/m -1,4 C -0,8 C 0,0 km/h (0 Bft) 91,30 %
02.12.2023 10:11 23,9 C -0,7 C 56 % 96 % 1005,0 hPa 0,0 l/m 0,0 km/h (0 Bft) N 0 0 min 0,000 mm 0,0 UV-I 9 W/m -1,3 C -0,7 C 0,0 km/h (0 Bft) 86,96 %
02.12.2023 10:10 23,9 C -0,7 C 56 % 96 % 1005,0 hPa 0,0 l/m 0,0 km/h (0 Bft) N 0 0 min 0,000 mm 0,0 UV-I 9 W/m -1,3 C -0,7 C 0,0 km/h (0 Bft) 91,30 %
02.12.2023 10:09 23,9 C -0,7 C 56 % 96 % 1005,0 hPa 0,0 l/m 0,0 km/h (0 Bft) N 0 0 min 0,000 mm 0,0 UV-I 9 W/m -1,3 C -0,7 C 0,0 km/h (0 Bft) 100,00 %
02.12.2023 10:08 23,9 C -0,7 C 56 % 96 % 1005,0 hPa 0,0 l/m 0,0 km/h (0 Bft) N 0 0 min 0,000 mm 0,0 UV-I 9 W/m -1,3 C -0,7 C 0,0 km/h (0 Bft) 82,61 %
02.12.2023 10:07 23,9 C -0,8 C 56 % 96 % 1005,0 hPa 0,0 l/m 0,0 km/h (0 Bft) N 0 0 min 0,000 mm 0,0 UV-I 9 W/m -1,4 C -0,8 C 0,0 km/h (0 Bft) 91,30 %
02.12.2023 10:06 23,8 C -0,8 C 56 % 96 % 1005,0 hPa 0,0 l/m 0,0 km/h (0 Bft) N 0 0 min 0,000 mm 0,0 UV-I 9 W/m -1,4 C -0,8 C 0,0 km/h (0 Bft) 100,00 %
02.12.2023 10:05 23,9 C -0,7 C 56 % 96 % 1005,0 hPa 0,0 l/m 0,0 km/h (0 Bft) N 0 0 min 0,000 mm 0,0 UV-I 9 W/m -1,3 C -0,7 C 0,0 km/h (0 Bft) 95,65 %
02.12.2023 10:04 23,9 C -0,8 C 56 % 96 % 1004,8 hPa 0,0 l/m 0,0 km/h (0 Bft) N 0 0 min 0,000 mm 0,0 UV-I 9 W/m -1,4 C -0,8 C 0,0 km/h (0 Bft) 100,00 %
02.12.2023 10:03 23,9 C -0,8 C 56 % 96 % 1004,8 hPa 0,0 l/m 0,0 km/h (0 Bft) N 0 0 min 0,000 mm 0,0 UV-I 9 W/m -1,4 C -0,8 C 0,0 km/h (0 Bft) 95,65 %
02.12.2023 10:02 23,9 C -0,8 C 56 % 96 % 1004,8 hPa 0,0 l/m 0,0 km/h (0 Bft) N 0 0 min 0,000 mm 0,0 UV-I 9 W/m -1,4 C -0,8 C 0,0 km/h (0 Bft) 91,30 %
02.12.2023 10:01 23,9 C -0,8 C 56 % 96 % 1004,8 hPa 0,0 l/m 0,0 km/h (0 Bft) N 0 0 min 0,000 mm 0,0 UV-I 9 W/m -1,4 C -0,8 C 0,0 km/h (0 Bft) 100,00 %
02.12.2023 10:00 23,9 C -0,8 C 56 % 96 % 1004,8 hPa 0,0 l/m 0,0 km/h (0 Bft) N 0 0 min 0,000 mm 0,0 UV-I 9 W/m -1,4 C -0,8 C 0,0 km/h (0 Bft) 100,00 %
02.12.2023 09:59 23,9 C -0,8 C 56 % 96 % 1004,9 hPa 0,0 l/m 0,0 km/h (0 Bft) N 0 0 min 0,000 mm 0,0 UV-I 9 W/m -1,4 C -0,8 C 0,0 km/h (0 Bft) 100,00 %
02.12.2023 09:58 23,9 C -0,8 C 56 % 96 % 1004,8 hPa 0,0 l/m 0,0 km/h (0 Bft) N 0 0 min 0,000 mm 0,0 UV-I 9 W/m -1,4 C -0,8 C 0,0 km/h (0 Bft) 95,65 %
02.12.2023 09:57 23,9 C -0,7 C 56 % 96 % 1004,8 hPa 0,0 l/m 0,0 km/h (0 Bft) N 0 0 min 0,000 mm 0,0 UV-I 7 W/m -1,3 C -0,7 C 0,0 km/h (0 Bft) 91,30 %
02.12.2023 09:56 23,9 C -0,7 C 56 % 96 % 1004,9 hPa 0,0 l/m 0,0 km/h (0 Bft) N 0 0 min 0,000 mm 0,0 UV-I 7 W/m -1,3 C -0,7 C 0,0 km/h (0 Bft) 82,61 %
02.12.2023 09:55 23,8 C -0,7 C 56 % 96 % 1004,9 hPa 0,0 l/m 0,0 km/h (0 Bft) N 0 0 min 0,000 mm 0,0 UV-I 7 W/m -1,3 C -0,7 C 0,0 km/h (0 Bft) 95,65 %
02.12.2023 09:54 23,9 C -0,8 C 56 % 96 % 1004,9 hPa 0,0 l/m 0,0 km/h (0 Bft) N 0 0 min 0,000 mm 0,0 UV-I 7 W/m -1,4 C -0,8 C 0,0 km/h (0 Bft) 100,00 %
02.12.2023 09:53 23,9 C -0,8 C 56 % 96 % 1004,8 hPa 0,0 l/m 0,0 km/h (0 Bft) N 0 0 min 0,000 mm 0,0 UV-I 7 W/m -1,4 C -0,8 C 0,0 km/h (0 Bft) 78,26 %
02.12.2023 09:52 23,9 C -0,7 C 56 % 96 % 1004,8 hPa 0,0 l/m 0,0 km/h (0 Bft) N 0 0 min 0,000 mm 0,0 UV-I 7 W/m -1,3 C -0,7 C 0,0 km/h (0 Bft) 73,91 %
02.12.2023 09:51 23,8 C -0,8 C 56 % 96 % 1004,8 hPa 0,0 l/m 0,0 km/h (0 Bft) N 0 0 min 0,000 mm 0,0 UV-I 7 W/m -1,4 C -0,8 C 0,0 km/h (0 Bft) 95,65 %
02.12.2023 09:50 23,9 C -0,7 C 56 % 96 % 1004,9 hPa 0,0 l/m 0,0 km/h (0 Bft) N 0 0 min 0,000 mm 0,0 UV-I 7 W/m -1,3 C -0,7 C 0,0 km/h (0 Bft) 91,30 %
02.12.2023 09:49 23,9 C -0,7 C 56 % 96 % 1004,9 hPa 0,0 l/m 0,0 km/h (0 Bft) N 0 0 min 0,000 mm 0,0 UV-I 7 W/m -1,3 C -0,7 C 0,0 km/h (0 Bft) 91,30 %
02.12.2023 09:48 23,8 C -0,7 C 56 % 96 % 1005,0 hPa 0,0 l/m 0,0 km/h (0 Bft) N 0 0 min 0,000 mm 0,0 UV-I 7 W/m -1,3 C -0,7 C 0,0 km/h (0 Bft) 91,30 %
02.12.2023 09:47 23,9 C -0,7 C 56 % 96 % 1005,0 hPa 0,0 l/m 0,0 km/h (0 Bft) N 0 0 min 0,000 mm 0,0 UV-I 7 W/m -1,3 C -0,7 C 0,0 km/h (0 Bft) 100,00 %
02.12.2023 09:46 23,8 C -0,7 C 56 % 97 % 1004,8 hPa 0,0 l/m 0,0 km/h (0 Bft) N 0 0 min 0,000 mm 0,0 UV-I 7 W/m -1,1 C -0,7 C 0,0 km/h (0 Bft) 95,65 %
02.12.2023 09:45 23,9 C -0,6 C 56 % 97 % 1004,9 hPa 0,0 l/m 0,0 km/h (0 Bft) N 0 0 min 0,000 mm 0,0 UV-I 7 W/m -1,0 C -0,6 C 0,0 km/h (0 Bft) 100,00 %
02.12.2023 09:44 23,8 C -0,6 C 56 % 97 % 1004,7 hPa 0,0 l/m 0,0 km/h (0 Bft) N 0 0 min 0,000 mm 0,0 UV-I 7 W/m -1,0 C -0,6 C 0,0 km/h (0 Bft) 91,30 %
02.12.2023 09:43 23,9 C -0,4 C 56 % 97 % 1004,8 hPa 0,0 l/m 0,0 km/h (0 Bft) N 0 0 min 0,000 mm 0,0 UV-I 7 W/m -0,8 C -0,4 C 0,0 km/h (0 Bft) 95,65 %
02.12.2023 09:42 23,9 C -0,4 C 56 % 97 % 1004,8 hPa 0,0 l/m 0,0 km/h (0 Bft) N 0 0 min 0,000 mm 0,0 UV-I 7 W/m -0,8 C -0,4 C 0,0 km/h (0 Bft) 73,91 %
02.12.2023 09:41 23,9 C -0,4 C 56 % 97 % 1004,7 hPa 0,0 l/m 0,0 km/h (0 Bft) N 0 0 min 0,000 mm 0,0 UV-I 7 W/m -0,8 C -0,4 C 0,0 km/h (0 Bft) 65,22 %
02.12.2023 09:40 23,8 C -0,4 C 56 % 97 % 1004,8 hPa 0,0 l/m 0,0 km/h (0 Bft) N 0 0 min 0,000 mm 0,0 UV-I 7 W/m -0,8 C -0,4 C 0,0 km/h (0 Bft) 95,65 %
02.12.2023 09:39 23,9 C -0,4 C 56 % 97 % 1004,8 hPa 0,0 l/m 0,0 km/h (0 Bft) N 0 0 min 0,000 mm 0,0 UV-I 7 W/m -0,8 C -0,4 C 0,0 km/h (0 Bft) 86,96 %
02.12.2023 09:38 23,9 C -0,5 C 56 % 97 % 1004,9 hPa 0,0 l/m 0,0 km/h (0 Bft) N 0 0 min 0,000 mm 0,0 UV-I 7 W/m -0,9 C -0,5 C 0,0 km/h (0 Bft) 100,00 %
02.12.2023 09:37 23,8 C -0,6 C 56 % 97 % 1004,8 hPa 0,0 l/m 0,0 km/h (0 Bft) N 0 0 min 0,000 mm 0,0 UV-I 7 W/m -1,0 C -0,6 C 0,0 km/h (0 Bft) 100,00 %
02.12.2023 09:36 23,8 C -0,6 C 56 % 97 % 1004,8 hPa 0,0 l/m 0,0 km/h (0 Bft) N 0 0 min 0,000 mm 0,0 UV-I 7 W/m -1,0 C -0,6 C 0,0 km/h (0 Bft) 100,00 %
02.12.2023 09:35 23,9 C -0,6 C 56 % 97 % 1004,8 hPa 0,0 l/m 0,0 km/h (0 Bft) N 0 0 min 0,000 mm 0,0 UV-I 7 W/m -1,0 C -0,6 C 0,0 km/h (0 Bft) 82,61 %
02.12.2023 09:34 23,8 C -0,7 C 56 % 96 % 1004,7 hPa 0,0 l/m 0,0 km/h (0 Bft) N 0 0 min 0,000 mm 0,0 UV-I 5 W/m -1,3 C -0,7 C 0,0 km/h (0 Bft) 86,96 %
02.12.2023 09:33 23,8 C -0,7 C 56 % 96 % 1004,8 hPa 0,0 l/m 0,0 km/h (0 Bft) N 0 0 min 0,000 mm 0,0 UV-I 5 W/m -1,3 C -0,7 C 0,0 km/h (0 Bft) 95,65 %
02.12.2023 09:32 23,8 C -0,8 C 56 % 96 % 1004,8 hPa 0,0 l/m 0,0 km/h (0 Bft) N 0 0 min 0,000 mm 0,0 UV-I 5 W/m -1,4 C -0,8 C 0,0 km/h (0 Bft) 86,96 %
02.12.2023 09:31 23,8 C -0,8 C 56 % 96 % 1004,8 hPa 0,0 l/m 0,0 km/h (0 Bft) N 0 0 min 0,000 mm 0,0 UV-I 5 W/m -1,4 C -0,8 C 0,0 km/h (0 Bft) 100,00 %
02.12.2023 09:30 23,8 C -0,8 C 56 % 96 % 1004,7 hPa 0,0 l/m 0,0 km/h (0 Bft) N 0 0 min 0,000 mm 0,0 UV-I 5 W/m -1,4 C -0,8 C 0,0 km/h (0 Bft) 95,65 %
02.12.2023 09:29 23,8 C -0,8 C 56 % 97 % 1004,7 hPa 0,0 l/m 0,0 km/h (0 Bft) N 0 0 min 0,000 mm 0,0 UV-I 5 W/m -1,2 C -0,8 C 0,0 km/h (0 Bft) 82,61 %
02.12.2023 09:28 23,8 C -0,8 C 56 % 96 % 1004,6 hPa 0,0 l/m 0,0 km/h (0 Bft) N 0 0 min 0,000 mm 0,0 UV-I 5 W/m -1,4 C -0,8 C 0,0 km/h (0 Bft) 91,30 %
02.12.2023 09:27 23,8 C -0,8 C 56 % 96 % 1004,5 hPa 0,0 l/m 0,0 km/h (0 Bft) N 0 0 min 0,000 mm 0,0 UV-I 7 W/m -1,4 C -0,8 C 0,0 km/h (0 Bft) 95,65 %
02.12.2023 09:26 23,8 C -0,8 C 56 % 96 % 1004,5 hPa 0,0 l/m 0,0 km/h (0 Bft) N 0 0 min 0,000 mm 0,0 UV-I 7 W/m -1,4 C -0,8 C 0,0 km/h (0 Bft) 82,61 %
02.12.2023 09:25 23,8 C -0,7 C 56 % 96 % 1004,5 hPa 0,0 l/m 0,0 km/h (0 Bft) N 0 0 min 0,000 mm 0,0 UV-I 7 W/m -1,3 C -0,7 C 0,0 km/h (0 Bft) 82,61 %
02.12.2023 09:24 23,8 C -0,7 C 56 % 97 % 1004,6 hPa 0,0 l/m 0,0 km/h (0 Bft) N 0 0 min 0,000 mm 0,0 UV-I 7 W/m -1,1 C -0,7 C 0,0 km/h (0 Bft) 69,57 %
02.12.2023 09:23 23,8 C -0,6 C 56 % 97 % 1004,6 hPa 0,0 l/m 0,0 km/h (0 Bft) N 0 0 min 0,000 mm 0,0 UV-I 7 W/m -1,0 C -0,6 C 0,0 km/h (0 Bft) 91,30 %
02.12.2023 09:22 23,8 C -0,6 C 56 % 97 % 1004,7 hPa 0,0 l/m 0,0 km/h (0 Bft) N 0 0 min 0,000 mm 0,0 UV-I 5 W/m -1,0 C -0,6 C 0,0 km/h (0 Bft) 60,87 %
02.12.2023 09:21 23,8 C -0,6 C 56 % 97 % 1004,9 hPa 0,0 l/m 0,0 km/h (0 Bft) N 0 0 min 0,000 mm 0,0 UV-I 5 W/m -1,0 C -0,6 C 0,0 km/h (0 Bft) 47,83 %
02.12.2023 09:20 23,8 C -0,6 C 56 % 97 % 1005,0 hPa 0,0 l/m 0,0 km/h (0 Bft) N 0 0 min 0,000 mm 0,0 UV-I 5 W/m -1,0 C -0,6 C 0,0 km/h (0 Bft) 69,57 %
02.12.2023 09:19 23,8 C -0,6 C 56 % 97 % 1005,0 hPa 0,0 l/m 0,0 km/h (0 Bft) N 0 0 min 0,000 mm 0,0 UV-I 5 W/m -1,0 C -0,6 C 0,0 km/h (0 Bft) 91,30 %
02.12.2023 09:18 23,8 C -0,6 C 56 % 97 % 1005,0 hPa 0,0 l/m 0,0 km/h (0 Bft) N 0 0 min 0,000 mm 0,0 UV-I 0 W/m -1,0 C -0,6 C 0,0 km/h (0 Bft) 86,96 %
02.12.2023 09:17 23,8 C -0,6 C 56 % 97 % 1005,0 hPa 0,0 l/m 0,0 km/h (0 Bft) N 0 0 min 0,000 mm 0,0 UV-I 0 W/m -1,0 C -0,6 C 0,0 km/h (0 Bft) 82,61 %
02.12.2023 09:16 23,9 C -0,6 C 56 % 97 % 1005,0 hPa 0,0 l/m 0,0 km/h (0 Bft) N 0 0 min 0,000 mm 0,0 UV-I 0 W/m -1,0 C -0,6 C 0,0 km/h (0 Bft) 82,61 %
02.12.2023 09:15 23,9 C -0,6 C 56 % 97 % 1005,1 hPa 0,0 l/m 0,0 km/h (0 Bft) N 0 0 min 0,000 mm 0,0 UV-I 0 W/m -1,0 C -0,6 C 0,0 km/h (0 Bft) 78,26 %
02.12.2023 09:14 23,9 C -0,6 C 56 % 97 % 1005,1 hPa 0,0 l/m 0,0 km/h (0 Bft) N 0 0 min 0,000 mm 0,0 UV-I 0 W/m -1,0 C -0,6 C 0,0 km/h (0 Bft) 86,96 %
02.12.2023 09:13 23,8 C -0,7 C 56 % 97 % 1005,2 hPa 0,0 l/m 0,0 km/h (0 Bft) N 0 0 min 0,000 mm 0,0 UV-I 0 W/m -1,1 C -0,7 C 0,0 km/h (0 Bft) 82,61 %
02.12.2023 09:12 23,9 C -0,7 C 56 % 97 % 1005,2 hPa 0,0 l/m 0,0 km/h (0 Bft) N 0 0 min 0,000 mm 0,0 UV-I 0 W/m -1,1 C -0,7 C 0,0 km/h (0 Bft) 91,30 %
02.12.2023 09:11 23,9 C -0,8 C 57 % 97 % 1005,2 hPa 0,0 l/m 0,0 km/h (0 Bft) N 0 0 min 0,000 mm 0,0 UV-I 0 W/m -1,2 C -0,8 C 0,0 km/h (0 Bft) 95,65 %
02.12.2023 09:10 23,9 C -0,8 C 57 % 97 % 1005,2 hPa 0,0 l/m 0,0 km/h (0 Bft) N 0 0 min 0,000 mm 0,0 UV-I 0 W/m -1,2 C -0,8 C 0,0 km/h (0 Bft) 69,57 %
02.12.2023 09:09 23,9 C -0,8 C 57 % 97 % 1005,1 hPa 0,0 l/m 0,0 km/h (0 Bft) N 0 0 min 0,000 mm 0,0 UV-I 0 W/m -1,2 C -0,8 C 0,0 km/h (0 Bft) 91,30 %
02.12.2023 09:08 23,9 C -0,8 C 57 % 97 % 1005,1 hPa 0,0 l/m 0,0 km/h (0 Bft) N 0 0 min 0,000 mm 0,0 UV-I 0 W/m -1,2 C -0,8 C 0,0 km/h (0 Bft) 86,96 %
02.12.2023 09:07 23,9 C -0,8 C 57 % 97 % 1004,9 hPa 0,0 l/m 0,0 km/h (0 Bft) N 0 0 min 0,000 mm 0,0 UV-I 5 W/m -1,2 C -0,8 C 0,0 km/h (0 Bft) 95,65 %
02.12.2023 09:06 23,9 C -0,8 C 57 % 97 % 1004,6 hPa 0,0 l/m 0,0 km/h (0 Bft) N 0 0 min 0,000 mm 0,0 UV-I 5 W/m -1,2 C -0,8 C 0,0 km/h (0 Bft) 95,65 %
02.12.2023 09:05 23,9 C -0,8 C 57 % 97 % 1004,4 hPa 0,0 l/m 0,0 km/h (0 Bft) N 0 0 min 0,000 mm 0,0 UV-I 5 W/m -1,2 C -0,8 C 0,0 km/h (0 Bft) 100,00 %
02.12.2023 09:04 23,9 C -0,7 C 57 % 97 % 1004,2 hPa 0,0 l/m 0,0 km/h (0 Bft) N 0 0 min 0,000 mm 0,0 UV-I 5 W/m -1,1 C -0,7 C 0,0 km/h (0 Bft) 95,65 %
02.12.2023 09:03 23,9 C -0,7 C 57 % 97 % 1004,1 hPa 0,0 l/m 0,0 km/h (0 Bft) N 0 0 min 0,000 mm 0,0 UV-I 5 W/m -1,1 C -0,7 C 0,0 km/h (0 Bft) 95,65 %
02.12.2023 09:02 23,9 C -0,6 C 57 % 97 % 1004,1 hPa 0,0 l/m 0,0 km/h (0 Bft) N 0 0 min 0,000 mm 0,0 UV-I 5 W/m -1,0 C -0,6 C 0,0 km/h (0 Bft) 100,00 %
02.12.2023 09:01 23,8 C -0,6 C 57 % 97 % 1004,0 hPa 0,0 l/m 0,0 km/h (0 Bft) N 0 0 min 0,000 mm 0,0 UV-I 5 W/m -1,0 C -0,6 C 0,0 km/h (0 Bft) 95,65 %
02.12.2023 09:00 23,9 C -0,6 C 57 % 97 % 1004,0 hPa 0,0 l/m 0,0 km/h (0 Bft) N 0 0 min 0,000 mm 0,0 UV-I 5 W/m -1,0 C -0,6 C 0,0 km/h (0 Bft) 95,65 %
02.12.2023 08:59 23,8 C -0,6 C 57 % 97 % 1004,1 hPa 0,0 l/m 0,0 km/h (0 Bft) N 0 0 min 0,000 mm 0,0 UV-I 5 W/m -1,0 C -0,6 C 0,0 km/h (0 Bft) 95,65 %
02.12.2023 08:58 23,9 C -0,6 C 57 % 97 % 1004,2 hPa 0,0 l/m 0,0 km/h (0 Bft) N 0 0 min 0,000 mm 0,0 UV-I 5 W/m -1,0 C -0,6 C 0,0 km/h (0 Bft) 95,65 %
02.12.2023 08:57 23,8 C -0,7 C 57 % 97 % 1004,3 hPa 0,0 l/m 0,0 km/h (0 Bft) N 0 0 min 0,000 mm 0,0 UV-I 5 W/m -1,1 C -0,7 C 0,0 km/h (0 Bft) 95,65 %
02.12.2023 08:56 23,9 C -0,7 C 57 % 97 % 1004,3 hPa 0,0 l/m 0,0 km/h (0 Bft) N 0 0 min 0,000 mm 0,0 UV-I 0 W/m -1,1 C -0,7 C 0,0 km/h (0 Bft) 95,65 %
02.12.2023 08:55 23,9 C -0,7 C 57 % 97 % 1004,4 hPa 0,0 l/m 0,0 km/h (0 Bft) N 0 0 min 0,000 mm 0,0 UV-I 0 W/m -1,1 C -0,7 C 0,0 km/h (0 Bft) 100,00 %
02.12.2023 08:54 23,8 C -0,7 C 57 % 97 % 1004,5 hPa 0,0 l/m 0,0 km/h (0 Bft) N 0 0 min 0,000 mm 0,0 UV-I 0 W/m -1,1 C -0,7 C 0,0 km/h (0 Bft) 95,65 %
02.12.2023 08:53 23,8 C -0,8 C 57 % 97 % 1004,4 hPa 0,0 l/m 0,0 km/h (0 Bft) N 0 0 min 0,000 mm 0,0 UV-I 0 W/m -1,2 C -0,8 C 0,0 km/h (0 Bft) 95,65 %
02.12.2023 08:52 23,8 C -0,8 C 57 % 97 % 1004,4 hPa 0,0 l/m 0,0 km/h (0 Bft) N 0 0 min 0,000 mm 0,0 UV-I 0 W/m -1,2 C -0,8 C 0,0 km/h (0 Bft) 86,96 %
02.12.2023 08:51 23,9 C -1,0 C 57 % 97 % 1004,3 hPa 0,0 l/m 0,0 km/h (0 Bft) N 0 0 min 0,000 mm 0,0 UV-I 0 W/m -1,4 C -1,0 C 0,0 km/h (0 Bft) 82,61 %
02.12.2023 08:50 23,9 C -0,9 C 57 % 97 % 1004,3 hPa 0,0 l/m 0,0 km/h (0 Bft) N 0 0 min 0,000 mm 0,0 UV-I 0 W/m -1,3 C -0,9 C 0,0 km/h (0 Bft) 91,30 %
02.12.2023 08:49 23,9 C -0,9 C 57 % 97 % 1004,4 hPa 0,0 l/m 0,0 km/h (0 Bft) N 0 0 min 0,000 mm 0,0 UV-I 0 W/m -1,3 C -0,9 C 0,0 km/h (0 Bft) 95,65 %
02.12.2023 08:48 23,9 C -0,9 C 57 % 97 % 1004,5 hPa 0,0 l/m 0,0 km/h (0 Bft) N 0 0 min 0,000 mm 0,0 UV-I 0 W/m -1,3 C -0,9 C 0,0 km/h (0 Bft) 82,61 %
02.12.2023 08:47 23,9 C -0,9 C 57 % 97 % 1004,6 hPa 0,0 l/m 0,0 km/h (0 Bft) N 0 0 min 0,000 mm 0,0 UV-I 0 W/m -1,3 C -0,9 C 0,0 km/h (0 Bft) 91,30 %
02.12.2023 08:46 23,9 C -0,8 C 57 % 97 % 1004,5 hPa 0,0 l/m 0,0 km/h (0 Bft) N 0 0 min 0,000 mm 0,0 UV-I 0 W/m -1,2 C -0,8 C 0,0 km/h (0 Bft) 95,65 %
02.12.2023 08:45 23,8 C -0,8 C 57 % 97 % 1004,4 hPa 0,0 l/m 0,0 km/h (0 Bft) N 0 0 min 0,000 mm 0,0 UV-I 0 W/m -1,2 C -0,8 C 0,0 km/h (0 Bft) 100,00 %
02.12.2023 08:44 23,9 C -0,8 C 57 % 97 % 1004,3 hPa 0,0 l/m 0,0 km/h (0 Bft) N 0 0 min 0,000 mm 0,0 UV-I 0 W/m -1,2 C -0,8 C 0,0 km/h (0 Bft) 95,65 %
02.12.2023 08:43 23,9 C -0,7 C 57 % 97 % 1004,3 hPa 0,0 l/m 0,0 km/h (0 Bft) N 0 0 min 0,000 mm 0,0 UV-I 0 W/m -1,1 C -0,7 C 0,0 km/h (0 Bft) 95,65 %
02.12.2023 08:42 23,9 C -0,7 C 57 % 97 % 1004,2 hPa 0,0 l/m 0,0 km/h (0 Bft) N 0 0 min 0,000 mm 0,0 UV-I 0 W/m -1,1 C -0,7 C 0,0 km/h (0 Bft) 100,00 %
02.12.2023 08:41 23,9 C -0,7 C 57 % 97 % 1004,1 hPa 0,0 l/m 0,0 km/h (0 Bft) N 0 0 min 0,000 mm 0,0 UV-I 0 W/m -1,1 C -0,7 C 0,0 km/h (0 Bft) 91,30 %
02.12.2023 08:40 23,8 C -0,7 C 57 % 97 % 1004,1 hPa 0,0 l/m 0,0 km/h (0 Bft) N 0 0 min 0,000 mm 0,0 UV-I 0 W/m -1,1 C -0,7 C 0,0 km/h (0 Bft) 95,65 %
02.12.2023 08:39 23,9 C -0,7 C 57 % 97 % 1004,1 hPa 0,0 l/m 0,0 km/h (0 Bft) N 0 0 min 0,000 mm 0,0 UV-I 0 W/m -1,1 C -0,7 C 0,0 km/h (0 Bft) 95,65 %
02.12.2023 08:38 23,9 C -0,7 C 57 % 97 % 1004,2 hPa 0,0 l/m 0,0 km/h (0 Bft) N 0 0 min 0,000 mm 0,0 UV-I 0 W/m -1,1 C -0,7 C 0,0 km/h (0 Bft) 86,96 %
02.12.2023 08:37 23,9 C -0,7 C 57 % 97 % 1004,2 hPa 0,0 l/m 0,0 km/h (0 Bft) N 0 0 min 0,000 mm 0,0 UV-I 0 W/m -1,1 C -0,7 C 0,0 km/h (0 Bft) 82,61 %
02.12.2023 08:36 23,9 C -0,7 C 57 % 97 % 1004,1 hPa 0,0 l/m 0,0 km/h (0 Bft) N 0 0 min 0,000 mm 0,0 UV-I 0 W/m -1,1 C -0,7 C 0,0 km/h (0 Bft) 78,26 %
02.12.2023 08:35 23,9 C -0,7 C 57 % 97 % 1004,2 hPa 0,0 l/m 0,0 km/h (0 Bft) N 0 0 min 0,000 mm 0,0 UV-I 0 W/m -1,1 C -0,7 C 0,0 km/h (0 Bft) 78,26 %
02.12.2023 08:34 23,9 C -0,7 C 57 % 97 % 1004,2 hPa 0,0 l/m 0,0 km/h (0 Bft) N 0 0 min 0,000 mm 0,0 UV-I 0 W/m -1,1 C -0,7 C 0,0 km/h (0 Bft) 60,87 %
02.12.2023 08:33 23,9 C -0,8 C 57 % 97 % 1004,2 hPa 0,0 l/m 0,0 km/h (0 Bft) N 0 0 min 0,000 mm 0,0 UV-I 0 W/m -1,2 C -0,8 C 0,0 km/h (0 Bft) 56,52 %
02.12.2023 08:32 23,8 C -0,9 C 57 % 97 % 1004,3 hPa 0,0 l/m 0,0 km/h (0 Bft) N 0 0 min 0,000 mm 0,0 UV-I 0 W/m -1,3 C -0,9 C 0,0 km/h (0 Bft) 86,96 %
02.12.2023 08:31 23,9 C -0,9 C 57 % 97 % 1004,4 hPa 0,0 l/m 0,0 km/h (0 Bft) N 0 0 min 0,000 mm 0,0 UV-I 0 W/m -1,3 C -0,9 C 0,0 km/h (0 Bft) 91,30 %
02.12.2023 08:30 23,9 C -0,9 C 57 % 97 % 1004,3 hPa 0,0 l/m 0,0 km/h (0 Bft) N 0 0 min 0,000 mm 0,0 UV-I 0 W/m -1,3 C -0,9 C 0,0 km/h (0 Bft) 95,65 %
02.12.2023 08:29 23,9 C -0,8 C 57 % 97 % 1004,3 hPa 0,0 l/m 0,0 km/h (0 Bft) N 0 0 min 0,000 mm 0,0 UV-I 0 W/m -1,2 C -0,8 C 0,0 km/h (0 Bft) 95,65 %
02.12.2023 08:28 23,9 C -0,8 C 57 % 97 % 1004,3 hPa 0,0 l/m 0,0 km/h (0 Bft) N 0 0 min 0,000 mm 0,0 UV-I 0 W/m -1,2 C -0,8 C 0,0 km/h (0 Bft) 91,30 %
02.12.2023 08:27 23,8 C -0,8 C 56 % 97 % 1004,3 hPa 0,0 l/m 0,0 km/h (0 Bft) N 0 0 min 0,000 mm 0,0 UV-I 0 W/m -1,2 C -0,8 C 0,0 km/h (0 Bft) 100,00 %
02.12.2023 08:26 23,9 C -0,7 C 57 % 97 % 1004,3 hPa 0,0 l/m 0,0 km/h (0 Bft) N 0 0 min 0,000 mm 0,0 UV-I 0 W/m -1,1 C -0,7 C 0,0 km/h (0 Bft) 95,65 %
02.12.2023 08:25 23,8 C -0,6 C 56 % 97 % 1004,4 hPa 0,0 l/m 0,0 km/h (0 Bft) N 0 0 min 0,000 mm 0,0 UV-I 0 W/m -1,0 C -0,6 C 0,0 km/h (0 Bft) 100,00 %
02.12.2023 08:24 23,8 C -0,6 C 56 % 97 % 1004,4 hPa 0,0 l/m 0,0 km/h (0 Bft) N 0 0 min 0,000 mm 0,0 UV-I 0 W/m -1,0 C -0,6 C 0,0 km/h (0 Bft) 91,30 %
02.12.2023 08:23 23,9 C -0,6 C 57 % 97 % 1004,5 hPa 0,0 l/m 0,0 km/h (0 Bft) N 0 0 min 0,000 mm 0,0 UV-I 0 W/m -1,0 C -0,6 C 0,0 km/h (0 Bft) 95,65 %
02.12.2023 08:22 23,9 C -0,6 C 56 % 97 % 1004,5 hPa 0,0 l/m 0,0 km/h (0 Bft) N 0 0 min 0,000 mm 0,0 UV-I 0 W/m -1,0 C -0,6 C 0,0 km/h (0 Bft) 95,65 %
02.12.2023 08:21 23,8 C -0,6 C 56 % 97 % 1004,4 hPa 0,0 l/m 0,0 km/h (0 Bft) N 0 0 min 0,000 mm 0,0 UV-I 0 W/m -1,0 C -0,6 C 0,0 km/h (0 Bft) 100,00 %
02.12.2023 08:20 23,8 C -0,6 C 56 % 97 % 1004,3 hPa 0,0 l/m 0,0 km/h (0 Bft) N 0 0 min 0,000 mm 0,0 UV-I 0 W/m -1,0 C -0,6 C 0,0 km/h (0 Bft) 100,00 %
02.12.2023 08:19 23,8 C -0,6 C 56 % 97 % 1004,3 hPa 0,0 l/m 0,0 km/h (0 Bft) N 0 0 min 0,000 mm 0,0 UV-I 0 W/m -1,0 C -0,6 C 0,0 km/h (0 Bft) 100,00 %
02.12.2023 08:18 23,9 C -0,6 C 56 % 97 % 1004,3 hPa 0,0 l/m 0,0 km/h (0 Bft) N 0 0 min 0,000 mm 0,0 UV-I 0 W/m -1,0 C -0,6 C 0,0 km/h (0 Bft) 100,00 %
02.12.2023 08:17 23,8 C -0,7 C 56 % 97 % 1004,3 hPa 0,0 l/m 0,0 km/h (0 Bft) N 0 0 min 0,000 mm 0,0 UV-I 0 W/m -1,1 C -0,7 C 0,0 km/h (0 Bft) 95,65 %
02.12.2023 08:16 23,9 C -0,7 C 56 % 97 % 1004,3 hPa 0,0 l/m 0,0 km/h (0 Bft) N 0 0 min 0,000 mm 0,0 UV-I 0 W/m -1,1 C -0,7 C 0,0 km/h (0 Bft) 100,00 %
02.12.2023 08:15 23,9 C -0,8 C 56 % 97 % 1004,3 hPa 0,0 l/m 0,0 km/h (0 Bft) N 0 0 min 0,000 mm 0,0 UV-I 0 W/m -1,2 C -0,8 C 0,0 km/h (0 Bft) 100,00 %
02.12.2023 08:14 23,8 C -0,9 C 56 % 96 % 1004,1 hPa 0,0 l/m 0,0 km/h (0 Bft) N 0 0 min 0,000 mm 0,0 UV-I 0 W/m -1,5 C -0,9 C 0,0 km/h (0 Bft) 95,65 %
02.12.2023 08:13 23,8 C -0,9 C 56 % 97 % 1004,0 hPa 0,0 l/m 0,0 km/h (0 Bft) N 0 0 min 0,000 mm 0,0 UV-I 0 W/m -1,3 C -0,9 C 0,0 km/h (0 Bft) 100,00 %
02.12.2023 08:12 23,8 C -0,9 C 56 % 97 % 1003,9 hPa 0,0 l/m 0,0 km/h (0 Bft) N 0 0 min 0,000 mm 0,0 UV-I 0 W/m -1,3 C -0,9 C 0,0 km/h (0 Bft) 95,65 %
02.12.2023 08:11 23,8 C -0,9 C 56 % 97 % 1003,9 hPa 0,0 l/m 0,0 km/h (0 Bft) N 0 0 min 0,000 mm 0,0 UV-I 0 W/m -1,3 C -0,9 C 0,0 km/h (0 Bft) 95,65 %
02.12.2023 08:10 23,9 C -0,8 C 56 % 97 % 1003,8 hPa 0,0 l/m 0,0 km/h (0 Bft) N 0 0 min 0,000 mm 0,0 UV-I 0 W/m -1,2 C -0,8 C 0,0 km/h (0 Bft) 91,30 %
02.12.2023 08:09 23,9 C -0,8 C 56 % 97 % 1003,9 hPa 0,0 l/m 0,0 km/h (0 Bft) N 0 0 min 0,000 mm 0,0 UV-I 0 W/m -1,2 C -0,8 C 0,0 km/h (0 Bft) 95,65 %
02.12.2023 08:08 23,8 C -0,7 C 56 % 97 % 1003,8 hPa 0,0 l/m 0,0 km/h (0 Bft) N 0 0 min 0,000 mm 0,0 UV-I 0 W/m -1,1 C -0,7 C 0,0 km/h (0 Bft) 100,00 %
02.12.2023 08:07 23,9 C -0,6 C 56 % 97 % 1003,7 hPa 0,0 l/m 0,0 km/h (0 Bft) N 0 0 min 0,000 mm 0,0 UV-I 0 W/m -1,0 C -0,6 C 0,0 km/h (0 Bft) 100,00 %
02.12.2023 08:06 23,8 C -0,6 C 56 % 97 % 1003,8 hPa 0,0 l/m 0,0 km/h (0 Bft) N 0 0 min 0,000 mm 0,0 UV-I 0 W/m -1,0 C -0,6 C 0,0 km/h (0 Bft) 95,65 %
02.12.2023 08:05 23,8 C -0,7 C 56 % 97 % 1003,8 hPa 0,0 l/m 0,0 km/h (0 Bft) N 0 0 min 0,000 mm 0,0 UV-I 0 W/m -1,1 C -0,7 C 0,0 km/h (0 Bft) 100,00 %
02.12.2023 08:04 23,9 C -0,7 C 56 % 97 % 1003,8 hPa 0,0 l/m 0,0 km/h (0 Bft) N 0 0 min 0,000 mm 0,0 UV-I 0 W/m -1,1 C -0,7 C 0,0 km/h (0 Bft) 95,65 %
02.12.2023 08:03 23,8 C -0,7 C 56 % 97 % 1003,8 hPa 0,0 l/m 0,0 km/h (0 Bft) N 0 0 min 0,000 mm 0,0 UV-I 0 W/m -1,1 C -0,7 C 0,0 km/h (0 Bft) 86,96 %
02.12.2023 08:02 23,8 C -0,7 C 56 % 97 % 1003,8 hPa 0,0 l/m 0,0 km/h (0 Bft) N 0 0 min 0,000 mm 0,0 UV-I 0 W/m -1,1 C -0,7 C 0,0 km/h (0 Bft) 100,00 %
02.12.2023 08:01 23,8 C -0,7 C 56 % 97 % 1003,9 hPa 0,0 l/m 0,0 km/h (0 Bft) N 0 0 min 0,000 mm 0,0 UV-I 0 W/m -1,1 C -0,7 C 0,0 km/h (0 Bft) 100,00 %
02.12.2023 08:00 23,8 C -0,7 C 56 % 97 % 1003,8 hPa 0,0 l/m 0,0 km/h (0 Bft) N 0 0 min 0,000 mm 0,0 UV-I 0 W/m -1,1 C -0,7 C 0,0 km/h (0 Bft) 95,65 %
02.12.2023 07:59 23,8 C -0,7 C 56 % 97 % 1003,8 hPa 0,0 l/m 0,0 km/h (0 Bft) N 0 0 min 0,000 mm 0,0 UV-I 0 W/m -1,1 C -0,7 C 0,0 km/h (0 Bft) 95,65 %
02.12.2023 07:58 23,8 C -0,7 C 56 % 97 % 1003,8 hPa 0,0 l/m 0,0 km/h (0 Bft) N 0 0 min 0,000 mm 0,0 UV-I 0 W/m -1,1 C -0,7 C 0,0 km/h (0 Bft) 100,00 %
02.12.2023 07:57 23,9 C -0,7 C 56 % 97 % 1003,7 hPa 0,0 l/m 0,0 km/h (0 Bft) N 0 0 min 0,000 mm 0,0 UV-I 0 W/m -1,1 C -0,7 C 0,0 km/h (0 Bft) 100,00 %
02.12.2023 07:56 23,9 C -0,7 C 56 % 97 % 1003,7 hPa 0,0 l/m 0,0 km/h (0 Bft) N 0 0 min 0,000 mm 0,0 UV-I 0 W/m -1,1 C -0,7 C 0,0 km/h (0 Bft) 86,96 %
02.12.2023 07:55 23,8 C -0,7 C 56 % 97 % 1003,7 hPa 0,0 l/m 0,0 km/h (0 Bft) N 0 0 min 0,000 mm 0,0 UV-I 0 W/m -1,1 C -0,7 C 0,0 km/h (0 Bft) 86,96 %
02.12.2023 07:54 23,8 C -0,7 C 56 % 97 % 1003,8 hPa 0,0 l/m 0,0 km/h (0 Bft) N 0 0 min 0,000 mm 0,0 UV-I 0 W/m -1,1 C -0,7 C 0,0 km/h (0 Bft) 100,00 %
02.12.2023 07:53 23,8 C -0,8 C 56 % 97 % 1003,7 hPa 0,0 l/m 0,0 km/h (0 Bft) N 0 0 min 0,000 mm 0,0 UV-I 0 W/m -1,2 C -0,8 C 0,0 km/h (0 Bft) 91,30 %
02.12.2023 07:52 23,8 C -0,8 C 56 % 97 % 1003,8 hPa 0,0 l/m 0,0 km/h (0 Bft) N 0 0 min 0,000 mm 0,0 UV-I 0 W/m -1,2 C -0,8 C 0,0 km/h (0 Bft) 100,00 %
02.12.2023 07:51 23,9 C -0,9 C 56 % 97 % 1003,8 hPa 0,0 l/m 0,0 km/h (0 Bft) N 0 0 min 0,000 mm 0,0 UV-I 0 W/m -1,3 C -0,9 C 0,0 km/h (0 Bft) 100,00 %
02.12.2023 07:50 23,8 C -1,0 C 56 % 97 % 1003,8 hPa 0,0 l/m 0,0 km/h (0 Bft) N 0 0 min 0,000 mm 0,0 UV-I 0 W/m -1,4 C -1,0 C 0,0 km/h (0 Bft) 100,00 %
02.12.2023 07:49 23,9 C -1,0 C 56 % 97 % 1003,7 hPa 0,0 l/m 0,0 km/h (0 Bft) N 0 0 min 0,000 mm 0,0 UV-I 0 W/m -1,4 C -1,0 C 0,0 km/h (0 Bft) 91,30 %
02.12.2023 07:48 23,8 C -1,0 C 56 % 97 % 1003,8 hPa 0,0 l/m 0,0 km/h (0 Bft) N 0 0 min 0,000 mm 0,0 UV-I 0 W/m -1,4 C -1,0 C 0,0 km/h (0 Bft) 100,00 %
02.12.2023 07:47 23,8 C -1,0 C 56 % 97 % 1003,8 hPa 0,0 l/m 0,0 km/h (0 Bft) N 0 0 min 0,000 mm 0,0 UV-I 0 W/m -1,4 C -1,0 C 0,0 km/h (0 Bft) 95,65 %
02.12.2023 07:46 23,8 C -1,0 C 56 % 97 % 1003,7 hPa 0,0 l/m 0,0 km/h (0 Bft) N 0 0 min 0,000 mm 0,0 UV-I 0 W/m -1,4 C -1,0 C 0,0 km/h (0 Bft) 86,96 %
02.12.2023 07:45 23,8 C -1,1 C 56 % 97 % 1003,7 hPa 0,0 l/m 0,0 km/h (0 Bft) N 0 0 min 0,000 mm 0,0 UV-I 0 W/m -1,5 C -1,1 C 0,0 km/h (0 Bft) 100,00 %
02.12.2023 07:44 23,8 C -1,1 C 56 % 97 % 1003,7 hPa 0,0 l/m 0,0 km/h (0 Bft) N 0 0 min 0,000 mm 0,0 UV-I 0 W/m -1,5 C -1,1 C 0,0 km/h (0 Bft) 95,65 %
02.12.2023 07:43 23,8 C -1,1 C 56 % 97 % 1003,6 hPa 0,0 l/m 0,0 km/h (0 Bft) N 0 0 min 0,000 mm 0,0 UV-I 0 W/m -1,5 C -1,1 C 0,0 km/h (0 Bft) 91,30 %
02.12.2023 07:42 23,9 C -1,1 C 56 % 97 % 1003,5 hPa 0,0 l/m 0,0 km/h (0 Bft) N 0 0 min 0,000 mm 0,0 UV-I 0 W/m -1,5 C -1,1 C 0,0 km/h (0 Bft) 91,30 %
02.12.2023 07:41 23,8 C -1,0 C 56 % 97 % 1003,5 hPa 0,0 l/m 0,0 km/h (0 Bft) N 0 0 min 0,000 mm 0,0 UV-I 0 W/m -1,4 C -1,0 C 0,0 km/h (0 Bft) 86,96 %
02.12.2023 07:40 23,8 C -1,1 C 56 % 97 % 1003,5 hPa 0,0 l/m 0,0 km/h (0 Bft) N 0 0 min 0,000 mm 0,0 UV-I 0 W/m -1,5 C -1,1 C 0,0 km/h (0 Bft) 86,96 %
02.12.2023 07:39 23,8 C -1,0 C 56 % 97 % 1003,5 hPa 0,0 l/m 0,0 km/h (0 Bft) N 0 0 min 0,000 mm 0,0 UV-I 0 W/m -1,4 C -1,0 C 0,0 km/h (0 Bft) 95,65 %
02.12.2023 07:38 23,8 C -1,1 C 56 % 97 % 1003,5 hPa 0,0 l/m 0,0 km/h (0 Bft) N 0 0 min 0,000 mm 0,0 UV-I 0 W/m -1,5 C -1,1 C 0,0 km/h (0 Bft) 95,65 %
02.12.2023 07:37 23,8 C -1,1 C 56 % 97 % 1003,5 hPa 0,0 l/m 0,0 km/h (0 Bft) N 0 0 min 0,000 mm 0,0 UV-I 0 W/m -1,5 C -1,1 C 0,0 km/h (0 Bft) 95,65 %
02.12.2023 07:36 23,8 C -1,2 C 56 % 97 % 1003,5 hPa 0,0 l/m 0,0 km/h (0 Bft) N 0 0 min 0,000 mm 0,0 UV-I 0 W/m -1,6 C -1,2 C 0,0 km/h (0 Bft) 91,30 %
02.12.2023 07:35 23,8 C -1,3 C 56 % 97 % 1003,6 hPa 0,0 l/m 0,0 km/h (0 Bft) N 0 0 min 0,000 mm 0,0 UV-I 0 W/m -1,7 C -1,3 C 0,0 km/h (0 Bft) 82,61 %
02.12.2023 07:34 23,8 C -1,3 C 56 % 97 % 1003,6 hPa 0,0 l/m 0,0 km/h (0 Bft) N 0 0 min 0,000 mm 0,0 UV-I 0 W/m -1,7 C -1,3 C 0,0 km/h (0 Bft) 73,91 %
02.12.2023 07:33 23,9 C -1,3 C 56 % 97 % 1003,5 hPa 0,0 l/m 0,0 km/h (0 Bft) N 0 0 min 0,000 mm 0,0 UV-I 0 W/m -1,7 C -1,3 C 0,0 km/h (0 Bft) 52,17 %
02.12.2023 07:32 23,8 C -1,2 C 56 % 97 % 1003,6 hPa 0,0 l/m 0,0 km/h (0 Bft) N 0 0 min 0,000 mm 0,0 UV-I 0 W/m -1,6 C -1,2 C 0,0 km/h (0 Bft) 86,96 %
02.12.2023 07:31 23,9 C -1,2 C 56 % 97 % 1003,5 hPa 0,0 l/m 0,0 km/h (0 Bft) N 0 0 min 0,000 mm 0,0 UV-I 0 W/m -1,6 C -1,2 C 0,0 km/h (0 Bft) 100,00 %
02.12.2023 07:30 23,8 C -1,2 C 56 % 97 % 1003,4 hPa 0,0 l/m 0,0 km/h (0 Bft) N 0 0 min 0,000 mm 0,0 UV-I 0 W/m -1,6 C -1,2 C 0,0 km/h (0 Bft) 100,00 %
02.12.2023 07:29 23,8 C -1,1 C 56 % 96 % 1003,3 hPa 0,0 l/m 0,0 km/h (0 Bft) N 0 0 min 0,000 mm 0,0 UV-I 0 W/m -1,7 C -1,1 C 0,0 km/h (0 Bft) 95,65 %
02.12.2023 07:28 23,8 C -1,1 C 56 % 97 % 1003,4 hPa 0,0 l/m 0,0 km/h (0 Bft) N 0 0 min 0,000 mm 0,0 UV-I 0 W/m -1,5 C -1,1 C 0,0 km/h (0 Bft) 95,65 %
02.12.2023 07:27 23,8 C -1,0 C 56 % 96 % 1003,3 hPa 0,0 l/m 0,0 km/h (0 Bft) N 0 0 min 0,000 mm 0,0 UV-I 0 W/m -1,6 C -1,0 C 0,0 km/h (0 Bft) 86,96 %
02.12.2023 07:26 23,8 C -1,0 C 56 % 97 % 1003,2 hPa 0,0 l/m 0,0 km/h (0 Bft) N 0 0 min 0,000 mm 0,0 UV-I 0 W/m -1,4 C -1,0 C 0,0 km/h (0 Bft) 100,00 %
02.12.2023 07:25 23,8 C -1,0 C 56 % 96 % 1003,2 hPa 0,0 l/m 0,0 km/h (0 Bft) N 0 0 min 0,000 mm 0,0 UV-I 0 W/m -1,6 C -1,0 C 0,0 km/h (0 Bft) 100,00 %
02.12.2023 07:24 23,8 C -1,1 C 56 % 96 % 1003,3 hPa 0,0 l/m 0,0 km/h (0 Bft) N 0 0 min 0,000 mm 0,0 UV-I 0 W/m -1,7 C -1,1 C 0,0 km/h (0 Bft) 100,00 %
02.12.2023 07:23 23,8 C -1,0 C 56 % 96 % 1003,4 hPa 0,0 l/m 0,0 km/h (0 Bft) N 0 0 min 0,000 mm 0,0 UV-I 0 W/m -1,6 C -1,0 C 0,0 km/h (0 Bft) 100,00 %
02.12.2023 07:22 23,8 C -1,0 C 56 % 96 % 1003,3 hPa 0,0 l/m 0,0 km/h (0 Bft) N 0 0 min 0,000 mm 0,0 UV-I 0 W/m -1,6 C -1,0 C 0,0 km/h (0 Bft) 100,00 %
02.12.2023 07:21 23,8 C -0,9 C 56 % 97 % 1003,4 hPa 0,0 l/m 0,0 km/h (0 Bft) N 0 0 min 0,000 mm 0,0 UV-I 0 W/m -1,3 C -0,9 C 0,0 km/h (0 Bft) 73,91 %
02.12.2023 07:20 23,8 C -0,8 C 56 % 97 % 1003,5 hPa 0,0 l/m 0,0 km/h (0 Bft) N 0 0 min 0,000 mm 0,0 UV-I 0 W/m -1,2 C -0,8 C 0,0 km/h (0 Bft) 86,96 %
02.12.2023 07:19 23,8 C -0,7 C 56 % 97 % 1003,4 hPa 0,0 l/m 0,0 km/h (0 Bft) N 0 0 min 0,000 mm 0,0 UV-I 0 W/m -1,1 C -0,7 C 0,0 km/h (0 Bft) 86,96 %
02.12.2023 07:18 23,8 C -0,6 C 56 % 97 % 1003,4 hPa 0,0 l/m 0,0 km/h (0 Bft) N 0 0 min 0,000 mm 0,0 UV-I 0 W/m -1,0 C -0,6 C 0,0 km/h (0 Bft) 82,61 %
02.12.2023 07:17 23,8 C -0,6 C 56 % 97 % 1003,3 hPa 0,0 l/m 0,0 km/h (0 Bft) N 0 0 min 0,000 mm 0,0 UV-I 0 W/m -1,0 C -0,6 C 0,0 km/h (0 Bft) 86,96 %
02.12.2023 07:16 23,9 C -0,5 C 56 % 97 % 1003,4 hPa 0,0 l/m 0,0 km/h (0 Bft) N 0 0 min 0,000 mm 0,0 UV-I 0 W/m -0,9 C -0,5 C 0,0 km/h (0 Bft) 86,96 %
02.12.2023 07:15 23,8 C -0,5 C 56 % 97 % 1003,3 hPa 0,0 l/m 0,0 km/h (0 Bft) N 0 0 min 0,000 mm 0,0 UV-I 0 W/m -0,9 C -0,5 C 0,0 km/h (0 Bft) 95,65 %
02.12.2023 07:14 23,9 C -0,5 C 56 % 97 % 1003,2 hPa 0,0 l/m 0,0 km/h (0 Bft) N 0 0 min 0,000 mm 0,0 UV-I 0 W/m -0,9 C -0,5 C 0,0 km/h (0 Bft) 95,65 %
02.12.2023 07:13 23,9 C -0,5 C 56 % 97 % 1003,0 hPa 0,0 l/m 0,0 km/h (0 Bft) N 0 0 min 0,000 mm 0,0 UV-I 0 W/m -0,9 C -0,5 C 0,0 km/h (0 Bft) 100,00 %
02.12.2023 07:12 23,8 C -0,5 C 56 % 97 % 1003,1 hPa 0,0 l/m 0,0 km/h (0 Bft) N 0 0 min 0,000 mm 0,0 UV-I 0 W/m -0,9 C -0,5 C 0,0 km/h (0 Bft) 86,96 %
02.12.2023 07:11 23,8 C -0,6 C 56 % 97 % 1003,0 hPa 0,0 l/m 0,0 km/h (0 Bft) N 0 0 min 0,000 mm 0,0 UV-I 0 W/m -1,0 C -0,6 C 0,0 km/h (0 Bft) 95,65 %
02.12.2023 07:10 23,8 C -0,6 C 56 % 97 % 1003,0 hPa 0,0 l/m 0,0 km/h (0 Bft) N 0 0 min 0,000 mm 0,0 UV-I 0 W/m -1,0 C -0,6 C 0,0 km/h (0 Bft) 91,30 %
02.12.2023 07:09 23,8 C -0,6 C 56 % 97 % 1003,0 hPa 0,0 l/m 0,0 km/h (0 Bft) N 0 0 min 0,000 mm 0,0 UV-I 0 W/m -1,0 C -0,6 C 0,0 km/h (0 Bft) 100,00 %
02.12.2023 07:08 23,9 C -0,7 C 56 % 97 % 1003,0 hPa 0,0 l/m 0,0 km/h (0 Bft) N 0 0 min 0,000 mm 0,0 UV-I 0 W/m -1,1 C -0,7 C 0,0 km/h (0 Bft) 86,96 %
02.12.2023 07:07 23,8 C -0,7 C 56 % 97 % 1003,0 hPa 0,0 l/m 0,0 km/h (0 Bft) N 0 0 min 0,000 mm 0,0 UV-I 0 W/m -1,1 C -0,7 C 0,0 km/h (0 Bft) 91,30 %
02.12.2023 07:06 23,8 C -0,8 C 56 % 97 % 1003,0 hPa 0,0 l/m 0,0 km/h (0 Bft) N 0 0 min 0,000 mm 0,0 UV-I 0 W/m -1,2 C -0,8 C 0,0 km/h (0 Bft) 100,00 %
02.12.2023 07:05 23,8 C -0,9 C 56 % 97 % 1003,1 hPa 0,0 l/m 0,0 km/h (0 Bft) N 0 0 min 0,000 mm 0,0 UV-I 0 W/m -1,3 C -0,9 C 0,0 km/h (0 Bft) 100,00 %
02.12.2023 07:04 23,8 C -0,9 C 56 % 97 % 1003,1 hPa 0,0 l/m 0,0 km/h (0 Bft) N 0 0 min 0,000 mm 0,0 UV-I 0 W/m -1,3 C -0,9 C 0,0 km/h (0 Bft) 95,65 %
02.12.2023 07:03 23,8 C -0,8 C 56 % 97 % 1003,0 hPa 0,0 l/m 0,0 km/h (0 Bft) N 0 0 min 0,000 mm 0,0 UV-I 0 W/m -1,2 C -0,8 C 0,0 km/h (0 Bft) 86,96 %
02.12.2023 07:02 23,8 C -0,8 C 56 % 97 % 1003,0 hPa 0,0 l/m 0,0 km/h (0 Bft) N 0 0 min 0,000 mm 0,0 UV-I 0 W/m -1,2 C -0,8 C 0,0 km/h (0 Bft) 100,00 %
02.12.2023 07:01 23,8 C -0,7 C 56 % 97 % 1003,0 hPa 0,0 l/m 0,0 km/h (0 Bft) N 0 0 min 0,000 mm 0,0 UV-I 0 W/m -1,1 C -0,7 C 0,0 km/h (0 Bft) 100,00 %
02.12.2023 07:00 23,8 C -0,7 C 56 % 97 % 1002,9 hPa 0,0 l/m 0,0 km/h (0 Bft) N 0 0 min 0,000 mm 0,0 UV-I 0 W/m -1,1 C -0,7 C 0,0 km/h (0 Bft) 95,65 %
02.12.2023 06:59 23,8 C -0,6 C 56 % 97 % 1002,9 hPa 0,0 l/m 0,0 km/h (0 Bft) N 0 0 min 0,000 mm 0,0 UV-I 0 W/m -1,0 C -0,6 C 0,0 km/h (0 Bft) 95,65 %
02.12.2023 06:58 23,8 C -0,6 C 56 % 97 % 1002,9 hPa 0,0 l/m 0,0 km/h (0 Bft) N 0 0 min 0,000 mm 0,0 UV-I 0 W/m -1,0 C -0,6 C 0,0 km/h (0 Bft) 100,00 %
02.12.2023 06:57 23,8 C -0,5 C 56 % 97 % 1002,9 hPa 0,0 l/m 0,0 km/h (0 Bft) N 0 0 min 0,000 mm 0,0 UV-I 0 W/m -0,9 C -0,5 C 0,0 km/h (0 Bft) 95,65 %
02.12.2023 06:56 23,8 C -0,4 C 56 % 97 % 1002,8 hPa 0,0 l/m 0,0 km/h (0 Bft) N 0 0 min 0,000 mm 0,0 UV-I 0 W/m -0,8 C -0,4 C 0,0 km/h (0 Bft) 100,00 %
02.12.2023 06:55 23,8 C -0,4 C 56 % 97 % 1002,9 hPa 0,0 l/m 0,0 km/h (0 Bft) N 0 0 min 0,000 mm 0,0 UV-I 0 W/m -0,8 C -0,4 C 0,0 km/h (0 Bft) 95,65 %
02.12.2023 06:54 23,8 C -0,4 C 56 % 97 % 1002,8 hPa 0,0 l/m 0,0 km/h (0 Bft) N 0 0 min 0,000 mm 0,0 UV-I 0 W/m -0,8 C -0,4 C 0,0 km/h (0 Bft) 95,65 %
02.12.2023 06:53 23,8 C -0,4 C 56 % 97 % 1002,9 hPa 0,0 l/m 0,0 km/h (0 Bft) N 0 0 min 0,000 mm 0,0 UV-I 0 W/m -0,8 C -0,4 C 0,0 km/h (0 Bft) 95,65 %
02.12.2023 06:52 23,8 C -0,4 C 56 % 97 % 1002,9 hPa 0,0 l/m 0,0 km/h (0 Bft) N 0 0 min 0,000 mm 0,0 UV-I 0 W/m -0,8 C -0,4 C 0,0 km/h (0 Bft) 95,65 %
02.12.2023 06:51 23,8 C -0,5 C 56 % 97 % 1003,0 hPa 0,0 l/m 0,0 km/h (0 Bft) N 0 0 min 0,000 mm 0,0 UV-I 0 W/m -0,9 C -0,5 C 0,0 km/h (0 Bft) 78,26 %
02.12.2023 06:50 23,8 C -0,4 C 56 % 97 % 1003,0 hPa 0,0 l/m 0,0 km/h (0 Bft) N 0 0 min 0,000 mm 0,0 UV-I 0 W/m -0,8 C -0,4 C 0,0 km/h (0 Bft) 91,30 %
02.12.2023 06:49 23,8 C -0,5 C 56 % 97 % 1003,0 hPa 0,0 l/m 0,0 km/h (0 Bft) N 0 0 min 0,000 mm 0,0 UV-I 0 W/m -0,9 C -0,5 C 0,0 km/h (0 Bft) 91,30 %
02.12.2023 06:48 23,8 C -0,5 C 56 % 97 % 1003,0 hPa 0,0 l/m 0,0 km/h (0 Bft) N 0 0 min 0,000 mm 0,0 UV-I 0 W/m -0,9 C -0,5 C 0,0 km/h (0 Bft) 100,00 %
02.12.2023 06:47 23,8 C -0,6 C 56 % 97 % 1003,0 hPa 0,0 l/m 0,0 km/h (0 Bft) N 0 0 min 0,000 mm 0,0 UV-I 0 W/m -1,0 C -0,6 C 0,0 km/h (0 Bft) 100,00 %
02.12.2023 06:46 23,9 C -0,7 C 56 % 97 % 1003,1 hPa 0,0 l/m 0,0 km/h (0 Bft) N 0 0 min 0,000 mm 0,0 UV-I 0 W/m -1,1 C -0,7 C 0,0 km/h (0 Bft) 95,65 %
02.12.2023 06:45 23,8 C -0,7 C 56 % 97 % 1003,1 hPa 0,0 l/m 0,0 km/h (0 Bft) N 0 0 min 0,000 mm 0,0 UV-I 0 W/m -1,1 C -0,7 C 0,0 km/h (0 Bft) 100,00 %
02.12.2023 06:44 23,8 C -0,8 C 56 % 97 % 1003,0 hPa 0,0 l/m 0,0 km/h (0 Bft) N 0 0 min 0,000 mm 0,0 UV-I 0 W/m -1,2 C -0,8 C 0,0 km/h (0 Bft) 100,00 %
02.12.2023 06:43 23,8 C -0,7 C 56 % 97 % 1002,9 hPa 0,0 l/m 0,0 km/h (0 Bft) N 0 0 min 0,000 mm 0,0 UV-I 0 W/m -1,1 C -0,7 C 0,0 km/h (0 Bft) 100,00 %
02.12.2023 06:42 23,8 C -0,7 C 56 % 97 % 1002,8 hPa 0,0 l/m 0,0 km/h (0 Bft) N 0 0 min 0,000 mm 0,0 UV-I 0 W/m -1,1 C -0,7 C 0,0 km/h (0 Bft) 95,65 %
02.12.2023 06:41 23,8 C -0,6 C 56 % 97 % 1002,8 hPa 0,0 l/m 0,0 km/h (0 Bft) N 0 0 min 0,000 mm 0,0 UV-I 0 W/m -1,0 C -0,6 C 0,0 km/h (0 Bft) 100,00 %
02.12.2023 06:40 23,8 C -0,5 C 56 % 97 % 1002,7 hPa 0,0 l/m 0,0 km/h (0 Bft) N 0 0 min 0,000 mm 0,0 UV-I 0 W/m -0,9 C -0,5 C 0,0 km/h (0 Bft) 100,00 %
02.12.2023 06:39 23,9 C -0,5 C 56 % 97 % 1002,6 hPa 0,0 l/m 0,0 km/h (0 Bft) N 0 0 min 0,000 mm 0,0 UV-I 0 W/m -0,9 C -0,5 C 0,0 km/h (0 Bft) 82,61 %
02.12.2023 06:38 23,9 C -0,5 C 56 % 97 % 1002,6 hPa 0,0 l/m 0,0 km/h (0 Bft) N 0 0 min 0,000 mm 0,0 UV-I 0 W/m -0,9 C -0,5 C 0,0 km/h (0 Bft) 82,61 %
02.12.2023 06:37 23,8 C -0,4 C 56 % 97 % 1002,7 hPa 0,0 l/m 0,0 km/h (0 Bft) N 0 0 min 0,000 mm 0,0 UV-I 0 W/m -0,8 C -0,4 C 0,0 km/h (0 Bft) 100,00 %
02.12.2023 06:36 23,9 C -0,4 C 56 % 97 % 1002,8 hPa 0,0 l/m 0,0 km/h (0 Bft) N 0 0 min 0,000 mm 0,0 UV-I 0 W/m -0,8 C -0,4 C 0,0 km/h (0 Bft) 100,00 %
02.12.2023 06:35 23,8 C -0,4 C 56 % 97 % 1002,8 hPa 0,0 l/m 0,0 km/h (0 Bft) N 0 0 min 0,000 mm 0,0 UV-I 0 W/m -0,8 C -0,4 C 0,0 km/h (0 Bft) 100,00 %
02.12.2023 06:34 23,8 C -0,4 C 56 % 97 % 1002,9 hPa 0,0 l/m 0,0 km/h (0 Bft) N 0 0 min 0,000 mm 0,0 UV-I 0 W/m -0,8 C -0,4 C 0,0 km/h (0 Bft) 91,30 %
02.12.2023 06:33 23,8 C -0,4 C 56 % 97 % 1002,8 hPa 0,0 l/m 0,0 km/h (0 Bft) N 0 0 min 0,000 mm 0,0 UV-I 0 W/m -0,8 C -0,4 C 0,0 km/h (0 Bft) 100,00 %
02.12.2023 06:32 23,8 C -0,4 C 56 % 97 % 1002,8 hPa 0,0 l/m 0,0 km/h (0 Bft) N 0 0 min 0,000 mm 0,0 UV-I 0 W/m -0,8 C -0,4 C 0,0 km/h (0 Bft) 91,30 %
02.12.2023 06:31 23,8 C -0,4 C 56 % 97 % 1002,8 hPa 0,0 l/m 0,0 km/h (0 Bft) N 0 0 min 0,000 mm 0,0 UV-I 0 W/m -0,8 C -0,4 C 0,0 km/h (0 Bft) 91,30 %
02.12.2023 06:30 23,8 C -0,4 C 56 % 97 % 1002,9 hPa 0,0 l/m 0,0 km/h (0 Bft) N 0 0 min 0,000 mm 0,0 UV-I 0 W/m -0,8 C -0,4 C 0,0 km/h (0 Bft) 86,96 %
02.12.2023 06:29 23,8 C -0,5 C 56 % 97 % 1002,8 hPa 0,0 l/m 0,0 km/h (0 Bft) N 0 0 min 0,000 mm 0,0 UV-I 0 W/m -0,9 C -0,5 C 0,0 km/h (0 Bft) 100,00 %
02.12.2023 06:28 23,8 C -0,5 C 56 % 97 % 1002,9 hPa 0,0 l/m 0,0 km/h (0 Bft) N 0 0 min 0,000 mm 0,0 UV-I 0 W/m -0,9 C -0,5 C 0,0 km/h (0 Bft) 100,00 %
02.12.2023 06:27 23,8 C -0,6 C 56 % 97 % 1003,0 hPa 0,0 l/m 0,0 km/h (0 Bft) N 0 0 min 0,000 mm 0,0 UV-I 0 W/m -1,0 C -0,6 C 0,0 km/h (0 Bft) 100,00 %
02.12.2023 06:26 23,8 C -0,8 C 56 % 97 % 1003,0 hPa 0,0 l/m 0,0 km/h (0 Bft) N 0 0 min 0,000 mm 0,0 UV-I 0 W/m -1,2 C -0,8 C 0,0 km/h (0 Bft) 91,30 %
02.12.2023 06:25 23,8 C -0,7 C 56 % 97 % 1003,0 hPa 0,0 l/m 0,0 km/h (0 Bft) N 0 0 min 0,000 mm 0,0 UV-I 0 W/m -1,1 C -0,7 C 0,0 km/h (0 Bft) 91,30 %
02.12.2023 06:24 23,8 C -0,7 C 56 % 97 % 1003,1 hPa 0,0 l/m 0,0 km/h (0 Bft) N 0 0 min 0,000 mm 0,0 UV-I 0 W/m -1,1 C -0,7 C 0,0 km/h (0 Bft) 100,00 %
02.12.2023 06:23 23,8 C -0,7 C 56 % 97 % 1003,1 hPa 0,0 l/m 0,0 km/h (0 Bft) N 0 0 min 0,000 mm 0,0 UV-I 0 W/m -1,1 C -0,7 C 0,0 km/h (0 Bft) 91,30 %
02.12.2023 06:22 23,8 C -0,6 C 56 % 97 % 1003,1 hPa 0,0 l/m 0,0 km/h (0 Bft) N 0 0 min 0,000 mm 0,0 UV-I 0 W/m -1,0 C -0,6 C 0,0 km/h (0 Bft) 100,00 %
02.12.2023 06:21 23,8 C -0,6 C 56 % 97 % 1003,1 hPa 0,0 l/m 0,0 km/h (0 Bft) N 0 0 min 0,000 mm 0,0 UV-I 0 W/m -1,0 C -0,6 C 0,0 km/h (0 Bft) 100,00 %
02.12.2023 06:20 23,8 C -0,5 C 56 % 97 % 1003,0 hPa 0,0 l/m 0,0 km/h (0 Bft) N 0 0 min 0,000 mm 0,0 UV-I 0 W/m -0,9 C -0,5 C 0,0 km/h (0 Bft) 100,00 %
02.12.2023 06:19 23,9 C -0,4 C 56 % 97 % 1003,1 hPa 0,0 l/m 0,0 km/h (0 Bft) N 0 0 min 0,000 mm 0,0 UV-I 0 W/m -0,8 C -0,4 C 0,0 km/h (0 Bft) 95,65 %
02.12.2023 06:18 23,8 C -0,3 C 56 % 97 % 1003,3 hPa 0,0 l/m 0,0 km/h (0 Bft) N 0 0 min 0,000 mm 0,0 UV-I 0 W/m -0,7 C -0,3 C 0,0 km/h (0 Bft) 91,30 %
02.12.2023 06:17 23,8 C -0,3 C 56 % 97 % 1003,2 hPa 0,0 l/m 0,0 km/h (0 Bft) N 0 0 min 0,000 mm 0,0 UV-I 0 W/m -0,7 C -0,3 C 0,0 km/h (0 Bft) 100,00 %
02.12.2023 06:16 23,9 C -0,3 C 56 % 97 % 1003,1 hPa 0,0 l/m 0,0 km/h (0 Bft) N 0 0 min 0,000 mm 0,0 UV-I 0 W/m -0,7 C -0,3 C 0,0 km/h (0 Bft) 100,00 %
02.12.2023 06:15 23,8 C -0,3 C 56 % 97 % 1003,1 hPa 0,0 l/m 0,0 km/h (0 Bft) N 0 0 min 0,000 mm 0,0 UV-I 0 W/m -0,7 C -0,3 C 0,0 km/h (0 Bft) 100,00 %
02.12.2023 06:14 23,8 C -0,4 C 56 % 97 % 1003,1 hPa 0,0 l/m 0,0 km/h (0 Bft) N 0 0 min 0,000 mm 0,0 UV-I 0 W/m -0,8 C -0,4 C 0,0 km/h (0 Bft) 100,00 %
02.12.2023 06:13 23,8 C -0,4 C 56 % 97 % 1003,0 hPa 0,0 l/m 0,0 km/h (0 Bft) N 0 0 min 0,000 mm 0,0 UV-I 0 W/m -0,8 C -0,4 C 0,0 km/h (0 Bft) 86,96 %
02.12.2023 06:12 23,8 C -0,4 C 56 % 97 % 1003,0 hPa 0,0 l/m 0,0 km/h (0 Bft) N 0 0 min 0,000 mm 0,0 UV-I 0 W/m -0,8 C -0,4 C 0,0 km/h (0 Bft) 95,65 %
02.12.2023 06:11 23,8 C -0,4 C 56 % 97 % 1002,9 hPa 0,0 l/m 0,0 km/h (0 Bft) N 0 0 min 0,000 mm 0,0 UV-I 0 W/m -0,8 C -0,4 C 0,0 km/h (0 Bft) 86,96 %
02.12.2023 06:10 23,8 C -0,4 C 56 % 97 % 1003,0 hPa 0,0 l/m 0,0 km/h (0 Bft) N 0 0 min 0,000 mm 0,0 UV-I 0 W/m -0,8 C -0,4 C 0,0 km/h (0 Bft) 100,00 %
02.12.2023 06:09 23,8 C -0,5 C 56 % 97 % 1002,9 hPa 0,0 l/m 0,0 km/h (0 Bft) N 0 0 min 0,000 mm 0,0 UV-I 0 W/m -0,9 C -0,5 C 0,0 km/h (0 Bft) 100,00 %
02.12.2023 06:08 23,8 C -0,6 C 56 % 97 % 1002,9 hPa 0,0 l/m 0,0 km/h (0 Bft) N 0 0 min 0,000 mm 0,0 UV-I 0 W/m -1,0 C -0,6 C 0,0 km/h (0 Bft) 95,65 %
02.12.2023 06:07 23,8 C -0,7 C 56 % 97 % 1003,0 hPa 0,0 l/m 0,0 km/h (0 Bft) N 0 0 min 0,000 mm 0,0 UV-I 0 W/m -1,1 C -0,7 C 0,0 km/h (0 Bft) 86,96 %
02.12.2023 06:06 23,8 C -0,6 C 56 % 97 % 1003,1 hPa 0,0 l/m 0,0 km/h (0 Bft) N 0 0 min 0,000 mm 0,0 UV-I 0 W/m -1,0 C -0,6 C 0,0 km/h (0 Bft) 100,00 %
02.12.2023 06:05 23,8 C -0,6 C 56 % 97 % 1003,0 hPa 0,0 l/m 0,0 km/h (0 Bft) N 0 0 min 0,000 mm 0,0 UV-I 0 W/m -1,0 C -0,6 C 0,0 km/h (0 Bft) 100,00 %
02.12.2023 06:04 23,8 C -0,6 C 56 % 97 % 1003,0 hPa 0,0 l/m 0,0 km/h (0 Bft) N 0 0 min 0,000 mm 0,0 UV-I 0 W/m -1,0 C -0,6 C 0,0 km/h (0 Bft) 95,65 %
02.12.2023 06:03 23,9 C -0,6 C 56 % 97 % 1002,9 hPa 0,0 l/m 0,0 km/h (0 Bft) N 0 0 min 0,000 mm 0,0 UV-I 0 W/m -1,0 C -0,6 C 0,0 km/h (0 Bft) 100,00 %
02.12.2023 06:02 23,8 C -0,5 C 56 % 97 % 1002,9 hPa 0,0 l/m 0,0 km/h (0 Bft) N 0 0 min 0,000 mm 0,0 UV-I 0 W/m -0,9 C -0,5 C 0,0 km/h (0 Bft) 91,30 %
02.12.2023 06:01 23,8 C -0,4 C 56 % 97 % 1002,7 hPa 0,0 l/m 0,0 km/h (0 Bft) N 0 0 min 0,000 mm 0,0 UV-I 0 W/m -0,8 C -0,4 C 0,0 km/h (0 Bft) 100,00 %
02.12.2023 06:00 23,8 C -0,4 C 56 % 97 % 1002,7 hPa 0,0 l/m 0,0 km/h (0 Bft) N 0 0 min 0,000 mm 0,0 UV-I 0 W/m -0,8 C -0,4 C 0,0 km/h (0 Bft) 100,00 %
02.12.2023 05:59 23,8 C -0,3 C 56 % 97 % 1002,7 hPa 0,0 l/m 0,0 km/h (0 Bft) N 0 0 min 0,000 mm 0,0 UV-I 0 W/m -0,7 C -0,3 C 0,0 km/h (0 Bft) 91,30 %
02.12.2023 05:58 23,9 C -0,3 C 56 % 97 % 1002,7 hPa 0,0 l/m 0,0 km/h (0 Bft) N 0 0 min 0,000 mm 0,0 UV-I 0 W/m -0,7 C -0,3 C 0,0 km/h (0 Bft) 100,00 %
02.12.2023 05:57 23,9 C -0,3 C 56 % 97 % 1002,6 hPa 0,0 l/m 0,0 km/h (0 Bft) N 0 0 min 0,000 mm 0,0 UV-I 0 W/m -0,7 C -0,3 C 0,0 km/h (0 Bft) 95,65 %
02.12.2023 05:56 23,8 C -0,3 C 56 % 97 % 1002,7 hPa 0,0 l/m 0,0 km/h (0 Bft) N 0 0 min 0,000 mm 0,0 UV-I 0 W/m -0,7 C -0,3 C 0,0 km/h (0 Bft) 100,00 %
02.12.2023 05:55 23,9 C -0,3 C 56 % 97 % 1002,7 hPa 0,0 l/m 0,0 km/h (0 Bft) N 0 0 min 0,000 mm 0,0 UV-I 0 W/m -0,7 C -0,3 C 0,0 km/h (0 Bft) 95,65 %
02.12.2023 05:54 23,8 C -0,3 C 56 % 97 % 1002,8 hPa 0,0 l/m 0,0 km/h (0 Bft) N 0 0 min 0,000 mm 0,0 UV-I 0 W/m -0,7 C -0,3 C 0,0 km/h (0 Bft) 100,00 %
02.12.2023 05:53 23,8 C -0,4 C 56 % 97 % 1002,9 hPa 0,0 l/m 0,0 km/h (0 Bft) N 0 0 min 0,000 mm 0,0 UV-I 0 W/m -0,8 C -0,4 C 0,0 km/h (0 Bft) 95,65 %
02.12.2023 05:52 23,8 C -0,4 C 56 % 97 % 1002,9 hPa 0,0 l/m 0,0 km/h (0 Bft) N 0 0 min 0,000 mm 0,0 UV-I 0 W/m -0,8 C -0,4 C 0,0 km/h (0 Bft) 100,00 %
02.12.2023 05:51 23,8 C -0,4 C 56 % 97 % 1002,9 hPa 0,0 l/m 0,0 km/h (0 Bft) N 0 0 min 0,000 mm 0,0 UV-I 0 W/m -0,8 C -0,4 C 0,0 km/h (0 Bft) 100,00 %
02.12.2023 05:50 23,8 C -0,5 C 56 % 97 % 1002,8 hPa 0,0 l/m 0,0 km/h (0 Bft) N 0 0 min 0,000 mm 0,0 UV-I 0 W/m -0,9 C -0,5 C 0,0 km/h (0 Bft) 95,65 %
02.12.2023 05:49 23,9 C -0,6 C 56 % 97 % 1002,9 hPa 0,0 l/m 0,0 km/h (0 Bft) N 0 0 min 0,000 mm 0,0 UV-I 0 W/m -1,0 C -0,6 C 0,0 km/h (0 Bft) 100,00 %
02.12.2023 05:48 23,8 C -0,6 C 56 % 97 % 1002,9 hPa 0,0 l/m 0,0 km/h (0 Bft) N 0 0 min 0,000 mm 0,0 UV-I 0 W/m -1,0 C -0,6 C 0,0 km/h (0 Bft) 100,00 %
02.12.2023 05:47 23,8 C -0,6 C 56 % 97 % 1002,9 hPa 0,0 l/m 0,0 km/h (0 Bft) N 0 0 min 0,000 mm 0,0 UV-I 0 W/m -1,0 C -0,6 C 0,0 km/h (0 Bft) 100,00 %
02.12.2023 05:46 23,8 C -0,5 C 56 % 97 % 1002,9 hPa 0,0 l/m 0,0 km/h (0 Bft) N 0 0 min 0,000 mm 0,0 UV-I 0 W/m -0,9 C -0,5 C 0,0 km/h (0 Bft) 95,65 %
02.12.2023 05:45 23,8 C -0,4 C 56 % 97 % 1003,0 hPa 0,0 l/m 0,0 km/h (0 Bft) N 0 0 min 0,000 mm 0,0 UV-I 0 W/m -0,8 C -0,4 C 0,0 km/h (0 Bft) 100,00 %
02.12.2023 05:44 23,8 C -0,3 C 56 % 97 % 1002,9 hPa 0,0 l/m 0,0 km/h (0 Bft) N 0 0 min 0,000 mm 0,0 UV-I 0 W/m -0,7 C -0,3 C 0,0 km/h (0 Bft) 91,30 %
02.12.2023 05:43 23,8 C -0,3 C 56 % 97 % 1003,0 hPa 0,0 l/m 0,0 km/h (0 Bft) N 0 0 min 0,000 mm 0,0 UV-I 0 W/m -0,7 C -0,3 C 0,0 km/h (0 Bft) 95,65 %
02.12.2023 05:42 23,8 C -0,2 C 56 % 97 % 1003,0 hPa 0,0 l/m 0,0 km/h (0 Bft) N 0 0 min 0,000 mm 0,0 UV-I 0 W/m -0,6 C -0,2 C 0,0 km/h (0 Bft) 95,65 %
02.12.2023 05:41 23,8 C -0,2 C 56 % 97 % 1003,0 hPa 0,0 l/m 0,0 km/h (0 Bft) N 0 0 min 0,000 mm 0,0 UV-I 0 W/m -0,6 C -0,2 C 0,0 km/h (0 Bft) 95,65 %
02.12.2023 05:40 23,8 C -0,3 C 56 % 97 % 1003,0 hPa 0,0 l/m 0,0 km/h (0 Bft) N 0 0 min 0,000 mm 0,0 UV-I 0 W/m -0,7 C -0,3 C 0,0 km/h (0 Bft) 100,00 %
02.12.2023 05:39 23,8 C -0,4 C 56 % 97 % 1002,9 hPa 0,0 l/m 0,0 km/h (0 Bft) N 0 0 min 0,000 mm 0,0 UV-I 0 W/m -0,8 C -0,4 C 0,0 km/h (0 Bft) 100,00 %
02.12.2023 05:38 23,8 C -0,4 C 56 % 97 % 1002,9 hPa 0,0 l/m 0,0 km/h (0 Bft) N 0 0 min 0,000 mm 0,0 UV-I 0 W/m -0,8 C -0,4 C 0,0 km/h (0 Bft) 95,65 %
02.12.2023 05:37 23,8 C -0,6 C 56 % 97 % 1003,0 hPa 0,0 l/m 0,0 km/h (0 Bft) N 0 0 min 0,000 mm 0,0 UV-I 0 W/m -1,0 C -0,6 C 0,0 km/h (0 Bft) 100,00 %
02.12.2023 05:36 23,8 C -0,6 C 56 % 97 % 1003,0 hPa 0,0 l/m 0,0 km/h (0 Bft) N 0 0 min 0,000 mm 0,0 UV-I 0 W/m -1,0 C -0,6 C 0,0 km/h (0 Bft) 91,30 %
02.12.2023 05:35 23,8 C -0,7 C 56 % 97 % 1003,0 hPa 0,0 l/m 0,0 km/h (0 Bft) N 0 0 min 0,000 mm 0,0 UV-I 0 W/m -1,1 C -0,7 C 0,0 km/h (0 Bft) 91,30 %
02.12.2023 05:34 23,8 C -0,7 C 56 % 97 % 1003,0 hPa 0,0 l/m 0,0 km/h (0 Bft) N 0 0 min 0,000 mm 0,0 UV-I 0 W/m -1,1 C -0,7 C 0,0 km/h (0 Bft) 86,96 %
02.12.2023 05:33 23,8 C -0,7 C 56 % 97 % 1003,0 hPa 0,0 l/m 0,0 km/h (0 Bft) N 0 0 min 0,000 mm 0,0 UV-I 0 W/m -1,1 C -0,7 C 0,0 km/h (0 Bft) 95,65 %
02.12.2023 05:32 23,8 C -0,7 C 56 % 97 % 1002,9 hPa 0,0 l/m 0,0 km/h (0 Bft) N 0 0 min 0,000 mm 0,0 UV-I 0 W/m -1,1 C -0,7 C 0,0 km/h (0 Bft) 95,65 %
02.12.2023 05:31 23,8 C -0,7 C 56 % 97 % 1002,9 hPa 0,0 l/m 0,0 km/h (0 Bft) N 0 0 min 0,000 mm 0,0 UV-I 0 W/m -1,1 C -0,7 C 0,0 km/h (0 Bft) 86,96 %
02.12.2023 05:30 23,8 C -0,7 C 56 % 97 % 1002,9 hPa 0,0 l/m 0,0 km/h (0 Bft) N 0 0 min 0,000 mm 0,0 UV-I 0 W/m -1,1 C -0,7 C 0,0 km/h (0 Bft) 100,00 %
02.12.2023 05:29 23,8 C -0,7 C 56 % 97 % 1002,8 hPa 0,0 l/m 0,0 km/h (0 Bft) N 0 0 min 0,000 mm 0,0 UV-I 0 W/m -1,1 C -0,7 C 0,0 km/h (0 Bft) 86,96 %
02.12.2023 05:28 23,8 C -0,7 C 56 % 97 % 1002,8 hPa 0,0 l/m 0,0 km/h (0 Bft) N 0 0 min 0,000 mm 0,0 UV-I 0 W/m -1,1 C -0,7 C 0,0 km/h (0 Bft) 100,00 %
02.12.2023 05:27 23,8 C -0,6 C 56 % 97 % 1002,8 hPa 0,0 l/m 0,0 km/h (0 Bft) N 0 0 min 0,000 mm 0,0 UV-I 0 W/m -1,0 C -0,6 C 0,0 km/h (0 Bft) 100,00 %
02.12.2023 05:26 23,8 C -0,7 C 56 % 97 % 1002,8 hPa 0,0 l/m 0,0 km/h (0 Bft) N 0 0 min 0,000 mm 0,0 UV-I 0 W/m -1,1 C -0,7 C 0,0 km/h (0 Bft) 100,00 %
02.12.2023 05:25 23,8 C -0,7 C 56 % 97 % 1002,8 hPa 0,0 l/m 0,0 km/h (0 Bft) N 0 0 min 0,000 mm 0,0 UV-I 0 W/m -1,1 C -0,7 C 0,0 km/h (0 Bft) 100,00 %
02.12.2023 05:24 23,8 C -0,7 C 56 % 97 % 1002,7 hPa 0,0 l/m 0,0 km/h (0 Bft) N 0 0 min 0,000 mm 0,0 UV-I 0 W/m -1,1 C -0,7 C 0,0 km/h (0 Bft) 100,00 %
02.12.2023 05:23 23,8 C -0,8 C 56 % 97 % 1002,7 hPa 0,0 l/m 0,0 km/h (0 Bft) N 0 0 min 0,000 mm 0,0 UV-I 0 W/m -1,2 C -0,8 C 0,0 km/h (0 Bft) 100,00 %
02.12.2023 05:22 23,8 C -0,8 C 56 % 97 % 1002,8 hPa 0,0 l/m 0,0 km/h (0 Bft) N 0 0 min 0,000 mm 0,0 UV-I 0 W/m -1,2 C -0,8 C 0,0 km/h (0 Bft) 95,65 %
02.12.2023 05:21 23,8 C -0,8 C 56 % 97 % 1002,8 hPa 0,0 l/m 0,0 km/h (0 Bft) N 0 0 min 0,000 mm 0,0 UV-I 0 W/m -1,2 C -0,8 C 0,0 km/h (0 Bft) 100,00 %
02.12.2023 05:20 23,8 C -0,8 C 56 % 97 % 1002,8 hPa 0,0 l/m 0,0 km/h (0 Bft) N 0 0 min 0,000 mm 0,0 UV-I 0 W/m -1,2 C -0,8 C 0,0 km/h (0 Bft) 95,65 %
02.12.2023 05:19 23,9 C -0,9 C 56 % 97 % 1002,8 hPa 0,0 l/m 0,0 km/h (0 Bft) N 0 0 min 0,000 mm 0,0 UV-I 0 W/m -1,3 C -0,9 C 0,0 km/h (0 Bft) 95,65 %
02.12.2023 05:18 23,8 C -0,9 C 56 % 97 % 1002,7 hPa 0,0 l/m 0,0 km/h (0 Bft) N 0 0 min 0,000 mm 0,0 UV-I 0 W/m -1,3 C -0,9 C 0,0 km/h (0 Bft) 100,00 %
02.12.2023 05:17 23,8 C -0,9 C 56 % 97 % 1002,7 hPa 0,0 l/m 0,0 km/h (0 Bft) N 0 0 min 0,000 mm 0,0 UV-I 0 W/m -1,3 C -0,9 C 0,0 km/h (0 Bft) 100,00 %
02.12.2023 05:16 23,8 C -1,1 C 56 % 97 % 1002,7 hPa 0,0 l/m 0,0 km/h (0 Bft) N 0 0 min 0,000 mm 0,0 UV-I 0 W/m -1,5 C -1,1 C 0,0 km/h (0 Bft) 91,30 %
02.12.2023 05:15 23,8 C -1,1 C 56 % 97 % 1002,8 hPa 0,0 l/m 0,0 km/h (0 Bft) N 0 0 min 0,000 mm 0,0 UV-I 0 W/m -1,5 C -1,1 C 0,0 km/h (0 Bft) 86,96 %
02.12.2023 05:14 23,8 C -1,1 C 56 % 97 % 1002,7 hPa 0,0 l/m 0,0 km/h (0 Bft) N 0 0 min 0,000 mm 0,0 UV-I 0 W/m -1,5 C -1,1 C 0,0 km/h (0 Bft) 100,00 %
02.12.2023 05:13 23,8 C -1,1 C 56 % 97 % 1002,7 hPa 0,0 l/m 0,0 km/h (0 Bft) N 0 0 min 0,000 mm 0,0 UV-I 0 W/m -1,5 C -1,1 C 0,0 km/h (0 Bft) 100,00 %
02.12.2023 05:12 23,8 C -0,9 C 56 % 97 % 1002,8 hPa 0,0 l/m 0,0 km/h (0 Bft) N 0 0 min 0,000 mm 0,0 UV-I 0 W/m -1,3 C -0,9 C 0,0 km/h (0 Bft) 100,00 %
02.12.2023 05:11 23,8 C -0,9 C 56 % 97 % 1002,8 hPa 0,0 l/m 0,0 km/h (0 Bft) N 0 0 min 0,000 mm 0,0 UV-I 0 W/m -1,3 C -0,9 C 0,0 km/h (0 Bft) 95,65 %
02.12.2023 05:10 23,8 C -1,0 C 56 % 97 % 1002,7 hPa 0,0 l/m 0,0 km/h (0 Bft) N 0 0 min 0,000 mm 0,0 UV-I 0 W/m -1,4 C -1,0 C 0,0 km/h (0 Bft) 91,30 %
02.12.2023 05:09 23,8 C -1,0 C 56 % 97 % 1002,7 hPa 0,0 l/m 0,0 km/h (0 Bft) N 0 0 min 0,000 mm 0,0 UV-I 0 W/m -1,4 C -1,0 C 0,0 km/h (0 Bft) 100,00 %
02.12.2023 05:08 23,8 C -1,0 C 56 % 97 % 1002,7 hPa 0,0 l/m 0,0 km/h (0 Bft) N 0 0 min 0,000 mm 0,0 UV-I 0 W/m -1,4 C -1,0 C 0,0 km/h (0 Bft) 78,26 %
02.12.2023 05:07 23,8 C -1,0 C 56 % 97 % 1002,8 hPa 0,0 l/m 0,0 km/h (0 Bft) N 0 0 min 0,000 mm 0,0 UV-I 0 W/m -1,4 C -1,0 C 0,0 km/h (0 Bft) 100,00 %
02.12.2023 05:06 23,8 C -0,9 C 56 % 97 % 1002,8 hPa 0,0 l/m 0,0 km/h (0 Bft) N 0 0 min 0,000 mm 0,0 UV-I 0 W/m -1,3 C -0,9 C 0,0 km/h (0 Bft) 91,30 %
02.12.2023 05:05 23,8 C -0,9 C 56 % 97 % 1002,7 hPa 0,0 l/m 0,0 km/h (0 Bft) N 0 0 min 0,000 mm 0,0 UV-I 0 W/m -1,3 C -0,9 C 0,0 km/h (0 Bft) 95,65 %
02.12.2023 05:04 23,8 C -0,9 C 56 % 97 % 1002,8 hPa 0,0 l/m 0,0 km/h (0 Bft) N 0 0 min 0,000 mm 0,0 UV-I 0 W/m -1,3 C -0,9 C 0,0 km/h (0 Bft) 100,00 %
02.12.2023 05:03 23,8 C -0,9 C 56 % 97 % 1002,8 hPa 0,0 l/m 0,0 km/h (0 Bft) N 0 0 min 0,000 mm 0,0 UV-I 0 W/m -1,3 C -0,9 C 0,0 km/h (0 Bft) 91,30 %
02.12.2023 05:02 23,8 C -0,9 C 56 % 97 % 1002,7 hPa 0,0 l/m 0,0 km/h (0 Bft) N 0 0 min 0,000 mm 0,0 UV-I 0 W/m -1,3 C -0,9 C 0,0 km/h (0 Bft) 100,00 %
02.12.2023 05:01 23,8 C -0,8 C 56 % 97 % 1002,7 hPa 0,0 l/m 0,0 km/h (0 Bft) N 0 0 min 0,000 mm 0,0 UV-I 0 W/m -1,2 C -0,8 C 0,0 km/h (0 Bft) 95,65 %
02.12.2023 05:00 23,8 C -0,8 C 56 % 97 % 1002,6 hPa 0,0 l/m 0,0 km/h (0 Bft) N 0 0 min 0,000 mm 0,0 UV-I 0 W/m -1,2 C -0,8 C 0,0 km/h (0 Bft) 100,00 %
02.12.2023 04:59 23,8 C -0,7 C 56 % 97 % 1002,6 hPa 0,0 l/m 0,0 km/h (0 Bft) N 0 0 min 0,000 mm 0,0 UV-I 0 W/m -1,1 C -0,7 C 0,0 km/h (0 Bft) 100,00 %
02.12.2023 04:58 23,8 C -0,6 C 56 % 97 % 1002,5 hPa 0,0 l/m 0,0 km/h (0 Bft) N 0 0 min 0,000 mm 0,0 UV-I 0 W/m -1,0 C -0,6 C 0,0 km/h (0 Bft) 86,96 %
02.12.2023 04:57 23,8 C -0,5 C 56 % 97 % 1002,5 hPa 0,0 l/m 0,0 km/h (0 Bft) N 0 0 min 0,000 mm 0,0 UV-I 0 W/m -0,9 C -0,5 C 0,0 km/h (0 Bft) 100,00 %
02.12.2023 04:56 23,8 C -0,4 C 56 % 97 % 1002,5 hPa 0,0 l/m 0,0 km/h (0 Bft) N 0 0 min 0,000 mm 0,0 UV-I 0 W/m -0,8 C -0,4 C 0,0 km/h (0 Bft) 86,96 %
02.12.2023 04:55 23,8 C -0,4 C 56 % 97 % 1002,5 hPa 0,0 l/m 0,0 km/h (0 Bft) N 0 0 min 0,000 mm 0,0 UV-I 0 W/m -0,8 C -0,4 C 0,0 km/h (0 Bft) 91,30 %
02.12.2023 04:54 23,8 C -0,4 C 56 % 97 % 1002,4 hPa 0,0 l/m 0,0 km/h (0 Bft) N 0 0 min 0,000 mm 0,0 UV-I 0 W/m -0,8 C -0,4 C 0,0 km/h (0 Bft) 86,96 %
02.12.2023 04:53 23,8 C -0,4 C 56 % 97 % 1002,6 hPa 0,0 l/m 0,0 km/h (0 Bft) N 0 0 min 0,000 mm 0,0 UV-I 0 W/m -0,8 C -0,4 C 0,0 km/h (0 Bft) 100,00 %
02.12.2023 04:52 23,8 C -0,4 C 56 % 97 % 1002,6 hPa 0,0 l/m 0,0 km/h (0 Bft) N 0 0 min 0,000 mm 0,0 UV-I 0 W/m -0,8 C -0,4 C 0,0 km/h (0 Bft) 91,30 %
02.12.2023 04:51 23,8 C -0,5 C 56 % 97 % 1002,6 hPa 0,0 l/m 0,0 km/h (0 Bft) N 0 0 min 0,000 mm 0,0 UV-I 0 W/m -0,9 C -0,5 C 0,0 km/h (0 Bft) 100,00 %
02.12.2023 04:50 23,8 C -0,6 C 56 % 97 % 1002,6 hPa 0,0 l/m 0,0 km/h (0 Bft) N 0 0 min 0,000 mm 0,0 UV-I 0 W/m -1,0 C -0,6 C 0,0 km/h (0 Bft) 95,65 %
02.12.2023 04:49 23,8 C -0,7 C 56 % 97 % 1002,6 hPa 0,0 l/m 0,0 km/h (0 Bft) N 0 0 min 0,000 mm 0,0 UV-I 0 W/m -1,1 C -0,7 C 0,0 km/h (0 Bft) 100,00 %
02.12.2023 04:48 23,8 C -0,8 C 56 % 97 % 1002,6 hPa 0,0 l/m 0,0 km/h (0 Bft) N 0 0 min 0,000 mm 0,0 UV-I 0 W/m -1,2 C -0,8 C 0,0 km/h (0 Bft) 100,00 %
02.12.2023 04:47 23,8 C -0,9 C 56 % 97 % 1002,6 hPa 0,0 l/m 0,0 km/h (0 Bft) N 0 0 min 0,000 mm 0,0 UV-I 0 W/m -1,3 C -0,9 C 0,0 km/h (0 Bft) 95,65 %
02.12.2023 04:46 23,8 C -1,0 C 56 % 97 % 1002,6 hPa 0,0 l/m 0,0 km/h (0 Bft) N 0 0 min 0,000 mm 0,0 UV-I 0 W/m -1,4 C -1,0 C 0,0 km/h (0 Bft) 95,65 %
02.12.2023 04:45 23,8 C -1,1 C 56 % 97 % 1002,6 hPa 0,0 l/m 0,0 km/h (0 Bft) N 0 0 min 0,000 mm 0,0 UV-I 0 W/m -1,5 C -1,1 C 0,0 km/h (0 Bft) 100,00 %
02.12.2023 04:44 23,8 C -1,1 C 56 % 97 % 1002,6 hPa 0,0 l/m 0,0 km/h (0 Bft) N 0 0 min 0,000 mm 0,0 UV-I 0 W/m -1,5 C -1,1 C 0,0 km/h (0 Bft) 91,30 %
02.12.2023 04:43 23,8 C -1,0 C 56 % 97 % 1002,6 hPa 0,0 l/m 0,0 km/h (0 Bft) N 0 0 min 0,000 mm 0,0 UV-I 0 W/m -1,4 C -1,0 C 0,0 km/h (0 Bft) 100,00 %
02.12.2023 04:42 23,8 C -1,0 C 56 % 97 % 1002,6 hPa 0,0 l/m 0,0 km/h (0 Bft) N 0 0 min 0,000 mm 0,0 UV-I 0 W/m -1,4 C -1,0 C 0,0 km/h (0 Bft) 95,65 %
02.12.2023 04:41 23,8 C -1,0 C 56 % 97 % 1002,6 hPa 0,0 l/m 0,0 km/h (0 Bft) N 0 0 min 0,000 mm 0,0 UV-I 0 W/m -1,4 C -1,0 C 0,0 km/h (0 Bft) 100,00 %
02.12.2023 04:40 23,8 C -0,9 C 56 % 97 % 1002,6 hPa 0,0 l/m 0,0 km/h (0 Bft) N 0 0 min 0,000 mm 0,0 UV-I 0 W/m -1,3 C -0,9 C 0,0 km/h (0 Bft) 91,30 %
02.12.2023 04:39 23,8 C -0,9 C 56 % 97 % 1002,6 hPa 0,0 l/m 0,0 km/h (0 Bft) N 0 0 min 0,000 mm 0,0 UV-I 0 W/m -1,3 C -0,9 C 0,0 km/h (0 Bft) 82,61 %
02.12.2023 04:38 23,8 C -0,9 C 56 % 97 % 1002,5 hPa 0,0 l/m 0,0 km/h (0 Bft) N 0 0 min 0,000 mm 0,0 UV-I 0 W/m -1,3 C -0,9 C 0,0 km/h (0 Bft) 100,00 %
02.12.2023 04:37 23,8 C -1,0 C 56 % 96 % 1002,5 hPa 0,0 l/m 0,0 km/h (0 Bft) N 0 0 min 0,000 mm 0,0 UV-I 0 W/m -1,6 C -1,0 C 0,0 km/h (0 Bft) 95,65 %
02.12.2023 04:36 23,8 C -0,9 C 56 % 97 % 1002,5 hPa 0,0 l/m 0,0 km/h (0 Bft) N 0 0 min 0,000 mm 0,0 UV-I 0 W/m -1,3 C -0,9 C 0,0 km/h (0 Bft) 100,00 %
02.12.2023 04:35 23,8 C -0,9 C 56 % 97 % 1002,4 hPa 0,0 l/m 0,0 km/h (0 Bft) N 0 0 min 0,000 mm 0,0 UV-I 0 W/m -1,3 C -0,9 C 0,0 km/h (0 Bft) 100,00 %
02.12.2023 04:34 23,8 C -0,8 C 56 % 97 % 1002,4 hPa 0,0 l/m 0,0 km/h (0 Bft) N 0 0 min 0,000 mm 0,0 UV-I 0 W/m -1,2 C -0,8 C 0,0 km/h (0 Bft) 100,00 %
02.12.2023 04:33 23,8 C -0,8 C 56 % 97 % 1002,4 hPa 0,0 l/m 0,0 km/h (0 Bft) N 0 0 min 0,000 mm 0,0 UV-I 0 W/m -1,2 C -0,8 C 0,0 km/h (0 Bft) 91,30 %
02.12.2023 04:32 23,8 C -0,7 C 56 % 97 % 1002,5 hPa 0,0 l/m 0,0 km/h (0 Bft) N 0 0 min 0,000 mm 0,0 UV-I 0 W/m -1,1 C -0,7 C 0,0 km/h (0 Bft) 95,65 %
02.12.2023 04:31 23,8 C -0,6 C 56 % 97 % 1002,4 hPa 0,0 l/m 0,0 km/h (0 Bft) N 0 0 min 0,000 mm 0,0 UV-I 0 W/m -1,0 C -0,6 C 0,0 km/h (0 Bft) 95,65 %
02.12.2023 04:30 23,8 C -0,5 C 56 % 97 % 1002,4 hPa 0,0 l/m 0,0 km/h (0 Bft) N 0 0 min 0,000 mm 0,0 UV-I 0 W/m -0,9 C -0,5 C 0,0 km/h (0 Bft) 100,00 %
02.12.2023 04:29 23,8 C -0,4 C 56 % 97 % 1002,4 hPa 0,0 l/m 0,0 km/h (0 Bft) N 0 0 min 0,000 mm 0,0 UV-I 0 W/m -0,8 C -0,4 C 0,0 km/h (0 Bft) 95,65 %
02.12.2023 04:28 23,8 C -0,4 C 56 % 97 % 1002,4 hPa 0,0 l/m 0,0 km/h (0 Bft) N 0 0 min 0,000 mm 0,0 UV-I 0 W/m -0,8 C -0,4 C 0,0 km/h (0 Bft) 91,30 %
02.12.2023 04:27 23,8 C -0,3 C 56 % 97 % 1002,4 hPa 0,0 l/m 0,0 km/h (0 Bft) N 0 0 min 0,000 mm 0,0 UV-I 0 W/m -0,7 C -0,3 C 0,0 km/h (0 Bft) 100,00 %
02.12.2023 04:26 23,8 C -0,4 C 56 % 97 % 1002,5 hPa 0,0 l/m 0,0 km/h (0 Bft) N 0 0 min 0,000 mm 0,0 UV-I 0 W/m -0,8 C -0,4 C 0,0 km/h (0 Bft) 86,96 %
02.12.2023 04:25 23,8 C -0,4 C 56 % 97 % 1002,4 hPa 0,0 l/m 0,0 km/h (0 Bft) N 0 0 min 0,000 mm 0,0 UV-I 0 W/m -0,8 C -0,4 C 0,0 km/h (0 Bft) 100,00 %
02.12.2023 04:24 23,8 C -0,4 C 56 % 97 % 1002,4 hPa 0,0 l/m 0,0 km/h (0 Bft) N 0 0 min 0,000 mm 0,0 UV-I 0 W/m -0,8 C -0,4 C 0,0 km/h (0 Bft) 100,00 %
02.12.2023 04:23 23,8 C -0,4 C 56 % 97 % 1002,3 hPa 0,0 l/m 0,0 km/h (0 Bft) N 0 0 min 0,000 mm 0,0 UV-I 0 W/m -0,8 C -0,4 C 0,0 km/h (0 Bft) 100,00 %
02.12.2023 04:22 23,8 C -0,5 C 56 % 97 % 1002,3 hPa 0,0 l/m 0,0 km/h (0 Bft) N 0 0 min 0,000 mm 0,0 UV-I 0 W/m -0,9 C -0,5 C 0,0 km/h (0 Bft) 100,00 %
02.12.2023 04:21 23,8 C -0,6 C 56 % 97 % 1002,4 hPa 0,0 l/m 0,0 km/h (0 Bft) N 0 0 min 0,000 mm 0,0 UV-I 0 W/m -1,0 C -0,6 C 0,0 km/h (0 Bft) 95,65 %
02.12.2023 04:20 23,8 C -0,6 C 56 % 97 % 1002,3 hPa 0,0 l/m 0,0 km/h (0 Bft) N 0 0 min 0,000 mm 0,0 UV-I 0 W/m -1,0 C -0,6 C 0,0 km/h (0 Bft) 100,00 %
02.12.2023 04:19 23,8 C -0,7 C 56 % 97 % 1002,3 hPa 0,0 l/m 0,0 km/h (0 Bft) N 0 0 min 0,000 mm 0,0 UV-I 0 W/m -1,1 C -0,7 C 0,0 km/h (0 Bft) 95,65 %
02.12.2023 04:18 23,8 C -0,8 C 56 % 97 % 1002,4 hPa 0,0 l/m 0,0 km/h (0 Bft) N 0 0 min 0,000 mm 0,0 UV-I 0 W/m -1,2 C -0,8 C 0,0 km/h (0 Bft) 95,65 %
02.12.2023 04:17 23,8 C -0,8 C 56 % 97 % 1002,3 hPa 0,0 l/m 0,0 km/h (0 Bft) N 0 0 min 0,000 mm 0,0 UV-I 0 W/m -1,2 C -0,8 C 0,0 km/h (0 Bft) 100,00 %
02.12.2023 04:16 23,8 C -0,8 C 56 % 97 % 1002,3 hPa 0,0 l/m 0,0 km/h (0 Bft) N 0 0 min 0,000 mm 0,0 UV-I 0 W/m -1,2 C -0,8 C 0,0 km/h (0 Bft) 95,65 %
02.12.2023 04:15 23,8 C -0,8 C 56 % 97 % 1002,3 hPa 0,0 l/m 0,0 km/h (0 Bft) N 0 0 min 0,000 mm 0,0 UV-I 0 W/m -1,2 C -0,8 C 0,0 km/h (0 Bft) 100,00 %
02.12.2023 04:14 23,8 C -0,7 C 56 % 97 % 1002,2 hPa 0,0 l/m 0,0 km/h (0 Bft) N 0 0 min 0,000 mm 0,0 UV-I 0 W/m -1,1 C -0,7 C 0,0 km/h (0 Bft) 95,65 %
02.12.2023 04:13 23,8 C -0,7 C 56 % 97 % 1002,2 hPa 0,0 l/m 0,0 km/h (0 Bft) N 0 0 min 0,000 mm 0,0 UV-I 0 W/m -1,1 C -0,7 C 0,0 km/h (0 Bft) 95,65 %
02.12.2023 04:12 23,8 C -0,7 C 56 % 97 % 1002,3 hPa 0,0 l/m 0,0 km/h (0 Bft) N 0 0 min 0,000 mm 0,0 UV-I 0 W/m -1,1 C -0,7 C 0,0 km/h (0 Bft) 95,65 %
02.12.2023 04:11 23,8 C -0,6 C 56 % 97 % 1002,2 hPa 0,0 l/m 0,0 km/h (0 Bft) N 0 0 min 0,000 mm 0,0 UV-I 0 W/m -1,0 C -0,6 C 0,0 km/h (0 Bft) 95,65 %
02.12.2023 04:10 23,8 C -0,6 C 56 % 97 % 1002,2 hPa 0,0 l/m 0,0 km/h (0 Bft) N 0 0 min 0,000 mm 0,0 UV-I 0 W/m -1,0 C -0,6 C 0,0 km/h (0 Bft) 100,00 %
02.12.2023 04:09 23,8 C -0,4 C 56 % 97 % 1002,2 hPa 0,0 l/m 0,0 km/h (0 Bft) N 0 0 min 0,000 mm 0,0 UV-I 0 W/m -0,8 C -0,4 C 0,0 km/h (0 Bft) 95,65 %
02.12.2023 04:08 23,8 C -0,4 C 56 % 97 % 1002,2 hPa 0,0 l/m 0,0 km/h (0 Bft) N 0 0 min 0,000 mm 0,0 UV-I 0 W/m -0,8 C -0,4 C 0,0 km/h (0 Bft) 100,00 %
02.12.2023 04:07 23,8 C -0,4 C 56 % 97 % 1002,2 hPa 0,0 l/m 0,0 km/h (0 Bft) N 0 0 min 0,000 mm 0,0 UV-I 0 W/m -0,8 C -0,4 C 0,0 km/h (0 Bft) 86,96 %
02.12.2023 04:06 23,8 C -0,4 C 56 % 97 % 1002,2 hPa 0,0 l/m 0,0 km/h (0 Bft) N 0 0 min 0,000 mm 0,0 UV-I 0 W/m -0,8 C -0,4 C 0,0 km/h (0 Bft) 100,00 %
02.12.2023 04:05 23,8 C -0,4 C 56 % 97 % 1002,3 hPa 0,0 l/m 0,0 km/h (0 Bft) N 0 0 min 0,000 mm 0,0 UV-I 0 W/m -0,8 C -0,4 C 0,0 km/h (0 Bft) 86,96 %
02.12.2023 04:04 23,8 C -0,4 C 56 % 97 % 1002,2 hPa 0,0 l/m 0,0 km/h (0 Bft) N 0 0 min 0,000 mm 0,0 UV-I 0 W/m -0,8 C -0,4 C 0,0 km/h (0 Bft) 91,30 %
02.12.2023 04:03 23,8 C -0,4 C 56 % 97 % 1002,3 hPa 0,0 l/m 0,0 km/h (0 Bft) N 0 0 min 0,000 mm 0,0 UV-I 0 W/m -0,8 C -0,4 C 0,0 km/h (0 Bft) 86,96 %
02.12.2023 04:02 23,8 C -0,5 C 56 % 97 % 1002,3 hPa 0,0 l/m 0,0 km/h (0 Bft) N 0 0 min 0,000 mm 0,0 UV-I 0 W/m -0,9 C -0,5 C 0,0 km/h (0 Bft) 95,65 %
02.12.2023 04:01 23,8 C -0,5 C 56 % 97 % 1002,3 hPa 0,0 l/m 0,0 km/h (0 Bft) N 0 0 min 0,000 mm 0,0 UV-I 0 W/m -0,9 C -0,5 C 0,0 km/h (0 Bft) 100,00 %
02.12.2023 04:00 23,8 C -0,6 C 56 % 97 % 1002,3 hPa 0,0 l/m 0,0 km/h (0 Bft) N 0 0 min 0,000 mm 0,0 UV-I 0 W/m -1,0 C -0,6 C 0,0 km/h (0 Bft) 95,65 %
02.12.2023 03:59 23,8 C -0,7 C 56 % 97 % 1002,3 hPa 0,0 l/m 0,0 km/h (0 Bft) N 0 0 min 0,000 mm 0,0 UV-I 0 W/m -1,1 C -0,7 C 0,0 km/h (0 Bft) 86,96 %
02.12.2023 03:58 23,8 C -0,8 C 56 % 97 % 1002,3 hPa 0,0 l/m 0,0 km/h (0 Bft) N 0 0 min 0,000 mm 0,0 UV-I 0 W/m -1,2 C -0,8 C 0,0 km/h (0 Bft) 95,65 %
02.12.2023 03:57 23,8 C -0,8 C 56 % 97 % 1002,4 hPa 0,0 l/m 0,0 km/h (0 Bft) N 0 0 min 0,000 mm 0,0 UV-I 0 W/m -1,2 C -0,8 C 0,0 km/h (0 Bft) 86,96 %
02.12.2023 03:56 23,8 C -0,8 C 56 % 97 % 1002,4 hPa 0,0 l/m 0,0 km/h (0 Bft) N 0 0 min 0,000 mm 0,0 UV-I 0 W/m -1,2 C -0,8 C 0,0 km/h (0 Bft) 100,00 %
02.12.2023 03:55 23,8 C -0,7 C 56 % 97 % 1002,4 hPa 0,0 l/m 0,0 km/h (0 Bft) N 0 0 min 0,000 mm 0,0 UV-I 0 W/m -1,1 C -0,7 C 0,0 km/h (0 Bft) 95,65 %
02.12.2023 03:54 23,8 C -0,7 C 56 % 97 % 1002,4 hPa 0,0 l/m 0,0 km/h (0 Bft) N 0 0 min 0,000 mm 0,0 UV-I 0 W/m -1,1 C -0,7 C 0,0 km/h (0 Bft) 100,00 %
02.12.2023 03:53 23,8 C -0,6 C 56 % 97 % 1002,4 hPa 0,0 l/m 0,0 km/h (0 Bft) N 0 0 min 0,000 mm 0,0 UV-I 0 W/m -1,0 C -0,6 C 0,0 km/h (0 Bft) 91,30 %
02.12.2023 03:52 23,8 C -0,6 C 56 % 97 % 1002,4 hPa 0,0 l/m 0,0 km/h (0 Bft) N 0 0 min 0,000 mm 0,0 UV-I 0 W/m -1,0 C -0,6 C 0,0 km/h (0 Bft) 95,65 %
02.12.2023 03:51 23,8 C -0,5 C 56 % 97 % 1002,4 hPa 0,0 l/m 0,0 km/h (0 Bft) N 0 0 min 0,000 mm 0,0 UV-I 0 W/m -0,9 C -0,5 C 0,0 km/h (0 Bft) 95,65 %
02.12.2023 03:50 23,8 C -0,4 C 56 % 97 % 1002,4 hPa 0,0 l/m 0,0 km/h (0 Bft) N 0 0 min 0,000 mm 0,0 UV-I 0 W/m -0,8 C -0,4 C 0,0 km/h (0 Bft) 91,30 %
02.12.2023 03:49 23,8 C -0,4 C 56 % 97 % 1002,4 hPa 0,0 l/m 0,0 km/h (0 Bft) N 0 0 min 0,000 mm 0,0 UV-I 0 W/m -0,8 C -0,4 C 0,0 km/h (0 Bft) 100,00 %
02.12.2023 03:48 23,8 C -0,4 C 56 % 97 % 1002,4 hPa 0,0 l/m 0,0 km/h (0 Bft) N 0 0 min 0,000 mm 0,0 UV-I 0 W/m -0,8 C -0,4 C 0,0 km/h (0 Bft) 95,65 %
02.12.2023 03:47 23,8 C -0,4 C 56 % 97 % 1002,4 hPa 0,0 l/m 0,0 km/h (0 Bft) N 0 0 min 0,000 mm 0,0 UV-I 0 W/m -0,8 C -0,4 C 0,0 km/h (0 Bft) 95,65 %
02.12.2023 03:46 23,8 C -0,4 C 56 % 97 % 1002,4 hPa 0,0 l/m 0,0 km/h (0 Bft) N 0 0 min 0,000 mm 0,0 UV-I 0 W/m -0,8 C -0,4 C 0,0 km/h (0 Bft) 100,00 %
02.12.2023 03:45 23,8 C -0,4 C 56 % 97 % 1002,4 hPa 0,0 l/m 0,0 km/h (0 Bft) N 0 0 min 0,000 mm 0,0 UV-I 0 W/m -0,8 C -0,4 C 0,0 km/h (0 Bft) 95,65 %
02.12.2023 03:44 23,8 C -0,4 C 56 % 97 % 1002,4 hPa 0,0 l/m 0,0 km/h (0 Bft) N 0 0 min 0,000 mm 0,0 UV-I 0 W/m -0,8 C -0,4 C 0,0 km/h (0 Bft) 95,65 %
02.12.2023 03:43 23,8 C -0,4 C 56 % 97 % 1002,4 hPa 0,0 l/m 0,0 km/h (0 Bft) N 0 0 min 0,000 mm 0,0 UV-I 0 W/m -0,8 C -0,4 C 0,0 km/h (0 Bft) 95,65 %
02.12.2023 03:42 23,8 C -0,5 C 56 % 97 % 1002,4 hPa 0,0 l/m 0,0 km/h (0 Bft) N 0 0 min 0,000 mm 0,0 UV-I 0 W/m -0,9 C -0,5 C 0,0 km/h (0 Bft) 95,65 %
02.12.2023 03:41 23,8 C -0,5 C 56 % 97 % 1002,3 hPa 0,0 l/m 0,0 km/h (0 Bft) N 0 0 min 0,000 mm 0,0 UV-I 0 W/m -0,9 C -0,5 C 0,0 km/h (0 Bft) 86,96 %
02.12.2023 03:40 23,8 C -0,6 C 56 % 97 % 1002,4 hPa 0,0 l/m 0,0 km/h (0 Bft) N 0 0 min 0,000 mm 0,0 UV-I 0 W/m -1,0 C -0,6 C 0,0 km/h (0 Bft) 95,65 %
02.12.2023 03:39 23,8 C -0,7 C 56 % 97 % 1002,4 hPa 0,0 l/m 0,0 km/h (0 Bft) N 0 0 min 0,000 mm 0,0 UV-I 0 W/m -1,1 C -0,7 C 0,0 km/h (0 Bft) 95,65 %
02.12.2023 03:38 23,8 C -0,7 C 56 % 97 % 1002,5 hPa 0,0 l/m 0,0 km/h (0 Bft) N 0 0 min 0,000 mm 0,0 UV-I 0 W/m -1,1 C -0,7 C 0,0 km/h (0 Bft) 100,00 %
02.12.2023 03:37 23,8 C -0,7 C 56 % 97 % 1002,5 hPa 0,0 l/m 0,0 km/h (0 Bft) N 0 0 min 0,000 mm 0,0 UV-I 0 W/m -1,1 C -0,7 C 0,0 km/h (0 Bft) 95,65 %
02.12.2023 03:36 23,8 C -0,6 C 56 % 97 % 1002,6 hPa 0,0 l/m 0,0 km/h (0 Bft) N 0 0 min 0,000 mm 0,0 UV-I 0 W/m -1,0 C -0,6 C 0,0 km/h (0 Bft) 95,65 %
02.12.2023 03:35 23,8 C -0,6 C 56 % 97 % 1002,5 hPa 0,0 l/m 0,0 km/h (0 Bft) N 0 0 min 0,000 mm 0,0 UV-I 0 W/m -1,0 C -0,6 C 0,0 km/h (0 Bft) 95,65 %
02.12.2023 03:34 23,8 C -0,6 C 56 % 97 % 1002,5 hPa 0,0 l/m 0,0 km/h (0 Bft) N 0 0 min 0,000 mm 0,0 UV-I 0 W/m -1,0 C -0,6 C 0,0 km/h (0 Bft) 95,65 %
02.12.2023 03:33 23,8 C -0,6 C 56 % 97 % 1002,5 hPa 0,0 l/m 0,0 km/h (0 Bft) N 0 0 min 0,000 mm 0,0 UV-I 0 W/m -1,0 C -0,6 C 0,0 km/h (0 Bft) 100,00 %
02.12.2023 03:32 23,8 C -0,4 C 56 % 97 % 1002,5 hPa 0,0 l/m 0,0 km/h (0 Bft) N 0 0 min 0,000 mm 0,0 UV-I 0 W/m -0,8 C -0,4 C 0,0 km/h (0 Bft) 100,00 %
02.12.2023 03:31 23,8 C -0,4 C 56 % 97 % 1002,4 hPa 0,0 l/m 0,0 km/h (0 Bft) N 0 0 min 0,000 mm 0,0 UV-I 0 W/m -0,8 C -0,4 C 0,0 km/h (0 Bft) 100,00 %
02.12.2023 03:30 23,8 C -0,4 C 56 % 97 % 1002,4 hPa 0,0 l/m 0,0 km/h (0 Bft) N 0 0 min 0,000 mm 0,0 UV-I 0 W/m -0,8 C -0,4 C 0,0 km/h (0 Bft) 78,26 %
02.12.2023 03:29 23,8 C -0,3 C 56 % 97 % 1002,4 hPa 0,0 l/m 0,0 km/h (0 Bft) N 0 0 min 0,000 mm 0,0 UV-I 0 W/m -0,7 C -0,3 C 0,0 km/h (0 Bft) 91,30 %
02.12.2023 03:28 23,8 C -0,4 C 56 % 97 % 1002,4 hPa 0,0 l/m 0,0 km/h (0 Bft) N 0 0 min 0,000 mm 0,0 UV-I 0 W/m -0,8 C -0,4 C 0,0 km/h (0 Bft) 100,00 %
02.12.2023 03:27 23,8 C -0,4 C 56 % 97 % 1002,4 hPa 0,0 l/m 0,0 km/h (0 Bft) N 0 0 min 0,000 mm 0,0 UV-I 0 W/m -0,8 C -0,4 C 0,0 km/h (0 Bft) 95,65 %
02.12.2023 03:26 23,8 C -0,4 C 56 % 97 % 1002,4 hPa 0,0 l/m 0,0 km/h (0 Bft) N 0 0 min 0,000 mm 0,0 UV-I 0 W/m -0,8 C -0,4 C 0,0 km/h (0 Bft) 95,65 %
02.12.2023 03:25 23,8 C -0,4 C 56 % 97 % 1002,4 hPa 0,0 l/m 0,0 km/h (0 Bft) N 0 0 min 0,000 mm 0,0 UV-I 0 W/m -0,8 C -0,4 C 0,0 km/h (0 Bft) 100,00 %
02.12.2023 03:24 23,8 C -0,4 C 56 % 97 % 1002,4 hPa 0,0 l/m 0,0 km/h (0 Bft) N 0 0 min 0,000 mm 0,0 UV-I 0 W/m -0,8 C -0,4 C 0,0 km/h (0 Bft) 95,65 %
02.12.2023 03:23 23,8 C -0,5 C 56 % 97 % 1002,4 hPa 0,0 l/m 0,0 km/h (0 Bft) N 0 0 min 0,000 mm 0,0 UV-I 0 W/m -0,9 C -0,5 C 0,0 km/h (0 Bft) 17,39 %
02.12.2023 03:22 23,8 C -0,6 C 56 % 97 % 1002,4 hPa 0,0 l/m 0,0 km/h (0 Bft) N 0 0 min 0,000 mm 0,0 UV-I 0 W/m -1,0 C -0,6 C 0,0 km/h (0 Bft) 56,52 %
02.12.2023 03:21 23,8 C -0,6 C 56 % 97 % 1002,4 hPa 0,0 l/m 0,0 km/h (0 Bft) N 0 0 min 0,000 mm 0,0 UV-I 0 W/m -1,0 C -0,6 C 0,0 km/h (0 Bft) 91,30 %
02.12.2023 03:20 23,8 C -0,7 C 56 % 97 % 1002,5 hPa 0,0 l/m 0,0 km/h (0 Bft) N 0 0 min 0,000 mm 0,0 UV-I 0 W/m -1,1 C -0,7 C 0,0 km/h (0 Bft) 100,00 %
02.12.2023 03:19 23,8 C -0,7 C 56 % 97 % 1002,5 hPa 0,0 l/m 0,0 km/h (0 Bft) N 0 0 min 0,000 mm 0,0 UV-I 0 W/m -1,1 C -0,7 C 0,0 km/h (0 Bft) 91,30 %
02.12.2023 03:18 23,8 C -0,7 C 56 % 97 % 1002,5 hPa 0,0 l/m 0,0 km/h (0 Bft) N 0 0 min 0,000 mm 0,0 UV-I 0 W/m -1,1 C -0,7 C 0,0 km/h (0 Bft) 100,00 %
02.12.2023 03:17 23,8 C -0,7 C 56 % 97 % 1002,5 hPa 0,0 l/m 0,0 km/h (0 Bft) N 0 0 min 0,000 mm 0,0 UV-I 0 W/m -1,1 C -0,7 C 0,0 km/h (0 Bft) 95,65 %
02.12.2023 03:16 23,8 C -0,7 C 56 % 97 % 1002,4 hPa 0,0 l/m 0,0 km/h (0 Bft) N 0 0 min 0,000 mm 0,0 UV-I 0 W/m -1,1 C -0,7 C 0,0 km/h (0 Bft) 95,65 %
02.12.2023 03:15 23,8 C -0,6 C 56 % 97 % 1002,5 hPa 0,0 l/m 0,0 km/h (0 Bft) N 0 0 min 0,000 mm 0,0 UV-I 0 W/m -1,0 C -0,6 C 0,0 km/h (0 Bft) 100,00 %
02.12.2023 03:14 23,8 C -0,5 C 56 % 97 % 1002,4 hPa 0,0 l/m 0,0 km/h (0 Bft) N 0 0 min 0,000 mm 0,0 UV-I 0 W/m -0,9 C -0,5 C 0,0 km/h (0 Bft) 95,65 %
02.12.2023 03:13 23,8 C -0,4 C 56 % 97 % 1002,5 hPa 0,0 l/m 0,0 km/h (0 Bft) N 0 0 min 0,000 mm 0,0 UV-I 0 W/m -0,8 C -0,4 C 0,0 km/h (0 Bft) 100,00 %
02.12.2023 03:12 23,8 C -0,4 C 56 % 97 % 1002,5 hPa 0,0 l/m 0,0 km/h (0 Bft) N 0 0 min 0,000 mm 0,0 UV-I 0 W/m -0,8 C -0,4 C 0,0 km/h (0 Bft) 100,00 %
02.12.2023 03:11 23,8 C -0,4 C 56 % 97 % 1002,4 hPa 0,0 l/m 0,0 km/h (0 Bft) N 0 0 min 0,000 mm 0,0 UV-I 0 W/m -0,8 C -0,4 C 0,0 km/h (0 Bft) 95,65 %
02.12.2023 03:10 23,8 C -0,4 C 56 % 97 % 1002,5 hPa 0,0 l/m 0,0 km/h (0 Bft) N 0 0 min 0,000 mm 0,0 UV-I 0 W/m -0,8 C -0,4 C 0,0 km/h (0 Bft) 100,00 %
02.12.2023 03:09 23,8 C -0,4 C 56 % 97 % 1002,4 hPa 0,0 l/m 0,0 km/h (0 Bft) N 0 0 min 0,000 mm 0,0 UV-I 0 W/m -0,8 C -0,4 C 0,0 km/h (0 Bft) 86,96 %
02.12.2023 03:08 23,8 C -0,4 C 56 % 97 % 1002,4 hPa 0,0 l/m 0,0 km/h (0 Bft) N 0 0 min 0,000 mm 0,0 UV-I 0 W/m -0,8 C -0,4 C 0,0 km/h (0 Bft) 95,65 %
02.12.2023 03:07 23,8 C -0,4 C 56 % 97 % 1002,5 hPa 0,0 l/m 0,0 km/h (0 Bft) N 0 0 min 0,000 mm 0,0 UV-I 0 W/m -0,8 C -0,4 C 0,0 km/h (0 Bft) 100,00 %
02.12.2023 03:06 23,8 C -0,4 C 56 % 97 % 1002,5 hPa 0,0 l/m 0,0 km/h (0 Bft) N 0 0 min 0,000 mm 0,0 UV-I 0 W/m -0,8 C -0,4 C 0,0 km/h (0 Bft) 100,00 %
02.12.2023 03:05 23,8 C -0,5 C 56 % 97 % 1002,5 hPa 0,0 l/m 0,0 km/h (0 Bft) N 0 0 min 0,000 mm 0,0 UV-I 0 W/m -0,9 C -0,5 C 0,0 km/h (0 Bft) 95,65 %
02.12.2023 03:04 23,8 C -0,5 C 56 % 97 % 1002,5 hPa 0,0 l/m 0,0 km/h (0 Bft) N 0 0 min 0,000 mm 0,0 UV-I 0 W/m -0,9 C -0,5 C 0,0 km/h (0 Bft) 100,00 %
02.12.2023 03:03 23,8 C -0,6 C 56 % 97 % 1002,5 hPa 0,0 l/m 0,0 km/h (0 Bft) N 0 0 min 0,000 mm 0,0 UV-I 0 W/m -1,0 C -0,6 C 0,0 km/h (0 Bft) 100,00 %
02.12.2023 03:02 23,8 C -0,7 C 56 % 97 % 1002,5 hPa 0,0 l/m 0,0 km/h (0 Bft) N 0 0 min 0,000 mm 0,0 UV-I 0 W/m -1,1 C -0,7 C 0,0 km/h (0 Bft) 91,30 %
02.12.2023 03:01 23,8 C -0,7 C 56 % 97 % 1002,4 hPa 0,0 l/m 0,0 km/h (0 Bft) N 0 0 min 0,000 mm 0,0 UV-I 0 W/m -1,1 C -0,7 C 0,0 km/h (0 Bft) 100,00 %
02.12.2023 03:00 23,8 C -0,7 C 56 % 97 % 1002,5 hPa 0,0 l/m 0,0 km/h (0 Bft) N 0 0 min 0,000 mm 0,0 UV-I 0 W/m -1,1 C -0,7 C 0,0 km/h (0 Bft) 95,65 %
02.12.2023 02:59 23,8 C -0,6 C 56 % 97 % 1002,5 hPa 0,0 l/m 0,0 km/h (0 Bft) N 0 0 min 0,000 mm 0,0 UV-I 0 W/m -1,0 C -0,6 C 0,0 km/h (0 Bft) 100,00 %
02.12.2023 02:58 23,8 C -0,6 C 56 % 97 % 1002,5 hPa 0,0 l/m 0,0 km/h (0 Bft) N 0 0 min 0,000 mm 0,0 UV-I 0 W/m -1,0 C -0,6 C 0,0 km/h (0 Bft) 95,65 %
02.12.2023 02:57 23,8 C -0,6 C 56 % 97 % 1002,4 hPa 0,0 l/m 0,0 km/h (0 Bft) N 0 0 min 0,000 mm 0,0 UV-I 0 W/m -1,0 C -0,6 C 0,0 km/h (0 Bft) 100,00 %
02.12.2023 02:56 23,8 C -0,5 C 56 % 97 % 1002,4 hPa 0,0 l/m 0,0 km/h (0 Bft) N 0 0 min 0,000 mm 0,0 UV-I 0 W/m -0,9 C -0,5 C 0,0 km/h (0 Bft) 100,00 %
02.12.2023 02:55 23,8 C -0,4 C 56 % 97 % 1002,4 hPa 0,0 l/m 0,0 km/h (0 Bft) N 0 0 min 0,000 mm 0,0 UV-I 0 W/m -0,8 C -0,4 C 0,0 km/h (0 Bft) 95,65 %
02.12.2023 02:54 23,8 C -0,3 C 56 % 97 % 1002,5 hPa 0,0 l/m 0,0 km/h (0 Bft) N 0 0 min 0,000 mm 0,0 UV-I 0 W/m -0,7 C -0,3 C 0,0 km/h (0 Bft) 100,00 %
02.12.2023 02:53 23,8 C -0,3 C 56 % 97 % 1002,5 hPa 0,0 l/m 0,0 km/h (0 Bft) N 0 0 min 0,000 mm 0,0 UV-I 0 W/m -0,7 C -0,3 C 0,0 km/h (0 Bft) 100,00 %
02.12.2023 02:52 23,8 C -0,3 C 56 % 97 % 1002,5 hPa 0,0 l/m 0,0 km/h (0 Bft) N 0 0 min 0,000 mm 0,0 UV-I 0 W/m -0,7 C -0,3 C 0,0 km/h (0 Bft) 100,00 %
02.12.2023 02:51 23,8 C -0,3 C 56 % 97 % 1002,5 hPa 0,0 l/m 0,0 km/h (0 Bft) N 0 0 min 0,000 mm 0,0 UV-I 0 W/m -0,7 C -0,3 C 0,0 km/h (0 Bft) 95,65 %
02.12.2023 02:50 23,8 C -0,4 C 56 % 97 % 1002,5 hPa 0,0 l/m 0,0 km/h (0 Bft) N 0 0 min 0,000 mm 0,0 UV-I 0 W/m -0,8 C -0,4 C 0,0 km/h (0 Bft) 100,00 %
02.12.2023 02:49 23,8 C -0,4 C 56 % 97 % 1002,5 hPa 0,0 l/m 0,0 km/h (0 Bft) N 0 0 min 0,000 mm 0,0 UV-I 0 W/m -0,8 C -0,4 C 0,0 km/h (0 Bft) 91,30 %
02.12.2023 02:48 23,8 C -0,4 C 56 % 97 % 1002,5 hPa 0,0 l/m 0,0 km/h (0 Bft) N 0 0 min 0,000 mm 0,0 UV-I 0 W/m -0,8 C -0,4 C 0,0 km/h (0 Bft) 91,30 %
02.12.2023 02:47 23,8 C -0,4 C 56 % 97 % 1002,5 hPa 0,0 l/m 0,0 km/h (0 Bft) N 0 0 min 0,000 mm 0,0 UV-I 0 W/m -0,8 C -0,4 C 0,0 km/h (0 Bft) 100,00 %
02.12.2023 02:46 23,8 C -0,5 C 56 % 97 % 1002,5 hPa 0,0 l/m 0,0 km/h (0 Bft) N 0 0 min 0,000 mm 0,0 UV-I 0 W/m -0,9 C -0,5 C 0,0 km/h (0 Bft) 100,00 %
02.12.2023 02:45 23,8 C -0,6 C 56 % 97 % 1002,5 hPa 0,0 l/m 0,0 km/h (0 Bft) N 0 0 min 0,000 mm 0,0 UV-I 0 W/m -1,0 C -0,6 C 0,0 km/h (0 Bft) 95,65 %
02.12.2023 02:44 23,8 C -0,7 C 56 % 97 % 1002,5 hPa 0,0 l/m 0,0 km/h (0 Bft) N 0 0 min 0,000 mm 0,0 UV-I 0 W/m -1,1 C -0,7 C 0,0 km/h (0 Bft) 95,65 %
02.12.2023 02:43 23,8 C -0,7 C 56 % 97 % 1002,5 hPa 0,0 l/m 0,0 km/h (0 Bft) N 0 0 min 0,000 mm 0,0 UV-I 0 W/m -1,1 C -0,7 C 0,0 km/h (0 Bft) 95,65 %
02.12.2023 02:42 23,8 C -0,6 C 56 % 97 % 1002,5 hPa 0,0 l/m 0,0 km/h (0 Bft) N 0 0 min 0,000 mm 0,0 UV-I 0 W/m -1,0 C -0,6 C 0,0 km/h (0 Bft) 95,65 %
02.12.2023 02:41 23,8 C -0,6 C 56 % 97 % 1002,5 hPa 0,0 l/m 0,0 km/h (0 Bft) N 0 0 min 0,000 mm 0,0 UV-I 0 W/m -1,0 C -0,6 C 0,0 km/h (0 Bft) 91,30 %
02.12.2023 02:40 23,8 C -0,4 C 56 % 97 % 1002,5 hPa 0,0 l/m 0,0 km/h (0 Bft) N 0 0 min 0,000 mm 0,0 UV-I 0 W/m -0,8 C -0,4 C 0,0 km/h (0 Bft) 100,00 %
02.12.2023 02:39 23,8 C -0,3 C 56 % 97 % 1002,5 hPa 0,0 l/m 0,0 km/h (0 Bft) N 0 0 min 0,000 mm 0,0 UV-I 0 W/m -0,7 C -0,3 C 0,0 km/h (0 Bft) 100,00 %
02.12.2023 02:38 23,8 C -0,2 C 56 % 97 % 1002,5 hPa 0,0 l/m 0,0 km/h (0 Bft) N 0 0 min 0,000 mm 0,0 UV-I 0 W/m -0,6 C -0,2 C 0,0 km/h (0 Bft) 100,00 %
02.12.2023 02:37 23,8 C -0,2 C 56 % 97 % 1002,5 hPa 0,0 l/m 0,0 km/h (0 Bft) N 0 0 min 0,000 mm 0,0 UV-I 0 W/m -0,6 C -0,2 C 0,0 km/h (0 Bft) 100,00 %
02.12.2023 02:36 23,8 C -0,3 C 56 % 97 % 1002,4 hPa 0,0 l/m 0,0 km/h (0 Bft) N 0 0 min 0,000 mm 0,0 UV-I 0 W/m -0,7 C -0,3 C 0,0 km/h (0 Bft) 100,00 %
02.12.2023 02:35 23,8 C -0,5 C 56 % 97 % 1002,5 hPa 0,0 l/m 0,0 km/h (0 Bft) N 0 0 min 0,000 mm 0,0 UV-I 0 W/m -0,9 C -0,5 C 0,0 km/h (0 Bft) 100,00 %
02.12.2023 02:34 23,8 C -0,5 C 56 % 97 % 1002,5 hPa 0,0 l/m 0,0 km/h (0 Bft) N 0 0 min 0,000 mm 0,0 UV-I 0 W/m -0,9 C -0,5 C 0,0 km/h (0 Bft) 91,30 %
02.12.2023 02:33 23,8 C -0,6 C 56 % 97 % 1002,5 hPa 0,0 l/m 0,0 km/h (0 Bft) N 0 0 min 0,000 mm 0,0 UV-I 0 W/m -1,0 C -0,6 C 0,0 km/h (0 Bft) 95,65 %
02.12.2023 02:32 23,8 C -0,7 C 56 % 97 % 1002,5 hPa 0,0 l/m 0,0 km/h (0 Bft) N 0 0 min 0,000 mm 0,0 UV-I 0 W/m -1,1 C -0,7 C 0,0 km/h (0 Bft) 91,30 %
02.12.2023 02:31 23,8 C -0,7 C 56 % 97 % 1002,5 hPa 0,0 l/m 0,0 km/h (0 Bft) N 0 0 min 0,000 mm 0,0 UV-I 0 W/m -1,1 C -0,7 C 0,0 km/h (0 Bft) 100,00 %
02.12.2023 02:30 23,8 C -0,7 C 56 % 97 % 1002,5 hPa 0,0 l/m 0,0 km/h (0 Bft) N 0 0 min 0,000 mm 0,0 UV-I 0 W/m -1,1 C -0,7 C 0,0 km/h (0 Bft) 95,65 %
02.12.2023 02:29 23,8 C -0,6 C 56 % 97 % 1002,5 hPa 0,0 l/m 0,0 km/h (0 Bft) N 0 0 min 0,000 mm 0,0 UV-I 0 W/m -1,0 C -0,6 C 0,0 km/h (0 Bft) 95,65 %
02.12.2023 02:28 23,8 C -0,7 C 56 % 97 % 1002,5 hPa 0,0 l/m 0,0 km/h (0 Bft) N 0 0 min 0,000 mm 0,0 UV-I 0 W/m -1,1 C -0,7 C 0,0 km/h (0 Bft) 100,00 %
02.12.2023 02:27 23,8 C -0,7 C 56 % 97 % 1002,5 hPa 0,0 l/m 0,0 km/h (0 Bft) N 0 0 min 0,000 mm 0,0 UV-I 0 W/m -1,1 C -0,7 C 0,0 km/h (0 Bft) 91,30 %
02.12.2023 02:26 23,8 C -0,8 C 56 % 97 % 1002,5 hPa 0,0 l/m 0,0 km/h (0 Bft) N 0 0 min 0,000 mm 0,0 UV-I 0 W/m -1,2 C -0,8 C 0,0 km/h (0 Bft) 95,65 %
02.12.2023 02:25 23,8 C -0,8 C 56 % 97 % 1002,5 hPa 0,0 l/m 0,0 km/h (0 Bft) N 0 0 min 0,000 mm 0,0 UV-I 0 W/m -1,2 C -0,8 C 0,0 km/h (0 Bft) 95,65 %
02.12.2023 02:24 23,8 C -0,8 C 56 % 97 % 1002,5 hPa 0,0 l/m 0,0 km/h (0 Bft) N 0 0 min 0,000 mm 0,0 UV-I 0 W/m -1,2 C -0,8 C 0,0 km/h (0 Bft) 100,00 %
02.12.2023 02:23 23,8 C -0,8 C 56 % 97 % 1002,5 hPa 0,0 l/m 0,0 km/h (0 Bft) N 0 0 min 0,000 mm 0,0 UV-I 0 W/m -1,2 C -0,8 C 0,0 km/h (0 Bft) 95,65 %
02.12.2023 02:22 23,8 C -0,7 C 56 % 97 % 1002,5 hPa 0,0 l/m 0,0 km/h (0 Bft) N 0 0 min 0,000 mm 0,0 UV-I 0 W/m -1,1 C -0,7 C 0,0 km/h (0 Bft) 95,65 %
02.12.2023 02:21 23,8 C -0,7 C 56 % 97 % 1002,5 hPa 0,0 l/m 0,0 km/h (0 Bft) N 0 0 min 0,000 mm 0,0 UV-I 0 W/m -1,1 C -0,7 C 0,0 km/h (0 Bft) 100,00 %
02.12.2023 02:20 23,8 C -0,7 C 56 % 97 % 1002,6 hPa 0,0 l/m 0,0 km/h (0 Bft) N 0 0 min 0,000 mm 0,0 UV-I 0 W/m -1,1 C -0,7 C 0,0 km/h (0 Bft) 86,96 %
02.12.2023 02:19 23,8 C -0,7 C 56 % 97 % 1002,5 hPa 0,0 l/m 0,0 km/h (0 Bft) N 0 0 min 0,000 mm 0,0 UV-I 0 W/m -1,1 C -0,7 C 0,0 km/h (0 Bft) 100,00 %
02.12.2023 02:18 23,8 C -0,8 C 56 % 97 % 1002,5 hPa 0,0 l/m 0,0 km/h (0 Bft) N 0 0 min 0,000 mm 0,0 UV-I 0 W/m -1,2 C -0,8 C 0,0 km/h (0 Bft) 95,65 %
02.12.2023 02:17 23,8 C -0,9 C 56 % 97 % 1002,6 hPa 0,0 l/m 0,0 km/h (0 Bft) N 0 0 min 0,000 mm 0,0 UV-I 0 W/m -1,3 C -0,9 C 0,0 km/h (0 Bft) 100,00 %
02.12.2023 02:16 23,8 C -0,9 C 56 % 97 % 1002,6 hPa 0,0 l/m 0,0 km/h (0 Bft) N 0 0 min 0,000 mm 0,0 UV-I 0 W/m -1,3 C -0,9 C 0,0 km/h (0 Bft) 95,65 %
02.12.2023 02:15 23,8 C -0,9 C 56 % 97 % 1002,6 hPa 0,0 l/m 0,0 km/h (0 Bft) N 0 0 min 0,000 mm 0,0 UV-I 0 W/m -1,3 C -0,9 C 0,0 km/h (0 Bft) 100,00 %
02.12.2023 02:14 23,8 C -0,8 C 56 % 97 % 1002,6 hPa 0,0 l/m 0,0 km/h (0 Bft) N 0 0 min 0,000 mm 0,0 UV-I 0 W/m -1,2 C -0,8 C 0,0 km/h (0 Bft) 95,65 %
02.12.2023 02:13 23,8 C -0,8 C 56 % 97 % 1002,7 hPa 0,0 l/m 0,0 km/h (0 Bft) N 0 0 min 0,000 mm 0,0 UV-I 0 W/m -1,2 C -0,8 C 0,0 km/h (0 Bft) 95,65 %
02.12.2023 02:12 23,8 C -0,8 C 56 % 97 % 1002,6 hPa 0,0 l/m 0,0 km/h (0 Bft) N 0 0 min 0,000 mm 0,0 UV-I 0 W/m -1,2 C -0,8 C 0,0 km/h (0 Bft) 100,00 %
02.12.2023 02:11 23,8 C -0,8 C 56 % 97 % 1002,6 hPa 0,0 l/m 0,0 km/h (0 Bft) N 0 0 min 0,000 mm 0,0 UV-I 0 W/m -1,2 C -0,8 C 0,0 km/h (0 Bft) 100,00 %
02.12.2023 02:10 23,8 C -0,7 C 56 % 97 % 1002,7 hPa 0,0 l/m 0,0 km/h (0 Bft) N 0 0 min 0,000 mm 0,0 UV-I 0 W/m -1,1 C -0,7 C 0,0 km/h (0 Bft) 100,00 %
02.12.2023 02:09 23,8 C -0,7 C 56 % 97 % 1002,6 hPa 0,0 l/m 0,0 km/h (0 Bft) N 0 0 min 0,000 mm 0,0 UV-I 0 W/m -1,1 C -0,7 C 0,0 km/h (0 Bft) 100,00 %
02.12.2023 02:08 23,8 C -0,7 C 56 % 97 % 1002,6 hPa 0,0 l/m 0,0 km/h (0 Bft) N 0 0 min 0,000 mm 0,0 UV-I 0 W/m -1,1 C -0,7 C 0,0 km/h (0 Bft) 95,65 %
02.12.2023 02:07 23,8 C -0,7 C 56 % 97 % 1002,5 hPa 0,0 l/m 0,0 km/h (0 Bft) N 0 0 min 0,000 mm 0,0 UV-I 0 W/m -1,1 C -0,7 C 0,0 km/h (0 Bft) 100,00 %
02.12.2023 02:06 23,8 C -0,7 C 56 % 97 % 1002,5 hPa 0,0 l/m 0,0 km/h (0 Bft) N 0 0 min 0,000 mm 0,0 UV-I 0 W/m -1,1 C -0,7 C 0,0 km/h (0 Bft) 95,65 %
02.12.2023 02:05 23,8 C -0,7 C 56 % 97 % 1002,5 hPa 0,0 l/m 0,0 km/h (0 Bft) N 0 0 min 0,000 mm 0,0 UV-I 0 W/m -1,1 C -0,7 C 0,0 km/h (0 Bft) 95,65 %
02.12.2023 02:04 23,8 C -0,7 C 56 % 97 % 1002,5 hPa 0,0 l/m 0,0 km/h (0 Bft) N 0 0 min 0,000 mm 0,0 UV-I 0 W/m -1,1 C -0,7 C 0,0 km/h (0 Bft) 95,65 %
02.12.2023 02:03 23,8 C -0,7 C 56 % 97 % 1002,5 hPa 0,0 l/m 0,0 km/h (0 Bft) N 0 0 min 0,000 mm 0,0 UV-I 0 W/m -1,1 C -0,7 C 0,0 km/h (0 Bft) 95,65 %
02.12.2023 02:02 23,8 C -0,6 C 56 % 97 % 1002,5 hPa 0,0 l/m 0,0 km/h (0 Bft) N 0 0 min 0,000 mm 0,0 UV-I 0 W/m -1,0 C -0,6 C 0,0 km/h (0 Bft) 100,00 %
02.12.2023 02:01 23,8 C -0,6 C 56 % 97 % 1002,5 hPa 0,0 l/m 0,0 km/h (0 Bft) N 0 0 min 0,000 mm 0,0 UV-I 0 W/m -1,0 C -0,6 C 0,0 km/h (0 Bft) 95,65 %
02.12.2023 02:00 23,8 C -0,5 C 56 % 97 % 1002,5 hPa 0,0 l/m 0,0 km/h (0 Bft) N 0 0 min 0,000 mm 0,0 UV-I 0 W/m -0,9 C -0,5 C 0,0 km/h (0 Bft) 100,00 %
02.12.2023 01:59 23,8 C -0,4 C 56 % 97 % 1002,5 hPa 0,0 l/m 0,0 km/h (0 Bft) N 0 0 min 0,000 mm 0,0 UV-I 0 W/m -0,8 C -0,4 C 0,0 km/h (0 Bft) 91,30 %
02.12.2023 01:58 23,8 C -0,4 C 56 % 97 % 1002,4 hPa 0,0 l/m 0,0 km/h (0 Bft) N 0 0 min 0,000 mm 0,0 UV-I 0 W/m -0,8 C -0,4 C 0,0 km/h (0 Bft) 100,00 %
02.12.2023 01:57 23,8 C -0,4 C 56 % 97 % 1002,4 hPa 0,0 l/m 0,0 km/h (0 Bft) N 0 0 min 0,000 mm 0,0 UV-I 0 W/m -0,8 C -0,4 C 0,0 km/h (0 Bft) 95,65 %
02.12.2023 01:56 23,8 C -0,3 C 56 % 97 % 1002,4 hPa 0,0 l/m 0,0 km/h (0 Bft) N 0 0 min 0,000 mm 0,0 UV-I 0 W/m -0,7 C -0,3 C 0,0 km/h (0 Bft) 95,65 %
02.12.2023 01:55 23,8 C -0,3 C 56 % 97 % 1002,4 hPa 0,0 l/m 0,0 km/h (0 Bft) N 0 0 min 0,000 mm 0,0 UV-I 0 W/m -0,7 C -0,3 C 0,0 km/h (0 Bft) 100,00 %
02.12.2023 01:54 23,8 C -0,3 C 56 % 97 % 1002,3 hPa 0,0 l/m 0,0 km/h (0 Bft) N 0 0 min 0,000 mm 0,0 UV-I 0 W/m -0,7 C -0,3 C 0,0 km/h (0 Bft) 91,30 %
02.12.2023 01:53 23,8 C -0,3 C 56 % 97 % 1002,4 hPa 0,0 l/m 0,0 km/h (0 Bft) N 0 0 min 0,000 mm 0,0 UV-I 0 W/m -0,7 C -0,3 C 0,0 km/h (0 Bft) 100,00 %
02.12.2023 01:52 23,8 C -0,4 C 56 % 97 % 1002,4 hPa 0,0 l/m 0,0 km/h (0 Bft) N 0 0 min 0,000 mm 0,0 UV-I 0 W/m -0,8 C -0,4 C 0,0 km/h (0 Bft) 95,65 %
02.12.2023 01:51 23,8 C -0,4 C 56 % 97 % 1002,4 hPa 0,0 l/m 0,0 km/h (0 Bft) N 0 0 min 0,000 mm 0,0 UV-I 0 W/m -0,8 C -0,4 C 0,0 km/h (0 Bft) 100,00 %
02.12.2023 01:50 23,8 C -0,4 C 56 % 97 % 1002,3 hPa 0,0 l/m 0,0 km/h (0 Bft) N 0 0 min 0,000 mm 0,0 UV-I 0 W/m -0,8 C -0,4 C 0,0 km/h (0 Bft) 95,65 %
02.12.2023 01:49 23,8 C -0,4 C 56 % 97 % 1002,4 hPa 0,0 l/m 0,0 km/h (0 Bft) N 0 0 min 0,000 mm 0,0 UV-I 0 W/m -0,8 C -0,4 C 0,0 km/h (0 Bft) 91,30 %
02.12.2023 01:48 23,8 C -0,4 C 56 % 97 % 1002,3 hPa 0,0 l/m 0,0 km/h (0 Bft) N 0 0 min 0,000 mm 0,0 UV-I 0 W/m -0,8 C -0,4 C 0,0 km/h (0 Bft) 100,00 %
02.12.2023 01:47 23,8 C -0,5 C 56 % 97 % 1002,4 hPa 0,0 l/m 0,0 km/h (0 Bft) N 0 0 min 0,000 mm 0,0 UV-I 0 W/m -0,9 C -0,5 C 0,0 km/h (0 Bft) 100,00 %
02.12.2023 01:46 23,8 C -0,5 C 56 % 97 % 1002,4 hPa 0,0 l/m 0,0 km/h (0 Bft) N 0 0 min 0,000 mm 0,0 UV-I 0 W/m -0,9 C -0,5 C 0,0 km/h (0 Bft) 95,65 %
02.12.2023 01:45 23,8 C -0,5 C 56 % 97 % 1002,4 hPa 0,0 l/m 0,0 km/h (0 Bft) N 0 0 min 0,000 mm 0,0 UV-I 0 W/m -0,9 C -0,5 C 0,0 km/h (0 Bft) 95,65 %
02.12.2023 01:44 23,8 C -0,5 C 56 % 97 % 1002,5 hPa 0,0 l/m 0,0 km/h (0 Bft) N 0 0 min 0,000 mm 0,0 UV-I 0 W/m -0,9 C -0,5 C 0,0 km/h (0 Bft) 95,65 %
02.12.2023 01:43 23,8 C -0,6 C 56 % 97 % 1002,5 hPa 0,0 l/m 0,0 km/h (0 Bft) N 0 0 min 0,000 mm 0,0 UV-I 0 W/m -1,0 C -0,6 C 0,0 km/h (0 Bft) 100,00 %
02.12.2023 01:42 23,8 C -0,5 C 56 % 97 % 1002,6 hPa 0,0 l/m 0,0 km/h (0 Bft) N 0 0 min 0,000 mm 0,0 UV-I 0 W/m -0,9 C -0,5 C 0,0 km/h (0 Bft) 95,65 %
02.12.2023 01:41 23,8 C -0,4 C 56 % 97 % 1002,6 hPa 0,0 l/m 0,0 km/h (0 Bft) N 0 0 min 0,000 mm 0,0 UV-I 0 W/m -0,8 C -0,4 C 0,0 km/h (0 Bft) 100,00 %
02.12.2023 01:40 23,8 C -0,4 C 56 % 97 % 1002,6 hPa 0,0 l/m 0,0 km/h (0 Bft) N 0 0 min 0,000 mm 0,0 UV-I 0 W/m -0,8 C -0,4 C 0,0 km/h (0 Bft) 91,30 %
02.12.2023 01:39 23,8 C -0,4 C 56 % 97 % 1002,6 hPa 0,0 l/m 0,0 km/h (0 Bft) N 0 0 min 0,000 mm 0,0 UV-I 0 W/m -0,8 C -0,4 C 0,0 km/h (0 Bft) 100,00 %
02.12.2023 01:38 23,8 C -0,3 C 56 % 97 % 1002,7 hPa 0,0 l/m 0,0 km/h (0 Bft) N 0 0 min 0,000 mm 0,0 UV-I 0 W/m -0,7 C -0,3 C 0,0 km/h (0 Bft) 91,30 %
02.12.2023 01:37 23,8 C -0,3 C 56 % 97 % 1002,6 hPa 0,0 l/m 0,0 km/h (0 Bft) N 0 0 min 0,000 mm 0,0 UV-I 0 W/m -0,7 C -0,3 C 0,0 km/h (0 Bft) 100,00 %
02.12.2023 01:36 23,8 C -0,3 C 56 % 97 % 1002,6 hPa 0,0 l/m 0,0 km/h (0 Bft) N 0 0 min 0,000 mm 0,0 UV-I 0 W/m -0,7 C -0,3 C 0,0 km/h (0 Bft) 95,65 %
02.12.2023 01:35 23,8 C -0,3 C 56 % 97 % 1002,6 hPa 0,0 l/m 0,0 km/h (0 Bft) N 0 0 min 0,000 mm 0,0 UV-I 0 W/m -0,7 C -0,3 C 0,0 km/h (0 Bft) 95,65 %
02.12.2023 01:34 23,8 C -0,3 C 56 % 97 % 1002,6 hPa 0,0 l/m 0,0 km/h (0 Bft) N 0 0 min 0,000 mm 0,0 UV-I 0 W/m -0,7 C -0,3 C 0,0 km/h (0 Bft) 100,00 %
02.12.2023 01:33 23,8 C -0,3 C 56 % 97 % 1002,6 hPa 0,0 l/m 0,0 km/h (0 Bft) N 0 0 min 0,000 mm 0,0 UV-I 0 W/m -0,7 C -0,3 C 0,0 km/h (0 Bft) 95,65 %
02.12.2023 01:32 23,8 C -0,3 C 56 % 97 % 1002,6 hPa 0,0 l/m 0,0 km/h (0 Bft) N 0 0 min 0,000 mm 0,0 UV-I 0 W/m -0,7 C -0,3 C 0,0 km/h (0 Bft) 95,65 %
02.12.2023 01:31 23,8 C -0,3 C 56 % 97 % 1002,6 hPa 0,0 l/m 0,0 km/h (0 Bft) N 0 0 min 0,000 mm 0,0 UV-I 0 W/m -0,7 C -0,3 C 0,0 km/h (0 Bft) 91,30 %
02.12.2023 01:30 23,8 C -0,4 C 56 % 97 % 1002,6 hPa 0,0 l/m 0,0 km/h (0 Bft) N 0 0 min 0,000 mm 0,0 UV-I 0 W/m -0,8 C -0,4 C 0,0 km/h (0 Bft) 100,00 %
02.12.2023 01:29 23,8 C -0,4 C 56 % 97 % 1002,6 hPa 0,0 l/m 0,0 km/h (0 Bft) N 0 0 min 0,000 mm 0,0 UV-I 0 W/m -0,8 C -0,4 C 0,0 km/h (0 Bft) 95,65 %
02.12.2023 01:28 23,8 C -0,4 C 56 % 97 % 1002,5 hPa 0,0 l/m 0,0 km/h (0 Bft) N 0 0 min 0,000 mm 0,0 UV-I 0 W/m -0,8 C -0,4 C 0,0 km/h (0 Bft) 95,65 %
02.12.2023 01:27 23,8 C -0,5 C 56 % 97 % 1002,5 hPa 0,0 l/m 0,0 km/h (0 Bft) N 0 0 min 0,000 mm 0,0 UV-I 0 W/m -0,9 C -0,5 C 0,0 km/h (0 Bft) 100,00 %
02.12.2023 01:26 23,8 C -0,5 C 56 % 97 % 1002,4 hPa 0,0 l/m 0,0 km/h (0 Bft) N 0 0 min 0,000 mm 0,0 UV-I 0 W/m -0,9 C -0,5 C 0,0 km/h (0 Bft) 100,00 %
02.12.2023 01:25 23,8 C -0,5 C 56 % 97 % 1002,4 hPa 0,0 l/m 0,0 km/h (0 Bft) N 0 0 min 0,000 mm 0,0 UV-I 0 W/m -0,9 C -0,5 C 0,0 km/h (0 Bft) 100,00 %
02.12.2023 01:24 23,8 C -0,4 C 56 % 97 % 1002,5 hPa 0,0 l/m 0,0 km/h (0 Bft) N 0 0 min 0,000 mm 0,0 UV-I 0 W/m -0,8 C -0,4 C 0,0 km/h (0 Bft) 91,30 %
02.12.2023 01:23 23,8 C -0,4 C 56 % 97 % 1002,5 hPa 0,0 l/m 0,0 km/h (0 Bft) N 0 0 min 0,000 mm 0,0 UV-I 0 W/m -0,8 C -0,4 C 0,0 km/h (0 Bft) 100,00 %
02.12.2023 01:22 23,8 C -0,4 C 56 % 97 % 1002,4 hPa 0,0 l/m 0,0 km/h (0 Bft) N 0 0 min 0,000 mm 0,0 UV-I 0 W/m -0,8 C -0,4 C 0,0 km/h (0 Bft) 95,65 %
02.12.2023 01:21 23,8 C -0,3 C 56 % 97 % 1002,4 hPa 0,0 l/m 0,0 km/h (0 Bft) N 0 0 min 0,000 mm 0,0 UV-I 0 W/m -0,7 C -0,3 C 0,0 km/h (0 Bft) 100,00 %
02.12.2023 01:20 23,8 C -0,3 C 56 % 97 % 1002,5 hPa 0,0 l/m 0,0 km/h (0 Bft) N 0 0 min 0,000 mm 0,0 UV-I 0 W/m -0,7 C -0,3 C 0,0 km/h (0 Bft) 100,00 %
02.12.2023 01:19 23,8 C -0,3 C 56 % 97 % 1002,5 hPa 0,0 l/m 0,0 km/h (0 Bft) N 0 0 min 0,000 mm 0,0 UV-I 0 W/m -0,7 C -0,3 C 0,0 km/h (0 Bft) 100,00 %
02.12.2023 01:18 23,8 C -0,3 C 56 % 97 % 1002,5 hPa 0,0 l/m 0,0 km/h (0 Bft) N 0 0 min 0,000 mm 0,0 UV-I 0 W/m -0,7 C -0,3 C 0,0 km/h (0 Bft) 100,00 %
02.12.2023 01:17 23,8 C -0,3 C 56 % 97 % 1002,5 hPa 0,0 l/m 0,0 km/h (0 Bft) N 0 0 min 0,000 mm 0,0 UV-I 0 W/m -0,7 C -0,3 C 0,0 km/h (0 Bft) 95,65 %
02.12.2023 01:16 23,8 C -0,3 C 56 % 97 % 1002,5 hPa 0,0 l/m 0,0 km/h (0 Bft) N 0 0 min 0,000 mm 0,0 UV-I 0 W/m -0,7 C -0,3 C 0,0 km/h (0 Bft) 100,00 %
02.12.2023 01:15 23,8 C -0,3 C 56 % 97 % 1002,5 hPa 0,0 l/m 0,0 km/h (0 Bft) N 0 0 min 0,000 mm 0,0 UV-I 0 W/m -0,7 C -0,3 C 0,0 km/h (0 Bft) 100,00 %
02.12.2023 01:14 23,8 C -0,3 C 56 % 97 % 1002,5 hPa 0,0 l/m 0,0 km/h (0 Bft) N 0 0 min 0,000 mm 0,0 UV-I 0 W/m -0,7 C -0,3 C 0,0 km/h (0 Bft) 91,30 %
02.12.2023 01:13 23,8 C -0,3 C 56 % 97 % 1002,5 hPa 0,0 l/m 0,0 km/h (0 Bft) N 0 0 min 0,000 mm 0,0 UV-I 0 W/m -0,7 C -0,3 C 0,0 km/h (0 Bft) 100,00 %
02.12.2023 01:12 23,8 C -0,3 C 56 % 97 % 1002,6 hPa 0,0 l/m 0,0 km/h (0 Bft) N 0 0 min 0,000 mm 0,0 UV-I 0 W/m -0,7 C -0,3 C 0,0 km/h (0 Bft) 95,65 %
02.12.2023 01:11 23,8 C -0,3 C 56 % 97 % 1002,6 hPa 0,0 l/m 0,0 km/h (0 Bft) N 0 0 min 0,000 mm 0,0 UV-I 0 W/m -0,7 C -0,3 C 0,0 km/h (0 Bft) 100,00 %
02.12.2023 01:10 23,8 C -0,4 C 56 % 97 % 1002,6 hPa 0,0 l/m 0,0 km/h (0 Bft) N 0 0 min 0,000 mm 0,0 UV-I 0 W/m -0,8 C -0,4 C 0,0 km/h (0 Bft) 91,30 %
02.12.2023 01:09 23,8 C -0,4 C 56 % 97 % 1002,5 hPa 0,0 l/m 0,0 km/h (0 Bft) N 0 0 min 0,000 mm 0,0 UV-I 0 W/m -0,8 C -0,4 C 0,0 km/h (0 Bft) 95,65 %
02.12.2023 01:08 23,8 C -0,4 C 56 % 97 % 1002,6 hPa 0,0 l/m 0,0 km/h (0 Bft) N 0 0 min 0,000 mm 0,0 UV-I 0 W/m -0,8 C -0,4 C 0,0 km/h (0 Bft) 100,00 %
02.12.2023 01:07 23,8 C -0,3 C 56 % 97 % 1002,7 hPa 0,0 l/m 0,0 km/h (0 Bft) N 0 0 min 0,000 mm 0,0 UV-I 0 W/m -0,7 C -0,3 C 0,0 km/h (0 Bft) 95,65 %
02.12.2023 01:06 23,8 C -0,3 C 56 % 97 % 1002,7 hPa 0,0 l/m 0,0 km/h (0 Bft) N 0 0 min 0,000 mm 0,0 UV-I 0 W/m -0,7 C -0,3 C 0,0 km/h (0 Bft) 100,00 %
02.12.2023 01:05 23,8 C -0,3 C 56 % 97 % 1002,7 hPa 0,0 l/m 0,0 km/h (0 Bft) N 0 0 min 0,000 mm 0,0 UV-I 0 W/m -0,7 C -0,3 C 0,0 km/h (0 Bft) 95,65 %
02.12.2023 01:04 23,8 C -0,3 C 56 % 97 % 1002,6 hPa 0,0 l/m 0,0 km/h (0 Bft) N 0 0 min 0,000 mm 0,0 UV-I 0 W/m -0,7 C -0,3 C 0,0 km/h (0 Bft) 100,00 %
02.12.2023 01:03 23,8 C -0,2 C 56 % 97 % 1002,6 hPa 0,0 l/m 0,0 km/h (0 Bft) N 0 0 min 0,000 mm 0,0 UV-I 0 W/m -0,6 C -0,2 C 0,0 km/h (0 Bft) 86,96 %
02.12.2023 01:02 23,8 C -0,3 C 56 % 97 % 1002,5 hPa 0,0 l/m 0,0 km/h (0 Bft) N 0 0 min 0,000 mm 0,0 UV-I 0 W/m -0,7 C -0,3 C 0,0 km/h (0 Bft) 95,65 %
02.12.2023 01:01 23,8 C -0,3 C 56 % 97 % 1002,5 hPa 0,0 l/m 0,0 km/h (0 Bft) N 0 0 min 0,000 mm 0,0 UV-I 0 W/m -0,7 C -0,3 C 0,0 km/h (0 Bft) 100,00 %
02.12.2023 01:00 23,8 C -0,3 C 56 % 97 % 1002,5 hPa 0,0 l/m 0,0 km/h (0 Bft) N 0 0 min 0,000 mm 0,0 UV-I 0 W/m -0,7 C -0,3 C 0,0 km/h (0 Bft) 100,00 %
02.12.2023 00:59 23,8 C -0,3 C 56 % 97 % 1002,5 hPa 0,0 l/m 0,0 km/h (0 Bft) N 0 0 min 0,000 mm 0,0 UV-I 0 W/m -0,7 C -0,3 C 0,0 km/h (0 Bft) 95,65 %
02.12.2023 00:58 23,8 C -0,3 C 56 % 97 % 1002,5 hPa 0,0 l/m 0,0 km/h (0 Bft) N 0 0 min 0,000 mm 0,0 UV-I 0 W/m -0,7 C -0,3 C 0,0 km/h (0 Bft) 95,65 %
02.12.2023 00:57 23,8 C -0,4 C 56 % 97 % 1002,5 hPa 0,0 l/m 0,0 km/h (0 Bft) N 0 0 min 0,000 mm 0,0 UV-I 0 W/m -0,8 C -0,4 C 0,0 km/h (0 Bft) 100,00 %
02.12.2023 00:56 23,8 C -0,4 C 56 % 97 % 1002,5 hPa 0,0 l/m 0,0 km/h (0 Bft) N 0 0 min 0,000 mm 0,0 UV-I 0 W/m -0,8 C -0,4 C 0,0 km/h (0 Bft) 91,30 %
02.12.2023 00:55 23,8 C -0,5 C 56 % 97 % 1002,5 hPa 0,0 l/m 0,0 km/h (0 Bft) N 0 0 min 0,000 mm 0,0 UV-I 0 W/m -0,9 C -0,5 C 0,0 km/h (0 Bft) 100,00 %
02.12.2023 00:54 23,8 C -0,6 C 56 % 97 % 1002,5 hPa 0,0 l/m 0,0 km/h (0 Bft) N 0 0 min 0,000 mm 0,0 UV-I 0 W/m -1,0 C -0,6 C 0,0 km/h (0 Bft) 100,00 %
02.12.2023 00:53 23,8 C -0,6 C 56 % 97 % 1002,5 hPa 0,0 l/m 0,0 km/h (0 Bft) N 0 0 min 0,000 mm 0,0 UV-I 0 W/m -1,0 C -0,6 C 0,0 km/h (0 Bft) 100,00 %
02.12.2023 00:52 23,8 C -0,6 C 56 % 97 % 1002,5 hPa 0,0 l/m 0,0 km/h (0 Bft) N 0 0 min 0,000 mm 0,0 UV-I 0 W/m -1,0 C -0,6 C 0,0 km/h (0 Bft) 100,00 %
02.12.2023 00:51 23,8 C -0,6 C 56 % 97 % 1002,6 hPa 0,0 l/m 0,0 km/h (0 Bft) N 0 0 min 0,000 mm 0,0 UV-I 0 W/m -1,0 C -0,6 C 0,0 km/h (0 Bft) 95,65 %
02.12.2023 00:50 23,8 C -0,6 C 56 % 97 % 1002,6 hPa 0,0 l/m 0,0 km/h (0 Bft) N 0 0 min 0,000 mm 0,0 UV-I 0 W/m -1,0 C -0,6 C 0,0 km/h (0 Bft) 100,00 %
02.12.2023 00:49 23,8 C -0,6 C 56 % 97 % 1002,7 hPa 0,0 l/m 0,0 km/h (0 Bft) N 0 0 min 0,000 mm 0,0 UV-I 0 W/m -1,0 C -0,6 C 0,0 km/h (0 Bft) 95,65 %
02.12.2023 00:48 23,8 C -0,6 C 56 % 97 % 1002,7 hPa 0,0 l/m 0,0 km/h (0 Bft) N 0 0 min 0,000 mm 0,0 UV-I 0 W/m -1,0 C -0,6 C 0,0 km/h (0 Bft) 95,65 %
02.12.2023 00:47 23,8 C -0,6 C 56 % 97 % 1002,7 hPa 0,0 l/m 0,0 km/h (0 Bft) N 0 0 min 0,000 mm 0,0 UV-I 0 W/m -1,0 C -0,6 C 0,0 km/h (0 Bft) 100,00 %
02.12.2023 00:46 23,8 C -0,7 C 56 % 97 % 1002,7 hPa 0,0 l/m 0,0 km/h (0 Bft) N 0 0 min 0,000 mm 0,0 UV-I 0 W/m -1,1 C -0,7 C 0,0 km/h (0 Bft) 91,30 %
02.12.2023 00:45 23,8 C -0,7 C 56 % 97 % 1002,7 hPa 0,0 l/m 0,0 km/h (0 Bft) N 0 0 min 0,000 mm 0,0 UV-I 0 W/m -1,1 C -0,7 C 0,0 km/h (0 Bft) 95,65 %
02.12.2023 00:44 23,8 C -0,7 C 56 % 97 % 1002,7 hPa 0,0 l/m 0,0 km/h (0 Bft) N 0 0 min 0,000 mm 0,0 UV-I 0 W/m -1,1 C -0,7 C 0,0 km/h (0 Bft) 95,65 %
02.12.2023 00:43 23,8 C -0,7 C 56 % 97 % 1002,7 hPa 0,0 l/m 0,0 km/h (0 Bft) N 0 0 min 0,000 mm 0,0 UV-I 0 W/m -1,1 C -0,7 C 0,0 km/h (0 Bft) 95,65 %
02.12.2023 00:42 23,8 C -0,8 C 56 % 97 % 1002,7 hPa 0,0 l/m 0,0 km/h (0 Bft) N 0 0 min 0,000 mm 0,0 UV-I 0 W/m -1,2 C -0,8 C 0,0 km/h (0 Bft) 91,30 %
02.12.2023 00:41 23,8 C -0,8 C 56 % 97 % 1002,7 hPa 0,0 l/m 0,0 km/h (0 Bft) N 0 0 min 0,000 mm 0,0 UV-I 0 W/m -1,2 C -0,8 C 0,0 km/h (0 Bft) 91,30 %
02.12.2023 00:40 23,8 C -0,8 C 56 % 97 % 1002,8 hPa 0,0 l/m 0,0 km/h (0 Bft) N 0 0 min 0,000 mm 0,0 UV-I 0 W/m -1,2 C -0,8 C 0,0 km/h (0 Bft) 100,00 %
02.12.2023 00:39 23,8 C -0,7 C 56 % 97 % 1002,8 hPa 0,0 l/m 0,0 km/h (0 Bft) N 0 0 min 0,000 mm 0,0 UV-I 0 W/m -1,1 C -0,7 C 0,0 km/h (0 Bft) 95,65 %
02.12.2023 00:38 23,8 C -0,6 C 56 % 97 % 1002,7 hPa 0,0 l/m 0,0 km/h (0 Bft) N 0 0 min 0,000 mm 0,0 UV-I 0 W/m -1,0 C -0,6 C 0,0 km/h (0 Bft) 100,00 %
02.12.2023 00:37 23,8 C -0,4 C 56 % 97 % 1002,7 hPa 0,0 l/m 0,0 km/h (0 Bft) N 0 0 min 0,000 mm 0,0 UV-I 0 W/m -0,8 C -0,4 C 0,0 km/h (0 Bft) 95,65 %
02.12.2023 00:36 23,8 C -0,3 C 56 % 97 % 1002,8 hPa 0,0 l/m 0,0 km/h (0 Bft) N 0 0 min 0,000 mm 0,0 UV-I 0 W/m -0,7 C -0,3 C 0,0 km/h (0 Bft) 95,65 %
02.12.2023 00:35 23,8 C -0,1 C 56 % 97 % 1002,7 hPa 0,0 l/m 0,0 km/h (0 Bft) N 0 0 min 0,000 mm 0,0 UV-I 0 W/m -0,5 C -0,1 C 0,0 km/h (0 Bft) 95,65 %
02.12.2023 00:34 23,8 C -0,1 C 56 % 97 % 1002,7 hPa 0,0 l/m 0,0 km/h (0 Bft) N 0 0 min 0,000 mm 0,0 UV-I 0 W/m -0,5 C -0,1 C 0,0 km/h (0 Bft) 95,65 %
02.12.2023 00:33 23,8 C -0,1 C 56 % 97 % 1002,7 hPa 0,0 l/m 0,0 km/h (0 Bft) N 0 0 min 0,000 mm 0,0 UV-I 0 W/m -0,5 C -0,1 C 0,0 km/h (0 Bft) 100,00 %
02.12.2023 00:32 23,8 C -0,3 C 56 % 97 % 1002,8 hPa 0,0 l/m 0,0 km/h (0 Bft) N 0 0 min 0,000 mm 0,0 UV-I 0 W/m -0,7 C -0,3 C 0,0 km/h (0 Bft) 95,65 %
02.12.2023 00:31 23,8 C -0,4 C 56 % 97 % 1002,7 hPa 0,0 l/m 0,0 km/h (0 Bft) N 0 0 min 0,000 mm 0,0 UV-I 0 W/m -0,8 C -0,4 C 0,0 km/h (0 Bft) 95,65 %
02.12.2023 00:30 23,8 C -0,6 C 56 % 97 % 1002,7 hPa 0,0 l/m 0,0 km/h (0 Bft) N 0 0 min 0,000 mm 0,0 UV-I 0 W/m -1,0 C -0,6 C 0,0 km/h (0 Bft) 86,96 %
02.12.2023 00:29 23,8 C -0,6 C 56 % 97 % 1002,7 hPa 0,0 l/m 0,0 km/h (0 Bft) N 0 0 min 0,000 mm 0,0 UV-I 0 W/m -1,0 C -0,6 C 0,0 km/h (0 Bft) 100,00 %
02.12.2023 00:28 23,8 C -0,8 C 56 % 97 % 1002,7 hPa 0,0 l/m 0,0 km/h (0 Bft) N 0 0 min 0,000 mm 0,0 UV-I 0 W/m -1,2 C -0,8 C 0,0 km/h (0 Bft) 95,65 %
02.12.2023 00:27 23,8 C -0,9 C 56 % 97 % 1002,7 hPa 0,0 l/m 0,0 km/h (0 Bft) N 0 0 min 0,000 mm 0,0 UV-I 0 W/m -1,3 C -0,9 C 0,0 km/h (0 Bft) 95,65 %
02.12.2023 00:26 23,8 C -1,0 C 56 % 96 % 1002,7 hPa 0,0 l/m 0,0 km/h (0 Bft) N 0 0 min 0,000 mm 0,0 UV-I 0 W/m -1,6 C -1,0 C 0,0 km/h (0 Bft) 91,30 %
02.12.2023 00:25 23,8 C -1,1 C 56 % 96 % 1002,8 hPa 0,0 l/m 0,0 km/h (0 Bft) N 0 0 min 0,000 mm 0,0 UV-I 0 W/m -1,7 C -1,1 C 0,0 km/h (0 Bft) 100,00 %
02.12.2023 00:24 23,8 C -1,2 C 56 % 96 % 1002,7 hPa 0,0 l/m 0,0 km/h (0 Bft) N 0 0 min 0,000 mm 0,0 UV-I 0 W/m -1,8 C -1,2 C 0,0 km/h (0 Bft) 91,30 %
02.12.2023 00:23 23,8 C -1,2 C 56 % 97 % 1002,7 hPa 0,0 l/m 0,0 km/h (0 Bft) N 0 0 min 0,000 mm 0,0 UV-I 0 W/m -1,6 C -1,2 C 0,0 km/h (0 Bft) 100,00 %
02.12.2023 00:22 23,8 C -1,0 C 56 % 97 % 1002,7 hPa 0,0 l/m 0,0 km/h (0 Bft) N 0 0 min 0,000 mm 0,0 UV-I 0 W/m -1,4 C -1,0 C 0,0 km/h (0 Bft) 95,65 %
02.12.2023 00:21 23,8 C -0,9 C 56 % 97 % 1002,6 hPa 0,0 l/m 0,0 km/h (0 Bft) N 0 0 min 0,000 mm 0,0 UV-I 0 W/m -1,3 C -0,9 C 0,0 km/h (0 Bft) 95,65 %
02.12.2023 00:20 23,8 C -0,9 C 56 % 97 % 1002,7 hPa 0,0 l/m 0,0 km/h (0 Bft) N 0 0 min 0,000 mm 0,0 UV-I 0 W/m -1,3 C -0,9 C 0,0 km/h (0 Bft) 86,96 %
02.12.2023 00:19 23,8 C -0,9 C 56 % 97 % 1002,6 hPa 0,0 l/m 0,0 km/h (0 Bft) N 0 0 min 0,000 mm 0,0 UV-I 0 W/m -1,3 C -0,9 C 0,0 km/h (0 Bft) 100,00 %
02.12.2023 00:18 23,8 C -0,8 C 56 % 97 % 1002,6 hPa 0,0 l/m 0,0 km/h (0 Bft) N 0 0 min 0,000 mm 0,0 UV-I 0 W/m -1,2 C -0,8 C 0,0 km/h (0 Bft) 91,30 %
02.12.2023 00:17 23,8 C -0,9 C 56 % 97 % 1002,6 hPa 0,0 l/m 0,0 km/h (0 Bft) N 0 0 min 0,000 mm 0,0 UV-I 0 W/m -1,3 C -0,9 C 0,0 km/h (0 Bft) 82,61 %
02.12.2023 00:16 23,8 C -1,0 C 56 % 96 % 1002,6 hPa 0,0 l/m 0,0 km/h (0 Bft) N 0 0 min 0,000 mm 0,0 UV-I 0 W/m -1,6 C -1,0 C 0,0 km/h (0 Bft) 100,00 %
02.12.2023 00:15 23,8 C -1,0 C 56 % 96 % 1002,6 hPa 0,0 l/m 0,0 km/h (0 Bft) N 0 0 min 0,000 mm 0,0 UV-I 0 W/m -1,6 C -1,0 C 0,0 km/h (0 Bft) 95,65 %
02.12.2023 00:14 23,8 C -1,0 C 56 % 97 % 1002,7 hPa 0,0 l/m 0,0 km/h (0 Bft) N 0 0 min 0,000 mm 0,0 UV-I 0 W/m -1,4 C -1,0 C 0,0 km/h (0 Bft) 95,65 %
02.12.2023 00:13 23,8 C -0,9 C 56 % 97 % 1002,7 hPa 0,0 l/m 0,0 km/h (0 Bft) N 0 0 min 0,000 mm 0,0 UV-I 0 W/m -1,3 C -0,9 C 0,0 km/h (0 Bft) 95,65 %
02.12.2023 00:12 23,8 C -0,9 C 56 % 97 % 1002,6 hPa 0,0 l/m 0,0 km/h (0 Bft) N 0 0 min 0,000 mm 0,0 UV-I 0 W/m -1,3 C -0,9 C 0,0 km/h (0 Bft) 95,65 %
02.12.2023 00:11 23,8 C -0,8 C 56 % 97 % 1002,6 hPa 0,0 l/m 0,0 km/h (0 Bft) N 0 0 min 0,000 mm 0,0 UV-I 0 W/m -1,2 C -0,8 C 0,0 km/h (0 Bft) 86,96 %
02.12.2023 00:10 23,8 C -0,7 C 56 % 97 % 1002,6 hPa 0,0 l/m 0,0 km/h (0 Bft) N 0 0 min 0,000 mm 0,0 UV-I 0 W/m -1,1 C -0,7 C 0,0 km/h (0 Bft) 86,96 %
02.12.2023 00:09 23,8 C -0,6 C 56 % 97 % 1002,6 hPa 0,0 l/m 0,0 km/h (0 Bft) N 0 0 min 0,000 mm 0,0 UV-I 0 W/m -1,0 C -0,6 C 0,0 km/h (0 Bft) 86,96 %
02.12.2023 00:08 23,8 C -0,6 C 56 % 97 % 1002,6 hPa 0,0 l/m 0,0 km/h (0 Bft) N 0 0 min 0,000 mm 0,0 UV-I 0 W/m -1,0 C -0,6 C 0,0 km/h (0 Bft) 78,26 %
02.12.2023 00:07 23,8 C -0,4 C 56 % 97 % 1002,6 hPa 0,0 l/m 0,0 km/h (0 Bft) N 0 0 min 0,000 mm 0,0 UV-I 0 W/m -0,8 C -0,4 C 0,0 km/h (0 Bft) 86,96 %
02.12.2023 00:06 23,8 C -0,3 C 56 % 97 % 1002,7 hPa 0,0 l/m 0,0 km/h (0 Bft) N 0 0 min 0,000 mm 0,0 UV-I 0 W/m -0,7 C -0,3 C 0,0 km/h (0 Bft) 86,96 %
02.12.2023 00:05 23,8 C -0,2 C 56 % 97 % 1002,7 hPa 0,0 l/m 0,0 km/h (0 Bft) N 0 0 min 0,000 mm 0,0 UV-I 0 W/m -0,6 C -0,2 C 0,0 km/h (0 Bft) 100,00 %
02.12.2023 00:04 23,8 C -0,2 C 56 % 97 % 1002,7 hPa 0,0 l/m 0,0 km/h (0 Bft) N 0 0 min 0,000 mm 0,0 UV-I 0 W/m -0,6 C -0,2 C 0,0 km/h (0 Bft) 91,30 %
02.12.2023 00:03 23,8 C -0,2 C 56 % 97 % 1002,7 hPa 0,0 l/m 0,0 km/h (0 Bft) N 0 0 min 0,000 mm 0,0 UV-I 0 W/m -0,6 C -0,2 C 0,0 km/h (0 Bft) 95,65 %
02.12.2023 00:02 23,8 C -0,2 C 56 % 97 % 1002,7 hPa 0,0 l/m 0,0 km/h (0 Bft) N 0 0 min 0,000 mm 0,0 UV-I 0 W/m -0,6 C -0,2 C 0,0 km/h (0 Bft) 100,00 %
02.12.2023 00:01 23,8 C -0,2 C 56 % 97 % 1002,7 hPa 0,0 l/m 0,0 km/h (0 Bft) N 0 0 min 0,000 mm 0,0 UV-I 0 W/m -0,6 C -0,2 C 0,0 km/h (0 Bft) 95,65 %
02.12.2023 00:00 23,8 C -0,2 C 56 % 97 % 1002,7 hPa 0,0 l/m 0,0 km/h (0 Bft) N 0 0 min 0,000 mm 0,0 UV-I 0 W/m -0,6 C -0,2 C 0,0 km/h (0 Bft) 95,65 %
_ Min-Zeit 13:07 21:34 13:04 20:07 04:04 - 00:00 - - - - - - 21:35 21:24 00:00 03:23
Minimum _ 22,7 C -2,4 C 38 % 90 % 1002,2 hPa - 0,0 km/h (0 Bft) - - - - - - -3,8 C -5,7 C 0,0 km/h (0 Bft) 17,39 %
_ Max-Zeit 05:19 14:27 08:23 00:00 21:50 00:00 21:07 - - 00:00 00:00 00:00 11:30 14:27 14:27 21:06 00:02
Maximum _ 23,9 C 0,3 C 57 % 97 % 1018,2 hPa 0,0 l/m 9,7 km/h
W-SW (2 Bft)
- - 0 min 0,000 mm 0,0 UV-I 16 W/m -0,3 C 0,3 C 20,9 km/h
W-SW (4 Bft)
100,00 %
Durchschnitt _ 23,7 C -0,7 C 54 % 95 % 1007,0 hPa #0,0 l/m 1,2 km/h (1 Bft) W - #0 min. #0,000 mm 0,0 UV-I 9 W/m -1,4 C -0,8 C 2,5 km/h (1 Bft) 93,91 %